GFSGBSN_sfc_temp_000.txt.gz
Temp
65 65 64 64 64 63 63 63 62 62 62 63 63 63 62 62 62 62 62 63 63 64 64 64 64 64 58 50 52 68 71 72 70 70 65 66 63 59 54 56 58 54 59 62 64 63 62
65 64 64 64 64 63 63 63 62 62 62 62 62 62 62 62 62 62 62 62 63 63 63 64 63 62 54 43 64 69 68 67 67 67 66 67 64 66 59 58 57 59 60 61 62 63 62
65 65 64 64 63 63 63 63 62 62 62 62 62 62 61 61 61 62 62 62 63 62 63 63 64 59 51 51 64 70 69 65 67 67 65 69 69 66 61 56 62 61 54 57 60 61 61
64 64 64 63 63 62 62 62 62 62 62 62 62 61 61 61 61 61 62 62 62 61 62 63 63 55 47 63 64 64 66 64 66 67 71 71 68 63 63 61 59 52 51 46 55 58 61
64 64 64 63 63 63 62 62 62 62 62 61 61 60 60 59 57 59 60 61 62 62 62 62 54 51 44 64 57 63 65 62 62 64 68 71 67 60 62 53 50 47 42 44 51 59 58
64 63 63 63 62 62 62 62 62 61 62 62 61 59 58 58 57 58 59 60 59 59 59 60 56 48 52 51 59 64 65 65 59 60 60 60 56 53 55 51 40 42 42 44 45 55 54
64 63 63 63 62 62 62 62 62 62 61 60 60 59 59 58 58 59 57 53 47 46 50 48 47 49 54 59 64 62 66 62 59 56 51 55 49 46 48 55 51 49 45 44 50 57 55
64 64 63 62 62 62 62 61 62 61 61 60 59 59 59 59 58 59 56 49 52 53 43 51 52 52 57 60 54 58 65 55 52 49 55 49 46 53 56 53 52 50 46 45 52 57 54
63 63 63 62 62 61 61 61 61 61 61 60 59 59 59 59 58 56 53 53 56 54 44 48 52 53 56 58 53 54 59 56 52 51 51 49 53 57 56 51 51 47 45 45 48 53 53
63 62 62 62 61 61 61 60 60 61 61 60 59 59 58 57 52 55 52 55 56 55 40 40 46 53 55 56 49 57 57 57 54 50 53 50 54 55 54 52 51 44 53 54 51 46 41
63 63 61 61 61 60 60 60 60 61 60 59 59 58 57 57 53 51 54 56 56 51 28 43 47 56 53 52 51 50 55 56 52 52 48 50 53 52 52 52 54 51 56 51 49 43 39
62 63 61 61 61 60 60 60 60 60 60 59 59 58 56 55 55 56 56 56 53 38 28 40 47 46 45 49 49 51 51 58 61 53 52 51 58 55 54 56 56 57 51 48 43 41 35
61 62 61 61 60 60 60 60 60 60 60 59 58 58 56 58 52 56 56 51 37 34 43 40 42 47 46 45 47 49 47 47 46 42 41 47 51 53 57 51 52 50 43 35 34 33 34
62 61 61 61 60 60 60 60 60 60 59 58 58 57 57 59 58 56 53 45 36 40 41 48 47 47 43 47 46 47 45 44 50 48 42 39 42 50 55 52 48 46 45 36 32 31 37
61 61 60 60 60 60 60 60 59 59 58 57 57 53 53 56 58 55 48 40 39 43 47 45 47 41 41 47 48 46 45 48 51 51 47 43 40 49 52 53 53 46 42 47 41 36 36
61 60 60 60 60 60 59 59 59 58 58 58 49 50 54 58 58 53 47 43 45 51 50 50 41 44 40 44 44 47 43 53 51 55 51 46 38 46 49 52 50 47 51 41 39 33 31
60 60 60 60 59 59 58 58 59 58 58 57 48 48 55 60 59 50 43 44 47 54 53 48 47 44 44 45 46 46 46 50 53 53 52 49 44 40 47 45 45 45 43 43 42 39 34
60 60 60 59 59 58 58 58 58 58 57 52 48 46 56 60 46 45 44 49 50 50 52 51 55 51 48 49 49 44 45 48 54 55 50 49 43 36 41 47 49 46 47 45 39 37 36
60 60 59 59 58 58 58 58 58 58 57 47 45 51 56 57 44 42 48 49 49 49 50 53 50 54 55 50 45 48 48 53 54 53 50 52 43 35 37 42 45 44 47 46 44 41 37
59 59 59 58 58 57 57 57 57 57 57 48 46 46 49 48 46 46 47 46 47 52 51 54 53 55 51 49 50 46 47 51 53 53 52 53 45 42 40 41 45 42 45 46 44 37 38
59 59 59 58 58 58 58 57 57 57 57 49 46 45 46 46 45 45 47 49 46 47 53 53 52 53 51 46 46 45 47 50 53 53 51 51 44 43 44 47 46 46 46 45 43 41 41
58 58 59 58 58 58 58 56 56 56 56 47 46 44 45 44 47 45 43 44 45 46 49 48 47 49 50 46 47 46 49 48 49 51 49 50 43 45 42 47 46 43 46 46 45 45 45
58 58 58 58 58 57 57 56 56 56 54 45 46 47 47 44 43 42 42 45 47 49 50 51 51 50 46 47 51 52 53 52 52 50 48 47 44 42 37 42 43 40 43 43 42 44 46
57 57 57 58 57 57 56 56 56 56 53 47 46 46 44 41 43 44 46 47 47 47 47 47 50 48 48 50 51 51 50 48 48 46 48 43 40 38 35 37 30 41 47 49 46 47 47
57 57 57 57 57 57 56 56 56 56 56 48 47 46 43 39 43 45 45 45 45 45 44 45 45 45 46 47 43 41 40 42 43 43 44 44 39 34 33 31 39 42 45 46 44 42 46
57 57 56 56 56 55 55 56 56 56 56 49 47 47 44 43 42 48 45 42 40 40 40 42 46 47 45 45 41 35 34 37 35 37 43 42 41 38 27 27 30 40 46 49 47 36 46
56 56 56 55 55 55 55 55 55 55 55 51 48 49 47 42 43 44 43 44 43 39 38 39 41 44 45 40 37 33 35 39 35 35 34 34 34 32 31 29 34 44 48 48 35 36 43
56 55 55 55 55 55 55 55 55 55 55 52 49 49 48 43 43 47 47 43 43 42 41 42 43 43 40 38 37 34 34 36 34 36 35 34 30 30 30 28 27 45 45 40 43 43 44
55 55 54 54 54 54 54 55 55 55 55 54 48 51 50 47 46 48 49 49 48 48 43 41 43 41 43 38 36 35 34 32 33 32 37 35 39 36 36 35 45 44 46 46 48 46 44

GFSGBSN_sfc_temp_003.txt.gz
Temp
66 65 64 64 64 64 63 63 63 62 62 63 63 63 63 62 63 62 63 63 63 64 64 64 64 63 57 49 50 65 70 70 69 67 63 61 57 56 52 54 55 52 57 60 62 61 59
65 65 64 64 64 63 63 63 63 62 62 62 63 62 62 62 62 62 62 62 62 63 63 63 63 62 51 42 63 66 65 64 65 63 62 61 61 61 56 56 55 58 58 60 60 61 60
66 65 65 64 63 63 63 63 62 62 62 62 62 62 62 61 61 62 62 62 62 62 62 62 64 58 50 50 62 64 67 63 65 64 61 64 65 65 59 55 61 58 53 56 58 60 58
65 65 64 64 63 63 63 62 62 62 62 62 62 62 61 61 61 61 61 62 62 61 61 62 63 54 47 62 63 61 64 62 63 65 64 66 68 66 58 59 56 52 49 45 54 56 58
65 64 64 64 63 63 63 62 62 62 61 62 62 61 60 59 60 59 59 60 61 61 62 61 53 51 46 63 55 61 63 58 60 62 63 70 67 61 58 51 46 50 40 43 50 56 54
64 64 64 63 63 63 62 62 62 62 62 62 60 60 59 59 58 59 59 60 61 59 58 58 56 46 50 49 56 61 64 61 56 59 58 58 57 49 52 49 43 43 41 43 44 52 51
64 64 64 63 63 62 62 62 62 62 62 61 60 59 59 59 58 58 57 52 46 45 50 46 48 48 52 57 61 58 63 59 57 57 50 55 48 46 48 50 53 48 45 43 47 53 50
64 64 63 63 62 62 62 62 61 61 61 61 60 59 59 59 58 58 55 48 52 52 42 51 52 52 55 58 51 56 64 53 50 47 54 48 46 54 54 54 51 49 43 43 50 53 50
64 64 63 62 62 62 62 61 61 61 61 61 60 59 58 58 58 55 52 52 56 54 44 46 50 50 52 55 50 52 59 55 48 48 50 48 51 56 55 50 49 46 43 43 46 51 50
63 63 63 62 62 61 61 61 60 61 60 60 60 59 58 57 52 54 51 55 56 55 35 39 44 50 53 54 48 59 60 57 50 46 51 50 55 52 51 48 53 45 52 49 48 44 39
63 63 63 62 61 61 60 60 60 60 60 59 59 58 57 57 54 51 53 56 55 52 20 43 46 57 55 49 49 49 56 54 48 49 50 46 50 50 49 51 53 47 53 49 47 43 37
62 62 62 62 61 60 60 60 60 60 59 59 59 59 57 55 54 55 56 56 53 36 28 39 46 44 45 49 50 50 52 54 60 52 53 51 57 57 55 55 54 54 49 46 41 39 33
62 62 62 61 61 60 60 60 60 60 59 59 58 58 56 57 51 57 56 51 36 32 42 38 40 45 45 44 45 48 47 46 46 41 43 48 48 55 55 52 51 48 43 34 32 32 32
61 61 61 61 61 60 60 60 60 60 59 58 57 57 57 58 57 56 53 42 32 39 38 47 46 44 39 46 46 47 45 44 52 47 44 39 39 49 53 51 46 44 45 35 30 30 33
61 61 60 60 60 61 60 60 59 59 58 57 57 52 53 56 58 56 46 34 39 42 47 43 42 38 40 46 46 45 43 46 52 52 45 39 40 48 50 51 53 44 41 45 39 34 32
61 61 60 60 60 60 59 59 59 58 58 57 51 47 52 58 58 52 44 41 44 50 51 47 40 43 39 43 42 42 42 49 51 53 49 46 37 45 48 51 49 47 50 40 37 31 29
60 60 60 60 60 59 58 58 59 58 58 56 47 46 53 58 57 48 42 43 47 54 54 50 45 42 45 43 44 42 43 49 54 53 52 46 43 38 45 43 43 43 41 41 41 37 32
60 60 60 60 59 58 58 58 58 58 57 52 46 44 55 57 46 47 44 48 52 51 51 50 49 48 44 45 44 43 42 46 54 55 47 46 43 36 38 44 47 43 44 43 37 34 33
60 60 59 59 58 58 58 58 58 58 56 46 43 48 56 54 43 43 46 47 50 49 49 50 49 51 50 47 45 43 45 50 52 52 51 50 40 34 36 41 42 41 44 43 41 39 34
59 59 59 58 58 57 57 58 57 57 57 49 43 45 45 48 46 48 44 44 45 50 51 52 52 53 49 47 48 43 44 49 52 52 52 53 43 39 38 39 42 39 43 43 43 35 36
59 59 59 58 58 57 57 57 56 56 56 48 43 44 45 40 44 47 47 47 44 45 51 51 50 51 49 44 45 43 46 48 52 53 50 50 43 42 41 44 43 43 43 43 41 41 40
58 58 58 58 58 58 57 57 56 56 55 47 43 43 44 42 45 46 46 44 43 46 48 47 47 48 50 48 47 45 48 48 48 49 46 47 40 41 37 42 43 40 42 43 42 42 41
58 58 58 58 57 57 57 56 56 56 54 44 44 45 46 43 42 41 43 46 47 48 49 51 51 48 46 48 50 50 51 49 48 48 46 46 42 40 34 38 39 37 42 42 42 43 45
58 57 57 57 57 57 56 56 56 56 52 46 45 44 44 41 42 43 45 46 46 47 46 47 49 49 50 53 52 54 51 49 48 45 47 42 40 38 35 37 30 42 46 48 45 45 48
58 57 57 57 57 56 56 56 56 56 55 46 45 45 43 38 41 43 44 42 44 44 43 44 45 45 48 48 46 43 43 45 45 43 44 45 42 36 36 34 37 40 45 44 44 41 46
58 57 57 57 56 56 55 55 56 56 55 47 46 46 43 42 42 45 44 42 40 38 40 42 45 45 47 43 41 36 34 39 35 38 44 43 42 40 29 29 32 41 46 49 48 35 44
57 57 57 56 56 55 55 55 55 55 55 50 47 47 45 41 41 42 43 43 43 40 38 39 42 43 43 39 36 30 34 38 34 34 35 36 36 34 34 32 37 45 47 48 36 37 42
56 56 56 56 55 55 55 55 55 55 55 51 48 48 47 41 42 45 46 43 42 41 41 41 43 42 39 38 37 35 35 37 36 35 35 35 31 32 32 30 31 44 45 41 42 42 44
56 56 55 55 55 54 54 55 55 55 55 53 47 50 49 45 44 46 47 47 46 46 42 39 42 40 42 37 35 34 34 33 34 33 36 35 39 36 37 36 43 42 44 44 46 44 44

GFSGBSN_sfc_temp_006.txt.gz
Temp
66 65 65 64 64 64 64 63 63 63 63 63 63 63 63 63 63 63 63 63 63 63 64 63 63 62 56 49 49 63 68 67 68 65 62 59 55 54 51 52 54 50 54 58 60 59 58
66 66 65 65 64 64 63 63 63 63 63 63 63 63 62 62 62 62 62 62 62 63 63 63 63 61 50 42 60 64 64 63 62 61 61 61 58 58 55 54 54 56 57 57 58 60 58
65 65 65 64 64 64 63 63 62 62 62 63 63 62 62 62 62 62 62 62 62 62 62 63 62 57 50 48 60 60 63 63 62 62 58 61 62 63 60 54 58 56 50 55 56 57 57
65 65 65 64 64 63 63 62 62 62 63 63 63 62 61 61 61 61 62 62 62 62 62 62 62 53 44 60 63 60 60 61 62 63 62 64 64 63 61 61 57 51 48 43 52 54 57
65 65 64 64 64 64 63 62 62 62 63 62 62 61 61 60 60 60 60 60 61 61 62 61 54 50 45 62 54 58 60 55 57 60 62 66 61 59 60 53 50 51 45 42 48 55 53
65 65 64 64 63 63 63 63 62 62 62 62 62 61 60 60 60 59 59 59 60 58 57 58 56 45 48 48 55 58 59 60 56 56 56 56 56 52 48 45 41 45 46 40 43 49 49
65 64 64 63 63 63 63 62 62 62 62 62 61 60 60 58 59 59 57 53 46 44 49 45 45 46 51 55 59 55 59 58 55 51 47 53 48 44 47 53 47 47 43 43 46 51 47
64 64 64 63 62 63 62 62 62 62 62 61 61 60 59 58 58 58 55 47 50 52 41 49 51 50 55 54 48 53 61 51 49 42 51 49 44 53 51 52 51 49 47 42 48 50 47
64 64 64 63 62 62 62 62 61 61 61 61 60 59 58 57 58 55 51 52 56 56 43 44 49 49 51 54 48 49 57 53 46 44 47 46 50 57 53 48 49 48 46 42 44 48 48
63 63 63 63 62 61 61 61 61 61 60 60 60 59 57 57 52 53 50 55 55 56 35 38 43 48 52 51 45 57 60 55 48 44 49 48 53 53 52 47 49 42 49 51 47 43 37
63 63 63 62 62 61 61 60 60 60 60 59 59 59 58 57 53 50 54 55 55 50 22 42 44 57 52 46 48 49 60 55 44 45 50 46 47 47 48 51 51 46 53 51 49 40 35
63 62 62 62 61 61 60 60 60 60 59 59 59 59 58 55 54 55 56 56 51 35 25 36 44 43 43 46 48 51 52 55 56 49 49 47 54 52 51 53 54 54 50 48 44 39 32
62 62 61 61 61 61 60 60 60 60 59 59 58 58 57 57 51 56 55 49 34 29 40 36 38 43 44 41 45 47 44 43 43 38 40 44 47 52 55 49 52 50 47 35 34 31 31
62 61 61 61 61 61 60 60 60 60 59 58 57 57 57 57 57 56 51 40 30 35 37 45 42 43 39 44 45 46 44 42 47 44 43 39 36 46 52 49 45 46 43 34 29 29 32
61 61 61 60 61 61 60 60 60 59 58 57 57 54 53 56 57 55 44 33 34 41 44 43 43 37 38 44 43 44 43 42 48 50 40 38 38 46 51 51 53 42 41 44 37 31 31
61 60 60 61 61 60 60 59 59 59 58 57 51 48 49 57 57 51 40 36 41 50 48 46 37 42 37 40 41 41 41 50 49 52 49 44 36 46 47 54 51 47 49 39 36 30 28
60 60 60 60 60 59 59 58 59 59 58 56 48 44 53 57 55 47 37 38 46 53 50 47 42 40 44 40 42 40 41 48 52 49 49 45 41 41 46 43 44 43 40 39 40 35 31
60 60 60 60 59 58 58 58 58 58 57 51 45 42 54 56 44 46 41 47 51 50 51 49 51 49 45 43 44 42 42 46 54 51 46 47 40 36 42 42 46 43 43 42 36 32 31
60 60 59 59 58 58 58 58 58 58 56 45 43 48 54 52 42 43 47 48 50 49 49 49 46 51 51 45 42 45 45 50 51 50 48 48 39 33 37 40 41 40 41 41 39 37 31
60 59 59 58 58 57 57 57 58 57 57 46 47 43 47 48 47 45 44 45 45 49 48 52 49 50 50 46 46 42 42 49 51 51 52 53 42 39 36 37 42 37 40 40 41 34 33
59 59 59 58 58 58 57 57 57 57 56 47 42 47 48 40 43 46 47 47 44 44 50 52 47 50 46 42 42 41 44 46 50 52 48 51 42 40 40 42 42 42 42 41 40 41 39
59 59 58 58 58 58 57 57 57 56 55 45 42 43 46 42 47 47 45 44 45 46 48 48 46 47 48 46 44 42 45 44 45 46 46 49 41 41 37 41 40 39 41 41 40 40 38
59 58 58 58 57 57 57 56 56 56 53 44 43 48 49 45 44 45 45 47 46 49 48 49 49 48 45 47 47 48 48 47 48 49 45 44 42 40 34 38 37 36 41 39 40 41 43
58 58 58 58 57 57 56 56 56 56 53 46 44 45 43 42 45 45 47 47 45 47 46 47 50 49 49 52 52 52 50 48 47 44 46 43 40 38 32 33 28 39 42 44 42 42 44
58 58 58 57 57 56 56 56 56 56 55 45 44 44 42 38 40 41 43 42 43 43 44 45 46 46 50 49 45 42 43 44 42 43 43 45 41 34 34 31 37 39 42 42 43 39 44
58 58 58 57 56 56 56 56 56 56 55 46 45 45 43 41 40 44 42 40 39 39 40 42 44 46 48 46 44 36 35 38 37 37 43 42 42 39 27 28 30 39 45 48 48 38 46
58 57 57 57 56 56 56 55 55 55 55 49 45 46 44 40 40 41 42 42 41 38 37 38 41 42 43 39 36 35 35 38 35 36 36 36 35 34 34 32 36 44 47 48 37 38 44
56 57 56 56 56 55 55 55 55 55 55 50 47 47 46 40 40 44 45 42 41 41 40 41 43 43 39 38 37 34 34 36 34 35 34 35 31 31 31 30 31 44 45 41 42 42 44
55 56 56 55 55 55 55 55 55 55 55 53 46 48 48 44 43 45 46 46 45 46 41 39 41 40 42 36 35 35 33 32 35 34 37 36 39 36 37 36 43 41 43 43 45 44 43

GFSGBSN_sfc_temp_009.txt.gz
Temp
67 66 66 65 65 64 64 64 63 63 63 63 63 63 63 63 63 63 63 63 63 64 64 64 64 62 56 49 51 64 69 66 66 66 60 58 56 56 54 56 56 54 58 60 62 61 60
67 66 65 65 65 64 64 63 63 63 63 63 63 63 63 62 62 62 62 62 63 63 63 63 63 61 52 43 61 66 63 63 63 62 59 60 59 60 56 56 57 58 59 61 60 62 61
67 66 65 65 64 64 63 63 63 62 63 63 63 63 62 62 62 62 62 62 63 63 62 63 63 57 51 49 61 62 62 61 64 63 57 62 62 62 60 55 59 59 55 57 58 61 61
67 66 65 65 64 64 63 63 62 62 63 63 63 63 62 61 61 61 62 62 62 62 62 62 61 53 46 61 63 61 60 59 63 63 61 63 63 60 61 63 58 55 55 48 57 59 60
66 66 65 64 64 64 64 63 62 62 62 63 63 62 62 61 61 60 60 61 61 61 61 61 52 50 44 62 54 59 60 55 59 60 61 65 61 57 60 53 50 51 44 46 51 58 58
66 66 65 64 64 64 63 63 63 62 62 62 62 62 61 61 60 60 60 60 60 59 57 58 55 45 49 48 55 57 58 59 53 55 55 55 53 50 52 49 40 44 46 48 48 55 54
65 65 65 64 63 63 63 63 63 62 62 62 62 61 61 60 58 58 57 53 46 45 49 45 46 46 51 55 58 55 58 56 55 52 44 51 46 44 49 53 52 50 50 50 51 55 53
65 65 65 64 64 63 63 62 62 62 62 61 61 61 60 59 58 58 56 47 50 52 41 49 50 50 54 56 48 52 59 50 47 43 48 47 43 53 54 52 51 49 48 47 50 53 53
64 64 64 64 63 63 62 62 62 62 61 61 61 60 59 58 57 56 52 52 57 56 42 45 49 48 50 52 47 48 54 52 46 44 45 44 49 57 53 49 49 48 46 46 47 50 52
64 64 64 63 63 63 62 61 61 61 60 60 60 60 59 57 53 53 50 54 54 53 34 38 41 47 51 51 44 55 57 53 48 43 46 46 53 52 50 48 50 44 51 52 49 47 42
63 63 63 63 62 62 61 61 61 61 60 59 59 59 59 56 52 50 53 54 53 48 24 41 42 57 52 47 48 47 58 54 45 45 48 44 47 49 47 49 51 47 53 51 50 46 43
63 63 63 62 61 61 61 61 61 60 59 59 58 58 58 54 54 55 55 54 50 33 24 36 44 42 42 45 47 49 50 55 54 49 50 46 53 54 53 53 54 52 49 47 46 44 37
62 62 62 62 61 61 61 60 60 60 59 59 58 58 56 56 51 56 54 48 33 27 39 35 38 42 43 39 41 45 43 42 39 36 39 43 47 50 52 49 51 51 46 35 32 34 35
62 62 62 61 61 61 60 60 60 60 59 58 57 57 56 56 57 55 51 39 28 36 34 44 41 41 38 42 41 43 42 36 44 43 41 37 37 47 50 48 45 46 46 37 32 32 36
62 62 61 61 61 61 60 60 60 59 58 58 57 54 53 56 57 54 43 31 33 38 39 40 40 36 36 42 42 41 40 40 44 45 41 38 38 47 51 52 52 42 41 48 38 37 36
62 61 61 60 61 60 60 60 59 59 58 57 51 49 51 58 56 49 37 35 38 42 44 45 35 39 33 38 36 42 38 46 45 49 48 44 37 46 49 53 51 48 52 39 40 34 32
62 61 61 60 60 59 59 59 58 59 58 56 49 43 54 57 54 44 34 36 42 48 48 45 41 39 42 38 37 38 38 47 51 50 47 45 41 39 47 46 43 44 41 43 43 39 35
61 61 60 60 59 59 58 59 58 58 56 52 43 43 54 55 42 42 38 43 47 47 51 47 46 45 41 41 38 42 40 46 53 51 45 46 41 36 40 45 48 47 45 46 39 35 35
58 61 60 59 59 58 58 58 58 58 56 44 43 47 54 52 38 39 44 45 48 46 48 47 45 48 47 42 39 45 46 51 53 51 46 48 40 34 40 44 44 43 44 45 42 40 34
57 59 60 59 58 57 57 57 57 57 56 46 45 43 47 47 47 44 44 44 44 50 49 50 48 51 46 43 45 41 44 49 52 54 52 52 42 39 36 39 42 39 40 41 45 38 37
56 59 60 59 58 58 57 57 57 57 56 49 43 40 47 41 42 43 45 46 44 43 48 50 48 49 48 40 41 40 44 47 50 51 51 51 42 41 40 43 44 43 42 41 42 46 43
56 56 60 59 58 58 57 57 57 56 55 47 40 39 42 44 45 43 43 43 44 44 45 46 47 49 49 45 43 40 44 46 46 47 47 48 41 41 38 41 42 41 42 45 44 41 42
54 55 58 58 58 58 57 56 56 56 54 43 42 43 44 45 44 44 43 44 44 45 46 47 50 48 47 47 47 48 50 49 51 47 45 44 42 40 36 40 41 37 41 41 43 42 48
54 55 55 58 58 57 56 56 56 56 53 45 43 43 42 44 44 45 47 47 44 46 45 46 49 48 48 50 48 51 50 50 52 46 48 43 42 40 34 37 29 42 43 45 44 43 45
53 55 55 58 57 57 56 56 56 56 54 46 44 43 42 41 44 44 45 43 43 44 43 45 45 46 50 49 45 43 43 45 43 43 44 44 42 36 33 32 38 40 42 41 43 41 45
53 54 54 57 57 56 56 56 56 56 55 46 44 45 41 40 40 43 42 42 41 40 42 42 46 47 49 45 43 36 35 39 38 40 43 44 44 42 30 30 33 42 45 49 48 39 46
52 54 55 57 56 56 56 55 55 55 55 49 45 46 42 41 40 39 41 42 42 40 40 42 43 44 47 43 38 34 36 39 36 36 37 37 37 36 35 33 37 45 47 48 38 42 45
51 52 53 56 56 56 56 55 55 55 55 51 46 46 44 41 41 42 43 41 41 41 41 42 45 45 41 40 39 36 37 37 35 37 37 38 34 33 32 31 33 46 46 43 44 43 45
51 52 52 55 55 56 55 55 55 55 55 53 46 47 47 43 43 44 45 44 44 44 41 38 42 41 43 38 35 35 34 33 35 35 37 37 40 37 38 37 42 42 44 44 46 44 44

GFSGBSN_sfc_temp_012.txt.gz
Temp
67 67 66 66 66 65 65 64 64 64 64 64 63 63 63 63 63 63 63 63 63 64 64 64 64 63 62 52 57 71 68 69 71 69 65 63 59 61 57 64 67 63 68 70 72 71 70
67 67 66 66 65 65 65 64 64 63 63 63 63 63 63 63 63 62 62 62 63 63 63 63 63 62 58 46 70 72 72 70 68 67 62 65 62 68 65 65 64 68 67 68 71 70 71
67 67 66 65 65 65 64 64 63 63 63 63 63 63 63 62 62 62 62 63 63 63 63 63 63 62 54 54 69 70 67 68 70 68 62 67 68 62 67 62 69 68 61 66 68 69 68
66 67 67 65 65 64 64 63 63 63 63 63 63 63 63 62 62 62 62 62 62 62 62 62 62 60 49 66 71 66 68 65 69 70 67 69 67 57 57 69 65 60 61 55 67 69 69
66 66 66 66 65 64 64 63 63 63 63 63 63 63 62 62 62 61 61 61 62 61 62 62 58 55 49 65 59 66 68 61 63 66 68 67 61 54 58 52 53 58 51 54 60 68 67
66 65 65 65 65 65 64 64 63 63 62 62 62 62 62 61 61 60 60 60 60 60 60 62 59 49 55 52 60 63 66 64 60 59 57 56 52 48 50 49 42 50 52 57 57 64 63
65 66 65 65 65 64 64 63 63 63 62 62 62 61 61 61 60 59 57 53 46 45 51 50 50 52 54 60 63 59 63 59 59 54 44 54 43 40 48 55 59 61 58 56 61 65 60
65 65 65 65 64 64 64 63 63 62 62 62 61 61 61 61 60 59 56 48 51 53 42 52 53 54 57 59 51 56 63 52 50 43 46 48 40 50 53 57 59 59 55 54 63 61 60
64 65 64 64 64 64 63 63 62 62 62 61 61 60 60 59 59 55 53 51 55 54 41 45 50 50 53 56 50 52 57 54 48 47 41 44 46 56 49 52 55 56 53 57 57 58 61
64 64 64 64 64 63 62 62 62 61 61 60 60 60 60 59 52 55 51 52 54 54 33 38 42 49 53 54 46 60 60 55 50 46 42 48 54 51 48 50 57 48 61 58 55 51 49
64 64 63 63 63 62 62 61 62 61 60 59 59 59 59 58 53 51 52 53 53 49 25 44 43 59 55 49 52 51 61 56 47 45 41 43 49 47 47 49 59 55 60 58 55 51 49
63 63 63 63 62 62 61 61 61 61 60 59 59 59 58 57 57 56 54 53 50 33 26 37 44 42 43 48 51 51 52 58 54 48 45 51 55 52 55 56 59 58 56 54 54 50 45
62 63 62 62 62 61 61 61 61 60 60 59 58 58 58 61 54 57 54 47 33 29 41 36 37 41 43 41 45 44 45 43 37 35 35 43 44 52 58 48 52 57 50 37 37 37 44
59 62 62 62 62 61 61 61 60 60 60 59 58 58 59 60 62 57 50 39 29 37 35 42 41 42 39 44 43 42 44 40 43 42 42 33 36 46 57 54 45 48 54 48 38 41 47
57 61 61 61 62 61 61 60 60 60 58 58 57 55 54 58 60 55 43 32 35 38 40 38 42 37 38 44 39 42 44 44 40 44 40 35 37 49 55 55 55 44 42 57 48 48 48
56 58 61 61 61 61 60 60 60 59 58 57 52 53 53 60 57 50 37 35 39 44 41 44 39 43 38 41 36 43 44 50 44 50 53 45 34 47 49 53 50 51 58 44 49 40 39
55 57 60 61 61 60 59 59 59 58 58 56 54 45 56 57 53 42 34 37 42 49 45 45 45 43 46 43 39 44 44 49 52 53 54 53 49 39 50 44 46 50 46 48 53 50 47
55 56 59 61 60 59 59 58 59 58 57 54 52 43 53 54 40 40 36 40 46 45 47 50 52 50 48 47 37 39 45 47 57 57 48 55 55 42 43 52 57 57 53 53 47 43 49
54 56 57 59 60 58 58 58 58 58 56 50 51 47 51 52 38 37 42 42 44 43 45 48 49 53 53 46 38 42 49 55 57 55 53 57 52 43 39 47 52 50 54 56 58 53 49
54 55 56 57 59 58 57 57 57 58 57 53 52 42 46 48 47 43 40 41 41 51 51 52 54 55 50 47 50 46 49 53 56 57 55 56 53 52 45 49 55 49 52 55 55 48 50
54 54 55 56 58 58 57 57 57 57 56 52 50 48 50 39 41 43 44 44 43 45 50 51 50 53 51 45 45 46 49 50 54 55 56 56 50 52 51 53 55 53 51 52 51 54 50
54 53 55 56 56 58 57 56 56 56 55 49 50 47 51 51 50 44 42 44 44 45 46 45 45 53 55 50 51 47 48 52 50 55 55 55 49 51 48 49 53 50 54 54 54 55 56
53 53 54 55 56 58 57 56 56 56 54 48 51 52 51 51 49 43 43 44 45 46 45 47 52 53 50 54 59 59 60 60 58 55 54 54 52 49 45 48 49 45 52 52 55 58 57
53 53 53 55 55 56 57 56 56 56 55 52 53 53 49 48 47 46 47 46 44 46 45 48 54 53 54 55 58 61 58 53 57 54 60 52 51 49 44 45 35 54 54 60 56 59 60
53 52 53 54 54 56 56 56 56 56 55 51 49 53 49 48 51 48 46 44 43 44 42 47 47 50 60 56 52 47 45 44 46 48 52 51 46 42 41 43 49 50 49 51 51 54 58
52 52 52 52 53 55 56 56 56 56 55 51 49 54 51 48 50 49 46 47 41 41 42 45 47 51 51 50 49 38 36 40 39 40 48 48 48 43 40 38 40 51 53 57 58 50 57
52 52 52 52 53 53 56 56 56 56 54 51 50 54 52 48 50 50 50 47 45 42 40 43 45 48 48 45 41 39 39 47 41 40 40 42 44 41 43 36 48 54 55 57 47 50 54
51 51 51 52 53 53 56 55 55 55 54 52 50 53 53 48 50 48 49 48 46 47 41 45 46 46 42 42 42 40 41 45 45 48 47 45 43 43 45 37 38 54 52 51 53 54 55
51 51 50 51 52 52 56 55 55 55 54 53 49 52 52 50 49 50 51 52 51 51 47 44 50 48 47 42 44 45 43 43 47 42 46 45 51 48 50 49 49 51 52 52 58 54 53

GFSGBSN_sfc_temp_015.txt.gz
Temp
67 67 67 67 67 66 65 65 64 64 64 64 64 64 64 63 63 63 63 63 63 63 64 64 64 63 62 54 59 73 69 71 74 71 68 67 64 63 57 65 65 63 70 73 75 75 74
67 67 67 67 66 65 65 65 64 64 64 64 64 64 63 63 63 63 63 63 63 63 63 64 63 63 60 48 74 76 74 73 71 71 68 69 66 69 65 63 63 67 70 71 74 73 73
66 67 67 66 66 65 65 65 64 64 63 63 64 63 63 63 63 63 63 63 63 63 63 63 63 64 56 56 73 75 73 71 73 71 66 70 71 67 66 60 69 67 62 67 69 72 70
66 67 66 66 66 65 64 64 63 63 63 63 63 63 63 63 62 62 62 63 62 62 62 62 62 62 49 70 74 70 71 69 72 73 70 71 72 65 57 64 62 60 59 51 65 70 72
65 66 66 66 66 65 64 64 63 63 63 63 63 63 63 62 62 61 61 61 61 62 62 62 61 58 50 67 62 69 71 65 68 69 70 71 65 57 55 47 48 54 49 52 58 72 70
65 65 65 65 65 65 65 64 63 63 63 63 62 62 62 62 61 61 60 60 61 60 61 64 63 51 58 55 64 66 70 67 63 63 61 60 55 48 48 45 40 49 49 55 55 67 67
65 65 65 65 65 65 65 64 64 63 63 62 62 61 61 61 61 60 57 54 48 46 50 51 54 54 58 65 67 61 67 62 61 58 47 55 43 40 48 48 55 58 56 57 63 69 66
64 64 64 65 64 64 64 64 63 63 62 62 61 61 61 61 61 60 56 48 53 54 43 53 57 57 62 62 53 58 66 54 52 46 52 47 38 52 56 52 49 51 54 59 63 67 63
63 64 64 64 64 64 64 64 63 63 62 62 61 60 60 60 60 57 54 52 57 56 41 44 50 51 55 57 52 55 60 56 52 47 46 42 45 53 54 47 46 52 53 58 57 63 64
63 63 64 64 64 63 63 62 63 62 61 61 61 60 60 59 53 59 52 57 55 54 33 39 42 47 52 50 44 60 63 57 52 46 47 43 52 42 50 45 47 43 60 61 59 56 49
59 61 63 63 63 63 62 62 62 62 61 60 60 60 59 59 59 52 53 54 53 49 26 45 43 57 53 44 53 54 64 57 48 48 41 39 44 41 45 45 52 47 63 60 57 55 51
57 57 60 62 62 62 62 62 61 61 60 60 59 59 59 58 59 60 55 54 50 33 27 38 44 41 42 44 49 55 55 59 58 48 44 45 55 51 50 52 52 54 60 57 56 53 43
56 56 57 60 62 61 61 61 61 61 60 59 59 58 57 64 56 58 54 48 32 29 43 36 36 40 40 39 43 47 45 43 38 32 33 40 40 49 53 45 49 48 47 37 37 37 44
55 55 56 57 61 61 61 61 61 61 60 59 58 58 57 61 64 55 50 38 28 39 37 41 39 39 36 43 45 47 43 38 45 40 35 33 32 39 51 46 44 45 50 46 37 40 47
55 55 56 56 57 61 61 61 61 60 59 58 57 56 53 57 59 55 43 31 35 40 40 39 39 36 36 43 45 44 41 41 46 44 34 35 36 51 52 50 51 44 46 58 51 55 52
56 55 55 56 55 60 61 61 60 59 58 57 53 50 52 62 60 50 38 34 38 44 42 41 35 44 38 40 40 40 39 48 47 50 45 40 34 42 46 51 48 51 60 48 53 42 42
56 55 54 55 56 59 60 60 60 59 58 57 51 45 61 61 54 42 33 36 41 48 45 39 41 45 46 40 42 40 44 51 53 51 47 42 35 36 44 45 44 45 45 53 57 55 48
55 54 55 55 56 58 59 59 59 59 57 54 50 42 54 54 41 39 36 39 45 46 47 43 48 52 49 48 44 45 45 51 58 55 41 47 42 35 41 54 58 55 49 55 49 46 53
55 54 55 54 55 55 58 59 59 58 56 51 46 50 52 52 36 37 39 40 43 43 43 44 50 54 56 49 44 45 49 58 57 54 49 52 47 36 37 46 49 48 54 58 58 59 52
55 54 54 54 55 55 57 58 58 58 57 51 49 42 44 46 46 41 38 39 39 48 46 50 52 57 54 50 53 46 45 56 58 57 54 56 52 50 45 50 49 44 49 56 54 50 52
54 54 54 53 54 55 56 57 57 57 57 51 47 48 50 39 41 42 43 42 41 42 47 51 48 53 52 47 49 48 49 54 56 57 57 56 50 55 57 58 56 53 53 53 52 55 52
54 54 54 53 54 54 54 57 56 57 56 48 46 52 53 47 48 44 42 40 40 43 50 45 44 55 55 52 52 48 53 53 52 56 54 57 50 54 50 54 56 54 56 57 56 57 57
53 54 53 53 54 54 54 56 56 56 54 48 49 55 55 52 53 46 43 42 44 47 51 51 50 53 53 57 62 63 62 62 60 55 53 51 51 51 47 52 52 46 55 56 57 59 59
53 53 53 52 52 53 53 54 56 56 55 53 51 51 51 47 54 51 44 46 44 46 45 51 50 46 60 65 65 63 56 53 57 60 60 52 51 51 46 49 36 56 60 62 59 61 63
53 53 53 53 52 53 53 54 56 56 55 52 50 49 53 48 56 51 44 45 43 45 44 44 52 53 64 60 53 45 41 42 44 46 57 57 51 46 43 44 51 57 55 56 56 56 64
52 52 53 52 52 52 52 53 56 56 56 52 50 51 50 50 54 53 50 47 41 41 40 43 51 59 56 48 48 38 35 38 36 39 50 51 55 47 44 40 39 52 57 61 63 50 67
52 52 52 52 52 52 52 53 56 56 55 52 50 52 50 50 57 54 52 48 45 43 41 45 47 52 52 46 44 43 42 49 38 37 36 39 40 37 38 41 49 57 58 61 47 51 58
52 51 52 52 51 52 52 52 55 55 55 52 50 51 54 53 55 53 53 50 43 44 44 45 44 49 48 42 43 44 45 49 49 51 45 43 39 38 42 38 36 58 55 52 55 58 60
52 51 51 51 51 51 52 53 55 55 55 54 48 52 57 51 51 54 55 54 52 49 45 46 49 47 49 43 47 46 42 48 51 43 52 46 54 51 53 50 53 57 55 58 61 58 59

GFSGBSN_sfc_temp_018.txt.gz
Temp
67 67 67 67 67 67 66 66 65 64 64 64 64 64 64 64 63 63 63 63 64 64 64 64 64 64 62 54 57 70 70 71 71 69 64 63 60 59 54 60 62 59 63 69 71 71 71
67 67 66 66 66 66 66 66 65 64 64 64 64 64 64 63 63 63 63 63 63 63 63 63 64 63 57 47 72 74 71 72 71 69 65 65 63 65 60 60 58 63 63 65 68 70 70
66 66 66 66 66 66 66 65 65 64 64 64 64 64 63 63 63 63 63 63 63 63 63 63 63 62 55 54 73 74 73 70 71 69 64 69 68 62 63 57 65 64 56 63 63 67 67
66 66 66 66 66 65 65 64 64 64 64 64 64 63 63 63 63 63 62 62 62 62 63 63 63 61 49 68 70 68 71 68 70 70 68 69 68 62 58 59 57 54 56 47 60 65 67
65 65 65 65 65 65 65 64 64 64 64 64 63 63 63 62 62 62 61 61 61 62 62 63 59 56 49 69 61 67 69 63 67 68 67 70 64 55 57 48 44 50 42 47 52 64 65
64 65 65 65 65 65 65 65 64 63 63 63 63 62 62 62 61 61 61 60 60 60 60 63 62 51 56 55 62 65 68 67 61 62 59 57 54 46 47 44 35 41 43 48 48 58 61
62 63 64 64 64 64 65 65 64 64 63 62 62 62 61 61 61 60 58 56 49 47 50 49 52 53 58 64 67 62 65 62 60 55 45 52 43 38 43 46 48 49 49 48 54 63 58
62 61 63 64 64 64 64 64 64 63 63 62 62 61 61 61 61 60 58 49 53 52 42 51 54 55 61 63 53 58 65 53 50 42 48 45 38 48 51 51 47 47 45 47 54 62 60
61 60 60 62 63 63 64 64 63 63 63 62 61 60 60 60 60 58 54 53 58 57 41 46 50 52 54 58 51 54 59 54 48 43 44 39 44 51 50 47 45 46 43 46 46 57 61
60 60 59 57 61 62 63 63 63 63 62 61 61 60 60 59 54 57 53 60 58 54 34 38 42 48 52 51 43 58 62 55 49 43 45 44 50 48 45 44 47 40 52 49 51 44 41
58 60 59 57 57 60 62 62 62 62 61 60 60 60 60 59 57 53 54 55 54 49 25 43 43 57 53 44 48 49 59 52 45 45 47 38 43 43 41 42 46 43 52 48 48 44 46
58 58 58 58 56 55 58 62 62 62 61 60 59 59 59 56 56 56 56 55 51 33 25 38 43 41 42 43 45 49 50 55 54 46 47 44 51 47 46 47 46 49 47 45 46 45 37
57 57 58 57 56 54 56 61 61 61 61 60 59 58 57 61 52 56 55 48 32 28 44 36 37 41 41 39 40 41 41 41 37 32 32 40 38 46 48 41 47 46 41 34 34 34 34
57 57 57 57 55 55 56 59 62 61 60 59 58 58 57 60 57 55 51 38 27 41 38 41 39 39 35 39 39 39 38 37 44 40 34 31 30 39 45 40 41 43 36 33 29 30 37
56 56 56 56 55 55 56 58 61 60 59 58 57 56 53 56 56 53 44 30 34 39 40 37 38 35 35 39 42 40 40 37 40 44 32 32 32 46 49 45 46 42 33 44 42 46 41
55 56 56 56 54 54 56 58 60 60 58 58 53 51 51 57 55 49 39 35 38 45 43 41 34 37 34 38 37 40 40 46 45 49 47 37 31 43 45 48 46 44 48 39 43 37 33
55 55 55 55 54 54 55 56 60 59 59 57 50 45 55 56 52 43 33 36 39 45 44 39 37 38 42 40 39 40 41 47 50 48 44 38 34 37 41 42 39 41 41 45 49 46 38
55 55 54 54 53 54 55 55 59 59 58 54 48 41 54 54 42 41 36 39 43 43 46 43 42 42 43 46 41 41 41 48 54 52 38 40 36 33 36 46 51 46 46 46 41 39 42
56 55 54 54 53 53 54 55 58 59 57 51 45 46 53 52 37 36 40 38 41 42 43 42 41 45 52 48 40 44 46 54 55 49 43 40 35 33 35 40 46 43 47 49 48 47 41
55 55 54 54 53 53 54 54 56 58 58 52 45 41 45 46 46 42 38 36 37 44 42 46 46 51 50 48 50 44 46 53 55 53 50 49 43 35 34 41 44 42 45 48 47 40 42
55 55 54 54 53 53 54 54 54 57 57 52 45 44 47 38 40 41 40 40 37 37 45 48 46 47 48 45 46 45 47 51 53 54 50 44 39 40 40 49 49 48 47 49 47 49 40
54 55 54 53 53 53 53 53 54 57 56 49 44 44 47 46 47 42 41 39 38 42 44 44 42 50 51 47 49 45 49 49 48 52 50 47 41 47 47 51 50 46 49 50 50 50 50
54 54 54 54 54 53 53 53 52 55 55 48 49 50 48 48 47 42 42 41 41 43 45 47 48 46 48 53 58 56 58 57 54 51 48 47 45 44 40 47 48 40 48 50 52 53 53
54 54 54 53 53 52 53 53 52 55 56 52 50 49 44 41 47 47 46 45 44 43 43 51 51 47 54 59 60 57 52 51 51 54 55 45 43 44 40 40 30 45 51 56 54 55 55
53 53 54 53 53 53 53 52 52 55 56 52 50 48 45 42 47 50 46 45 44 45 45 45 50 51 52 53 48 42 40 43 44 46 51 52 47 39 35 36 45 47 49 48 48 50 56
53 53 53 53 53 53 53 52 52 53 56 52 50 51 47 43 45 52 48 46 42 40 39 42 47 52 50 48 46 36 34 37 36 40 48 50 47 42 36 31 30 43 50 56 54 41 53
53 53 53 52 53 52 52 52 52 53 55 52 50 52 48 43 49 51 48 46 46 42 39 42 43 46 50 43 39 38 38 44 36 36 36 40 40 38 38 34 40 51 51 55 40 42 51
52 53 52 52 52 52 52 52 52 53 55 53 50 51 49 45 49 51 53 47 43 43 40 42 44 46 44 40 40 40 41 43 40 42 40 39 36 37 37 34 32 52 50 45 48 50 52
52 52 52 52 52 52 52 52 52 53 55 54 48 51 52 47 48 53 54 53 51 47 44 43 44 47 48 43 42 42 39 43 43 37 47 40 45 42 41 41 50 51 50 51 55 51 50

GFSGBSN_sfc_temp_021.txt.gz
Temp
67 67 66 66 66 66 66 66 66 65 65 65 64 64 64 64 63 63 63 63 63 64 63 64 64 63 60 51 51 66 71 71 68 66 61 58 54 52 47 52 54 53 58 63 65 66 66
67 66 66 66 66 66 66 66 65 65 64 64 64 64 64 63 63 63 63 62 63 63 63 63 63 63 54 43 65 68 67 67 68 65 60 59 56 58 54 53 54 59 59 61 63 63 65
64 65 66 66 66 65 66 65 65 65 64 64 64 64 63 63 63 63 63 63 63 63 63 63 63 61 51 50 65 65 68 65 66 64 61 65 63 59 59 51 59 55 52 56 58 61 61
64 65 64 66 65 65 65 64 64 65 64 64 64 63 63 62 62 62 62 62 62 62 62 63 63 56 46 65 65 64 64 63 65 65 64 64 64 59 56 58 53 48 50 44 54 59 63
64 64 64 63 65 65 65 64 64 64 64 64 64 63 63 62 62 62 61 61 61 61 62 62 55 50 44 66 58 63 63 60 63 63 63 68 59 55 51 46 40 44 37 41 48 58 58
62 63 63 62 62 64 65 64 64 64 64 63 63 62 62 62 61 61 61 60 60 59 60 62 59 48 53 52 59 61 63 63 58 57 58 54 49 42 41 42 34 39 37 40 41 52 55
62 61 62 62 62 63 64 64 64 64 64 63 62 61 61 61 61 60 56 52 46 45 50 47 49 50 57 60 64 59 62 58 57 51 44 48 39 35 39 43 44 42 40 40 47 55 53
60 61 61 61 61 60 62 63 63 63 63 63 62 61 61 61 61 60 54 46 50 52 42 51 52 53 60 62 52 56 62 49 47 41 44 40 36 44 47 47 44 42 38 38 46 53 52
59 60 60 60 61 60 60 61 63 63 63 63 62 60 60 60 60 55 52 52 56 56 43 46 50 49 52 57 50 51 57 52 45 40 41 36 42 49 46 43 41 41 38 39 41 49 52
58 59 59 59 60 60 58 58 60 62 62 62 61 60 60 59 53 52 49 56 54 55 35 39 42 48 52 53 44 58 61 54 47 40 42 40 46 44 42 40 43 35 47 46 45 43 38
57 58 58 59 58 59 58 56 57 60 61 61 61 60 59 59 51 49 52 54 55 50 22 41 43 56 53 45 48 48 59 53 42 42 42 36 41 41 39 41 45 40 48 45 45 41 40
57 57 57 58 58 58 57 56 56 58 61 61 60 60 58 56 54 54 55 54 51 34 21 37 43 41 41 44 46 50 49 53 50 42 42 41 48 45 44 47 47 46 42 42 42 41 32
56 56 56 57 57 57 57 55 56 56 59 60 59 59 57 59 49 55 54 48 33 26 42 36 37 41 40 40 41 43 40 39 36 31 31 36 39 43 46 39 42 41 35 26 28 29 30
56 56 56 56 56 57 56 56 56 57 58 59 58 58 57 59 55 55 50 39 26 37 36 42 40 41 36 41 39 40 37 34 40 36 34 27 24 38 43 40 38 37 36 30 21 29 35
55 55 56 56 54 56 55 54 55 56 58 58 57 55 53 53 55 54 44 30 31 37 42 38 38 34 35 38 39 38 36 36 39 40 29 28 29 43 46 47 45 36 31 43 34 36 35
56 56 56 55 54 55 53 54 55 56 58 58 53 52 51 55 55 49 39 34 36 44 43 40 34 36 33 36 34 35 34 41 40 44 45 36 29 43 43 44 44 43 48 33 32 29 28
56 56 56 55 53 53 53 54 55 56 59 57 51 47 53 55 53 44 33 36 42 48 46 39 37 36 36 35 37 35 37 43 46 45 46 41 33 35 39 36 37 37 35 41 40 36 33
56 56 56 55 53 53 53 54 54 56 58 54 48 42 52 53 41 40 36 41 44 43 45 42 41 40 38 40 36 35 37 42 52 50 39 40 35 30 35 44 49 47 40 42 33 35 39
56 56 56 55 53 53 53 53 54 55 57 51 45 46 52 51 36 36 41 40 43 41 41 40 40 42 44 42 35 39 43 51 49 47 40 40 34 28 34 39 45 41 43 44 40 42 40
55 55 55 55 54 53 52 53 54 54 56 52 46 40 45 47 45 42 38 37 37 43 41 44 44 45 43 41 44 41 42 50 51 50 48 44 37 34 32 37 43 39 41 41 39 37 40
55 55 55 55 54 53 53 53 53 53 56 51 46 43 45 38 40 42 42 40 36 35 42 44 41 42 41 38 43 41 44 47 50 50 46 42 34 37 38 40 43 45 43 43 42 44 40
54 54 54 55 54 53 53 52 53 53 56 49 43 43 46 43 45 41 40 38 38 39 41 41 39 45 44 39 44 42 46 45 44 47 41 43 34 41 42 47 45 43 46 48 47 49 46
54 54 54 54 54 53 53 53 52 53 53 48 48 49 48 45 43 40 40 41 40 41 44 46 44 44 42 46 53 51 51 54 50 47 44 42 40 40 36 45 45 38 45 46 48 49 51
53 54 54 54 54 53 54 53 52 53 52 51 50 49 44 41 43 43 45 44 42 42 41 47 46 44 49 52 52 53 51 49 50 48 50 43 41 43 38 39 29 45 51 52 50 51 51
53 54 54 54 54 53 53 53 52 52 52 50 50 49 46 41 46 46 44 44 44 45 43 44 49 48 50 50 45 41 40 42 43 45 47 47 42 40 34 34 40 44 47 46 46 46 50
53 53 53 54 53 53 53 53 52 52 53 51 50 51 47 43 42 48 43 44 40 41 40 43 47 50 51 46 44 34 34 36 37 40 46 49 48 40 33 28 29 42 48 50 49 39 48
52 53 53 53 53 52 53 53 53 52 52 52 50 53 48 43 48 48 44 43 46 42 40 41 42 46 49 42 39 36 37 43 36 37 37 40 40 33 35 33 36 47 50 51 38 40 48
52 52 53 53 53 52 53 53 52 52 52 52 49 52 49 45 48 50 49 44 43 43 39 42 42 43 43 39 39 40 39 38 37 43 38 38 37 36 37 34 30 48 47 42 46 46 45
51 52 52 52 52 52 52 53 53 52 53 53 48 51 52 47 47 51 51 52 51 50 45 42 43 45 46 42 39 42 39 39 37 36 41 39 43 39 40 42 49 47 47 49 50 48 44

GFSGBSN_sfc_temp_024.txt.gz
Temp
65 64 65 66 66 66 66 66 65 66 66 65 65 64 64 64 64 63 63 63 63 63 63 63 63 63 58 49 51 65 71 70 66 65 60 56 51 50 46 49 51 47 53 58 60 61 62
64 65 64 64 65 66 66 66 65 65 65 65 64 64 64 63 63 63 62 62 63 63 63 63 63 62 52 42 62 65 65 64 65 62 58 57 54 55 50 50 48 52 53 55 59 59 60
64 64 64 64 64 63 65 65 65 65 65 65 65 64 63 63 63 63 62 63 62 63 62 63 63 60 49 48 63 62 64 61 64 63 58 60 59 53 53 49 54 52 46 51 53 55 56
62 63 63 64 64 64 62 64 64 64 65 65 64 63 63 62 62 62 63 63 62 62 62 62 63 55 45 62 63 62 62 60 63 64 62 62 61 55 51 54 50 45 43 39 50 55 57
61 61 61 61 62 63 63 62 63 64 64 64 64 63 63 62 62 62 62 62 61 61 62 62 54 49 42 64 56 61 60 57 60 60 60 66 57 51 49 46 41 40 33 37 44 55 54
60 61 61 61 61 62 62 62 63 63 64 64 63 62 62 62 61 61 61 61 60 58 59 61 59 47 51 51 57 59 60 60 55 55 54 52 47 40 39 40 33 39 34 37 38 48 52
60 60 60 60 60 61 62 62 61 62 63 63 63 62 61 61 61 60 57 51 46 45 49 48 48 48 54 58 61 57 59 56 54 48 39 45 37 35 40 40 41 40 37 36 40 49 46
58 58 59 59 59 60 60 61 60 59 62 62 62 62 61 61 61 60 53 45 48 50 41 50 51 52 57 60 50 55 59 48 45 38 41 41 36 42 44 43 41 40 37 37 42 48 48
60 58 58 59 59 60 60 60 60 59 61 62 62 61 61 60 60 56 53 52 54 53 42 46 49 48 51 55 49 50 55 49 43 40 40 35 41 47 44 41 38 39 37 38 39 44 47
59 60 57 58 58 58 58 59 59 58 58 59 61 61 61 59 53 50 50 55 53 54 34 39 42 48 51 52 45 58 59 53 46 39 41 41 45 43 41 39 41 34 44 43 41 39 30
58 59 58 57 57 57 58 58 59 58 57 58 60 61 59 60 51 48 52 53 54 50 17 41 43 56 52 47 48 48 60 53 40 41 40 35 38 39 38 40 45 38 46 42 41 37 37
58 58 56 57 56 56 57 58 58 58 57 56 58 60 58 55 54 55 54 55 49 27 17 36 44 40 41 44 46 50 50 54 49 42 43 40 47 45 43 46 46 45 41 40 37 35 29
57 57 57 56 56 56 55 56 56 57 57 57 57 59 57 58 50 55 54 47 29 19 41 35 37 40 39 40 41 43 41 39 36 32 30 36 37 43 46 41 44 43 36 26 24 24 24
57 57 57 57 56 55 55 55 56 56 56 56 56 58 57 58 55 54 50 39 21 34 35 43 42 41 36 41 40 41 39 35 39 36 33 30 27 36 43 42 38 37 36 26 17 20 26
56 57 56 57 56 55 53 54 55 55 55 55 55 55 53 53 55 54 43 30 26 36 41 40 40 34 35 40 39 38 37 36 39 39 31 29 29 43 44 45 44 35 31 40 29 33 28
56 56 56 57 57 54 52 54 54 54 54 55 52 52 50 55 55 49 38 34 36 44 43 42 34 37 33 35 34 35 35 39 40 41 42 34 24 38 41 44 44 41 42 29 30 20 22
56 56 56 57 56 54 52 53 54 54 55 56 51 45 51 55 53 42 32 36 40 46 45 40 37 36 36 34 35 33 33 40 41 41 42 38 31 32 38 34 35 35 32 36 36 33 24
56 56 56 56 56 54 52 53 53 54 55 53 49 38 51 53 40 39 35 41 46 44 46 43 41 39 38 38 33 32 33 40 47 46 36 42 35 28 33 44 44 38 37 37 31 30 34
55 56 56 55 55 55 53 53 53 55 54 50 45 45 51 52 33 35 41 42 43 42 42 40 39 41 43 39 34 36 39 48 49 46 40 40 33 27 31 36 40 35 40 38 43 40 33
54 55 55 55 55 55 54 53 53 54 54 51 45 38 44 46 45 40 37 38 38 43 43 43 41 44 41 39 41 38 40 48 50 49 47 43 36 32 29 34 41 36 39 43 39 32 34
53 55 55 55 55 55 54 53 53 53 54 51 46 41 45 38 39 42 42 40 37 37 41 43 39 41 40 36 37 37 42 45 47 49 45 40 34 36 37 37 37 41 41 41 33 38 33
53 54 54 55 55 55 54 53 53 53 53 49 43 42 46 42 44 42 41 39 38 39 40 38 37 43 43 36 40 38 44 44 41 44 40 42 33 33 32 38 38 37 41 42 38 37 36
53 54 54 54 54 54 54 53 52 53 52 48 48 48 47 43 43 40 40 40 40 43 44 45 43 41 40 42 47 48 50 50 49 43 41 39 35 34 34 42 40 36 42 36 37 42 39
53 53 54 54 54 54 53 53 53 52 52 49 49 47 43 40 42 42 43 42 42 42 42 46 45 42 46 49 50 50 50 46 48 47 48 40 38 39 36 39 28 45 49 51 47 50 50
53 53 54 54 54 54 53 53 53 52 53 48 49 48 45 41 45 45 44 43 44 46 42 43 48 48 49 49 43 41 40 41 42 46 46 46 40 36 33 32 38 43 46 44 44 45 46
52 53 53 53 53 53 53 53 53 52 52 50 49 51 47 43 42 48 43 44 40 39 41 43 47 50 48 45 43 35 31 34 36 39 44 46 46 39 31 28 30 41 47 48 47 37 45
52 52 53 53 53 52 53 53 53 52 52 50 50 52 49 43 47 48 43 43 44 42 39 41 43 44 48 42 38 35 33 41 36 36 36 39 37 34 32 32 35 45 47 47 35 39 45
52 52 52 52 53 52 53 52 53 52 52 50 49 50 50 45 47 51 50 44 43 43 39 42 42 43 43 39 39 40 38 38 36 43 35 38 37 35 34 29 27 46 48 41 45 43 42
52 51 51 52 52 52 52 52 53 53 52 52 48 51 52 47 47 51 52 53 52 50 45 43 42 44 46 42 41 39 39 35 35 32 38 35 41 37 39 37 45 44 44 46 47 45 42

GFSGBSN_sfc_temp_027.txt.gz
Temp
64 65 65 64 64 64 64 65 65 64 66 66 65 65 64 64 64 63 63 63 63 63 63 63 63 63 58 50 51 64 70 69 66 64 58 56 50 48 44 46 48 45 49 55 57 58 57
62 63 63 63 63 64 64 62 65 64 65 65 66 64 64 64 63 63 63 62 63 63 62 62 62 62 52 42 61 63 63 62 63 60 57 56 52 52 48 47 46 49 50 51 55 55 56
61 61 62 62 62 62 63 63 61 63 64 65 65 64 63 63 63 63 63 62 62 62 62 62 63 59 49 48 60 61 63 59 60 60 55 57 57 52 52 46 52 50 44 48 50 52 52
60 60 60 61 61 61 61 63 62 61 63 64 64 64 63 63 63 63 63 63 62 62 62 62 62 54 44 61 60 60 60 59 61 61 60 60 62 57 53 56 48 43 40 36 47 52 54
61 60 60 60 60 60 61 61 62 62 60 63 64 64 63 62 62 62 62 61 61 61 61 62 54 48 42 62 55 59 60 57 57 58 58 66 60 52 52 46 43 40 32 34 42 52 52
61 61 60 60 59 60 60 60 61 61 61 60 62 63 63 62 61 61 61 60 60 58 58 60 59 46 50 50 56 58 58 59 54 54 53 52 49 44 43 41 32 35 32 33 36 45 47
61 61 60 60 58 59 60 60 60 61 61 61 60 62 62 61 61 61 58 52 46 43 48 48 49 48 53 57 60 56 58 55 53 48 39 43 36 34 38 39 39 37 35 33 39 47 42
60 59 59 60 59 58 59 60 60 59 60 61 59 61 62 61 61 60 54 46 47 50 40 49 50 51 55 57 49 54 59 48 45 37 40 38 35 40 43 41 40 37 35 36 40 45 43
59 59 59 58 58 58 58 58 59 58 59 60 58 59 61 61 60 56 52 52 53 51 40 46 48 48 50 53 48 49 54 48 41 37 37 35 39 46 42 39 37 36 35 38 38 43 44
59 59 59 59 57 57 57 57 57 58 58 59 57 58 60 61 54 54 50 56 53 53 31 37 42 46 50 52 44 56 56 51 45 38 39 38 44 41 39 37 38 32 41 41 39 36 29
58 58 58 58 58 57 56 56 57 57 56 57 57 56 58 58 51 49 52 53 52 48 14 40 43 56 53 46 48 46 57 53 42 40 39 35 36 37 36 39 43 38 45 40 39 34 31
58 57 57 58 57 58 56 55 56 56 56 57 57 56 57 53 53 52 54 55 50 31 16 36 43 41 42 45 46 50 49 54 50 42 43 39 44 42 40 45 45 45 41 40 38 33 25
57 57 57 57 57 58 56 55 55 55 55 56 57 56 55 57 49 54 55 48 31 21 38 35 37 40 41 39 41 43 40 39 36 32 32 36 37 40 44 39 44 42 35 25 24 24 22
58 56 56 57 56 57 57 54 53 55 56 56 56 55 55 55 54 55 51 37 22 33 32 44 41 38 34 38 39 41 39 35 41 37 32 30 28 36 41 40 37 35 35 27 19 19 21
56 56 56 56 57 57 56 54 53 54 55 54 54 51 52 52 55 55 45 29 26 33 40 40 40 35 35 41 40 38 37 37 40 40 31 29 26 38 41 44 42 34 30 39 30 31 26
55 55 56 56 57 56 56 54 53 54 54 54 49 48 49 54 55 50 38 32 33 42 43 43 31 37 33 36 35 35 35 38 39 41 44 35 24 36 39 44 43 38 41 29 30 19 17
55 55 55 56 56 56 56 54 54 53 54 54 48 42 51 54 53 43 33 36 39 44 44 39 37 36 37 34 36 35 33 38 41 39 43 40 32 29 36 34 33 35 32 34 34 28 18
55 55 55 55 55 55 55 55 54 53 53 52 46 36 51 53 39 38 35 40 46 42 44 43 43 41 38 39 35 35 31 37 43 42 36 41 34 27 33 41 45 42 37 36 28 24 29
55 54 54 54 55 55 55 54 54 54 53 48 42 43 51 50 32 34 40 42 44 41 43 41 40 42 44 39 35 34 36 45 44 42 38 40 33 27 29 35 39 34 36 38 38 37 28
54 54 54 54 55 55 55 54 54 54 53 49 43 35 43 44 43 39 39 39 38 44 44 44 41 43 39 38 40 36 36 45 46 46 48 44 35 32 27 34 34 32 35 36 34 29 32
53 54 53 54 55 55 54 54 54 53 53 49 45 38 41 36 39 39 42 40 38 37 43 44 39 40 38 35 38 37 38 41 47 49 45 40 32 35 35 37 38 35 36 36 32 37 32
53 54 54 55 54 55 54 54 54 53 53 48 43 42 43 43 44 42 41 38 38 41 40 37 37 41 40 37 40 35 40 41 42 44 41 40 32 32 32 37 36 35 37 38 38 38 39
53 54 54 54 54 54 54 53 53 53 51 46 48 48 46 44 42 40 40 41 41 43 43 45 42 39 39 43 47 47 46 47 48 43 39 37 34 33 30 38 37 32 36 37 40 43 41
52 53 53 54 54 54 54 53 53 53 52 48 48 47 42 39 42 41 42 43 42 43 42 45 45 41 47 48 47 46 45 45 47 46 46 38 35 35 32 36 29 40 44 44 40 41 41
52 53 53 53 53 53 53 53 53 54 53 48 49 47 43 40 44 44 44 43 44 44 43 44 47 49 52 49 39 40 39 40 43 45 44 45 40 35 34 32 38 42 44 39 38 39 43
52 52 52 52 53 53 53 53 53 53 53 49 48 50 46 41 41 48 44 44 41 40 40 43 48 50 49 43 42 34 33 36 36 39 43 45 44 37 35 29 28 38 44 47 47 37 47
52 52 52 52 52 52 53 53 53 53 52 49 48 50 47 43 46 48 43 43 44 41 39 41 43 43 47 41 37 35 32 37 34 36 33 35 38 35 34 32 34 43 46 46 35 38 43
52 52 52 52 52 52 53 52 53 53 52 49 48 51 49 45 46 50 49 44 43 42 38 42 41 42 41 39 37 38 38 37 36 42 37 36 36 35 32 29 27 44 46 40 43 41 41
52 52 52 51 51 52 52 52 53 53 52 51 47 51 52 47 46 50 51 52 51 50 45 43 42 43 45 42 41 41 38 37 34 30 36 34 40 35 36 36 44 43 43 44 45 43 39

GFSGBSN_sfc_temp_030.txt.gz
Temp
61 62 62 62 62 62 62 63 63 62 63 65 66 65 64 64 64 64 63 63 63 63 62 62 63 62 57 50 50 61 68 66 64 63 60 58 49 47 43 44 46 44 47 52 54 54 54
63 61 61 61 61 62 62 62 62 63 61 63 64 65 64 64 64 63 63 63 62 63 62 62 62 62 51 40 59 62 61 61 61 61 56 56 54 51 46 45 44 47 48 49 52 53 53
62 62 62 61 60 60 61 61 61 62 63 61 63 64 64 63 63 63 63 62 62 62 62 62 62 58 48 48 59 59 62 57 59 59 54 57 56 51 51 44 50 48 42 46 47 50 50
62 62 62 62 61 59 60 60 60 61 62 62 60 62 63 63 62 63 63 63 62 62 61 62 62 53 43 59 58 58 59 57 59 59 59 59 58 53 53 54 51 46 43 34 45 48 51
61 61 61 60 60 61 59 59 60 60 61 62 62 59 62 63 62 62 62 62 61 61 61 62 52 47 42 61 54 57 58 56 57 57 57 65 58 49 47 45 41 43 36 35 40 49 49
61 61 60 60 60 60 60 59 60 60 61 60 60 59 59 62 62 61 61 61 60 58 57 59 58 44 49 49 55 57 56 58 53 54 52 50 48 43 43 41 30 33 38 41 39 43 44
61 60 60 60 59 59 59 59 58 58 59 59 60 60 57 60 62 61 58 53 47 42 48 46 48 47 51 55 58 54 56 54 52 48 39 43 36 35 39 40 43 40 35 36 40 45 40
60 60 59 59 60 59 59 58 58 58 58 59 59 59 58 59 61 60 55 48 49 50 39 48 50 50 54 56 48 52 57 46 44 37 40 37 33 39 42 40 38 38 36 37 40 44 41
59 59 58 58 58 59 59 57 57 58 57 58 57 58 58 57 59 55 53 51 53 52 39 44 47 47 49 53 47 48 52 47 40 36 36 33 37 44 41 37 35 34 32 33 34 40 42
59 59 58 58 58 58 58 57 57 57 56 56 57 57 58 55 54 53 50 54 54 53 26 35 41 45 49 51 44 55 54 48 41 36 37 36 42 41 37 35 36 32 39 39 37 33 27
59 59 57 58 58 58 57 57 56 56 56 56 56 56 57 56 52 49 52 53 54 46 14 39 41 55 52 45 47 45 55 50 41 38 38 35 35 35 35 37 39 35 42 38 37 33 30
58 58 57 57 57 57 56 57 57 55 54 54 55 56 57 53 52 54 56 56 48 27 20 36 42 41 42 45 47 49 49 53 49 43 42 40 43 41 38 42 43 44 40 39 37 33 26
57 57 56 56 56 56 57 57 56 53 54 55 56 56 55 55 48 55 56 48 30 25 37 34 36 41 41 40 42 44 41 39 36 32 32 37 38 43 44 37 42 40 34 26 24 24 22
57 56 56 56 56 56 57 57 55 54 54 54 54 56 54 55 54 55 50 37 21 32 32 43 39 39 35 40 40 39 39 35 41 39 33 30 24 37 42 39 34 36 34 27 20 20 19
56 55 55 55 56 56 57 57 56 55 54 54 54 51 50 53 54 54 43 28 28 33 39 38 38 34 32 38 39 39 37 34 41 40 31 29 27 37 40 42 42 34 30 38 29 29 25
56 55 55 55 55 56 56 56 56 55 53 53 46 47 47 54 54 49 38 31 33 41 42 41 30 35 34 36 35 36 35 36 39 42 45 36 27 35 38 40 42 39 40 29 29 21 19
56 55 55 55 55 55 56 56 56 55 53 53 47 42 49 53 52 42 33 35 37 43 44 38 35 34 36 34 37 35 32 37 39 38 42 40 33 29 36 33 33 34 32 33 32 28 17
55 55 54 54 55 54 56 55 55 55 53 51 43 37 50 52 37 38 36 39 45 41 43 41 41 39 38 38 35 35 31 36 42 40 35 40 34 28 32 42 44 41 36 35 27 24 27
55 54 54 54 54 54 55 55 55 55 54 46 41 42 51 49 32 33 39 40 42 40 40 41 40 42 43 39 34 36 35 43 42 40 36 39 32 24 28 34 40 33 36 39 38 37 27
54 54 54 54 55 54 55 55 54 54 54 48 40 36 41 43 42 38 37 38 36 43 43 44 43 44 40 38 40 36 36 43 43 43 47 45 35 31 27 34 33 31 34 35 33 28 29
54 54 54 54 54 54 54 54 54 53 53 48 43 37 40 33 36 41 41 39 38 37 43 45 41 40 38 34 36 37 37 39 44 46 43 41 32 34 35 37 36 34 34 34 31 33 29
53 53 53 54 54 54 54 54 54 53 53 47 41 41 43 40 42 40 40 38 38 41 41 39 38 41 40 37 39 36 38 37 38 41 40 41 32 33 31 37 35 33 35 36 35 35 34
53 53 53 54 53 54 54 54 53 53 51 44 47 48 46 42 41 39 38 40 40 42 43 45 41 39 38 40 45 45 47 45 42 42 39 36 34 33 30 36 34 32 35 36 36 38 37
53 53 53 53 53 53 53 53 53 53 52 47 47 47 43 38 41 41 42 44 42 43 42 44 45 42 47 49 49 47 41 42 43 44 46 37 35 34 31 34 29 39 44 43 39 42 43
53 53 53 53 53 53 53 53 53 53 53 47 48 46 44 40 44 43 42 42 43 45 43 44 46 48 50 47 41 35 35 37 39 42 42 43 39 33 32 32 36 41 41 38 36 37 44
53 53 53 53 53 53 53 53 53 53 53 49 47 49 46 41 41 47 44 43 40 40 40 43 47 49 47 43 40 34 31 35 35 39 43 44 43 36 33 30 28 40 44 45 44 38 43
52 53 53 52 52 52 52 52 53 53 53 49 47 50 47 43 44 46 42 42 45 42 39 41 42 42 46 39 36 34 33 38 34 36 35 36 37 34 35 32 34 43 45 45 35 37 45
52 52 52 52 52 52 52 52 53 53 52 49 46 49 48 43 44 47 49 44 43 43 38 42 40 41 41 37 37 37 36 39 34 39 37 35 35 35 35 31 26 44 44 38 42 41 41
52 52 52 52 52 52 52 52 52 52 53 51 45 51 52 47 46 49 50 52 52 49 45 43 42 42 44 39 40 41 38 35 33 30 35 33 38 35 36 35 43 42 42 44 44 42 38

GFSGBSN_sfc_temp_033.txt.gz
Temp
63 63 63 63 63 62 61 61 61 62 62 63 62 63 64 64 65 64 64 63 63 63 63 62 62 62 58 52 51 63 67 66 65 65 61 58 52 51 47 49 50 48 50 54 56 55 56
63 63 62 62 62 61 62 61 61 60 61 62 63 61 62 63 63 63 63 63 63 63 62 62 62 62 53 42 60 61 62 62 62 63 59 60 56 54 50 49 49 51 51 51 53 54 55
62 62 62 62 60 62 61 61 60 60 61 61 62 62 60 62 63 63 63 63 63 62 62 62 62 58 48 48 60 60 62 59 61 61 56 60 59 54 53 48 53 51 46 48 50 52 52
62 62 61 61 62 61 61 61 60 60 60 61 62 61 61 59 62 63 63 63 62 62 62 62 62 54 44 60 59 59 60 59 61 62 60 59 59 55 53 54 51 47 47 40 48 51 52
62 62 61 61 60 60 61 61 59 60 59 59 60 60 60 59 60 62 62 62 62 61 61 62 53 49 43 61 54 58 59 57 58 59 60 64 58 51 51 45 40 43 35 37 43 51 50
61 60 60 60 59 60 60 60 59 59 59 59 59 59 59 60 58 60 61 61 61 59 58 59 58 45 49 49 55 56 58 59 55 54 53 52 49 44 45 40 30 34 35 39 41 48 46
60 60 61 60 60 60 60 60 60 59 58 58 58 58 58 59 57 58 58 53 47 45 48 46 48 47 51 56 59 54 57 55 53 49 40 45 39 35 40 41 42 40 37 37 44 48 43
59 61 60 60 59 60 60 59 59 58 57 57 57 57 57 58 58 57 55 47 49 50 39 47 48 49 53 55 48 51 57 47 45 38 41 39 35 42 43 42 40 40 37 39 44 47 43
60 60 59 59 59 59 59 58 58 57 57 57 57 57 57 57 58 54 52 52 53 54 40 44 46 48 49 53 47 47 52 47 41 37 37 35 40 44 42 38 36 36 34 35 36 41 44
59 59 59 58 58 57 58 58 57 57 57 57 56 56 56 57 51 53 49 54 54 55 27 36 41 45 49 52 45 55 54 49 42 37 38 37 43 41 38 36 38 32 40 39 37 34 29
58 59 58 57 57 57 57 57 58 57 56 54 54 55 56 56 50 49 51 54 53 49 14 38 40 55 50 45 46 46 55 51 40 38 39 35 37 36 36 38 40 37 42 39 38 34 33
58 58 57 57 57 57 57 57 58 57 54 53 55 55 56 52 51 51 54 54 50 31 16 35 42 41 42 45 47 48 49 53 50 42 41 39 44 42 39 42 43 44 39 39 38 34 27
58 57 57 56 56 56 57 57 57 57 55 54 54 56 55 54 47 54 54 48 30 23 37 34 36 41 42 39 42 44 41 39 36 31 31 39 39 44 44 38 41 41 34 26 25 25 25
57 56 56 56 56 56 57 57 57 56 55 54 53 54 54 53 53 53 50 37 25 32 32 42 40 40 37 41 41 41 39 36 42 38 33 29 26 37 43 40 36 36 34 27 20 22 25
56 56 56 55 56 56 56 56 57 56 54 52 53 47 46 49 53 52 41 29 27 33 39 38 39 34 34 39 39 39 38 38 41 41 32 30 29 38 40 42 42 34 31 39 30 32 26
55 55 55 55 55 55 55 56 56 56 54 52 47 46 47 53 54 48 36 33 34 40 42 40 31 35 31 34 33 35 35 38 38 41 42 36 25 35 38 41 42 38 41 29 29 21 20
56 55 55 55 55 55 55 55 56 55 54 53 46 41 48 53 53 40 32 34 37 43 44 38 35 34 36 34 36 35 33 38 40 38 43 40 33 30 37 33 34 35 32 33 33 31 24
55 55 55 54 54 54 54 55 56 55 54 50 44 34 48 52 35 34 34 40 44 40 43 41 40 39 37 37 37 36 34 36 42 40 35 39 35 28 30 39 42 41 37 36 28 27 29
54 55 54 54 54 54 54 55 55 54 54 46 41 42 49 47 31 33 40 40 41 39 39 40 39 42 42 40 34 37 35 42 42 40 36 39 32 25 27 33 39 34 38 39 35 34 27
54 54 54 54 54 54 54 54 54 53 53 48 41 35 37 42 42 38 37 37 37 42 41 43 43 45 41 39 41 37 38 41 42 42 46 45 35 29 26 34 36 31 34 37 33 28 30
54 54 54 54 54 54 54 54 54 53 53 48 42 37 40 33 36 39 40 40 36 36 41 43 40 41 39 35 37 37 39 40 43 45 45 40 32 34 35 37 38 34 33 34 31 33 28
54 55 54 54 54 54 54 53 54 53 52 46 41 41 41 38 41 40 39 38 39 38 40 38 36 41 41 36 39 34 38 36 38 41 39 42 33 33 32 37 38 32 35 35 34 34 33
53 54 54 54 54 53 53 53 54 53 51 44 45 47 45 41 39 38 38 41 40 42 42 43 42 41 39 41 44 45 44 46 43 40 39 38 34 32 30 39 36 32 36 37 36 37 37
53 53 54 54 53 53 53 53 54 53 52 46 46 45 42 36 39 38 40 42 41 42 40 42 45 41 46 50 49 47 43 42 44 43 45 38 35 34 30 34 28 39 45 43 40 39 40
53 53 54 53 53 53 53 53 53 54 53 46 47 44 44 38 41 42 42 41 42 44 43 44 46 48 49 46 40 36 36 36 38 41 41 42 38 33 31 32 38 42 43 41 38 39 44
53 54 53 53 53 53 53 52 53 53 53 48 46 48 46 42 40 47 41 43 40 40 41 43 46 48 47 42 39 33 31 33 35 39 43 43 43 36 33 29 27 39 45 46 45 38 44
54 53 53 53 53 52 52 52 52 53 53 48 45 49 46 41 43 47 43 42 45 42 39 41 42 42 45 39 35 34 32 35 33 36 35 36 36 33 33 32 34 43 44 44 36 39 44
53 53 53 52 52 52 52 52 52 53 52 49 45 48 46 41 44 46 48 44 43 43 38 41 40 40 40 37 35 37 34 38 35 36 35 36 35 35 35 32 28 42 44 39 43 43 43
53 52 52 52 52 52 52 52 52 52 52 51 43 49 50 46 44 49 50 51 51 50 45 43 42 42 44 40 37 40 35 37 33 29 35 32 37 37 37 36 43 43 44 44 42 41 40

GFSGBSN_sfc_temp_036.txt.gz
Temp
63 63 63 62 62 62 62 62 61 61 61 61 62 63 63 62 63 64 64 64 64 63 63 62 62 62 62 57 60 69 68 69 72 70 65 63 61 60 56 58 58 57 61 62 64 62 63
63 63 62 62 62 62 62 62 61 60 61 61 62 62 62 62 61 63 63 64 64 63 63 62 62 62 59 50 67 69 69 69 69 66 66 65 63 61 57 57 56 58 58 59 61 61 63
62 62 62 62 62 61 61 61 61 60 61 61 61 61 61 61 61 61 63 64 63 63 62 62 62 62 54 56 68 68 68 67 68 66 60 62 62 58 61 55 60 58 53 59 60 61 60
62 62 62 61 61 61 61 61 61 61 60 61 59 59 60 61 61 59 62 63 63 62 62 62 62 60 52 64 68 65 67 66 69 69 66 64 63 59 60 60 57 53 54 49 57 57 59
61 61 61 61 61 60 60 60 61 61 60 60 59 59 59 60 60 58 59 62 62 62 62 62 59 56 50 64 58 65 67 63 66 66 67 67 64 57 57 51 49 52 47 47 51 59 57
61 61 61 61 60 60 60 59 59 60 60 59 58 58 58 58 59 58 58 61 61 60 60 61 60 49 55 54 60 61 65 66 61 61 58 57 57 51 52 48 42 46 46 49 48 55 55
61 61 61 61 60 60 60 59 59 59 59 58 57 57 57 57 58 58 55 53 46 46 53 52 52 52 55 60 63 59 64 62 61 58 48 52 46 42 48 51 52 48 47 46 52 55 52
61 60 60 60 60 59 59 59 59 58 57 57 56 57 57 57 58 58 54 47 52 59 44 54 54 55 57 60 51 55 63 54 53 47 51 45 40 51 52 51 47 46 44 45 51 54 51
60 59 59 59 59 58 59 58 58 59 58 57 57 57 57 57 57 54 51 51 60 60 49 47 52 53 54 57 51 52 58 54 51 46 46 44 47 50 47 46 43 44 43 45 44 50 51
59 60 59 58 58 57 58 57 58 58 58 57 55 56 56 56 51 53 50 56 53 56 39 40 44 50 54 56 49 59 61 55 48 45 46 45 52 46 44 43 46 40 49 45 44 41 37
59 59 58 58 57 57 57 57 58 58 58 56 55 53 56 56 50 48 54 53 52 53 27 43 43 58 55 51 51 49 60 54 46 45 45 42 43 42 41 44 48 42 48 45 44 41 39
58 58 57 57 56 56 56 56 57 58 57 56 55 54 55 53 52 54 54 52 48 34 27 37 44 42 43 48 49 50 50 55 55 46 46 47 50 48 48 49 49 48 44 43 43 38 29
58 57 57 56 56 56 56 56 57 57 57 56 54 53 53 55 48 55 53 47 31 30 42 35 38 42 43 41 44 46 42 40 39 33 33 43 44 49 49 42 47 44 36 31 28 26 30
56 57 57 56 56 56 55 56 56 57 57 54 53 53 55 55 59 54 49 36 29 37 39 44 43 42 38 42 42 43 41 37 46 44 38 35 34 44 47 43 41 38 38 33 26 33 37
56 56 56 55 56 56 55 55 56 57 56 54 53 52 53 55 57 53 40 32 34 40 43 40 41 36 36 41 42 41 40 40 45 45 34 34 33 45 47 48 47 37 32 44 33 36 30
55 55 55 55 55 55 55 55 55 56 56 54 46 49 49 58 56 48 36 34 39 46 46 46 36 40 34 37 37 38 39 46 45 49 50 41 32 43 44 46 46 43 47 31 32 24 26
55 55 55 55 55 55 55 55 55 56 55 53 45 42 49 58 50 39 33 35 42 49 49 44 41 39 41 38 40 39 41 44 48 46 50 44 38 37 39 36 39 37 33 35 39 37 29
55 55 55 55 54 55 54 55 55 55 54 51 43 36 49 53 36 36 34 42 46 45 48 46 47 45 43 42 40 41 40 43 49 48 41 46 39 31 38 48 50 48 43 41 30 31 33
55 55 55 55 54 54 54 54 55 55 53 46 41 40 48 50 34 35 38 41 45 45 45 45 43 47 47 43 38 43 42 47 48 47 45 46 35 30 39 39 44 37 42 43 41 37 30
54 55 55 55 54 54 54 54 54 54 54 50 41 35 39 43 43 40 38 39 39 47 46 48 46 49 45 42 44 40 40 46 48 48 49 48 41 36 34 39 42 33 37 39 34 29 34
54 55 55 55 54 55 54 54 54 54 54 49 44 39 43 35 38 44 46 43 40 40 46 49 44 45 44 39 39 37 42 44 46 46 47 44 33 39 40 42 41 37 36 36 32 34 30
55 54 54 55 54 54 54 53 53 54 53 45 40 42 44 42 44 43 43 42 42 42 45 42 43 45 45 40 41 39 42 41 42 45 43 44 34 35 32 41 40 33 38 37 36 36 34
54 54 55 55 54 54 53 53 53 54 52 44 46 47 45 40 42 42 43 44 44 47 46 49 47 45 43 45 48 48 48 49 48 45 44 41 35 33 32 39 39 35 38 38 39 39 38
54 54 54 54 54 54 53 53 53 53 53 46 46 44 41 37 42 43 45 47 45 46 44 47 49 45 48 52 50 50 47 46 48 48 48 40 35 34 32 35 29 45 49 46 41 43 42
54 54 54 54 54 53 53 53 53 53 53 47 46 44 42 39 44 42 45 46 47 47 45 46 48 50 52 48 40 39 38 38 43 46 47 48 40 34 31 32 40 47 49 45 38 39 45
54 54 54 54 53 53 53 53 52 53 53 49 46 48 45 43 41 48 46 47 44 43 43 44 47 49 48 43 39 36 35 39 37 39 44 44 42 35 34 30 31 47 51 50 47 36 42
53 53 53 53 52 53 53 52 52 53 53 49 45 49 44 44 50 49 47 46 49 46 41 42 43 43 46 39 37 37 38 43 36 37 37 36 36 33 34 32 41 53 53 51 41 40 48
53 53 53 52 52 52 52 52 52 52 52 49 45 48 44 44 49 50 52 48 47 48 40 43 41 41 40 36 36 40 40 44 42 45 43 40 37 35 36 35 33 51 55 47 51 52 51
52 52 52 52 51 51 51 51 52 52 52 51 43 48 48 44 50 53 54 55 54 53 48 44 43 43 43 39 41 45 40 45 44 41 46 41 47 45 45 47 53 53 53 54 51 49 49

GFSGBSN_sfc_temp_039.txt.gz
Temp
63 63 63 63 63 62 62 62 62 62 62 62 61 61 62 62 62 62 63 63 65 64 63 63 63 63 63 59 62 72 68 70 73 70 66 67 64 65 59 64 65 60 64 68 69 68 67
63 63 62 63 62 62 62 62 61 61 62 62 61 61 60 61 62 62 61 63 64 64 63 63 63 63 62 53 71 74 73 72 74 71 65 66 63 67 63 63 61 65 64 65 66 66 66
62 62 62 62 62 62 62 61 61 61 61 62 61 61 60 59 60 61 61 62 62 64 63 63 63 65 59 60 72 72 71 71 73 70 66 67 67 64 63 58 65 62 56 61 63 65 63
62 61 62 62 62 61 60 60 60 60 60 61 61 60 59 59 59 60 60 60 61 62 62 63 63 64 56 68 73 67 71 69 73 73 69 68 66 62 58 62 60 56 58 51 64 63 65
62 62 62 61 62 61 61 60 60 60 59 60 60 59 58 58 59 59 59 58 59 62 62 63 61 60 54 65 62 69 71 66 69 70 69 68 62 56 56 53 53 56 50 54 58 65 62
62 61 61 61 61 61 60 60 59 60 59 59 58 58 57 57 57 58 59 59 58 60 61 64 63 52 58 56 63 66 70 69 64 64 61 60 59 53 55 53 45 51 52 54 54 61 59
61 61 61 61 60 60 59 59 59 59 59 58 58 57 57 58 58 58 57 53 49 47 53 53 53 55 57 63 66 62 67 65 63 59 51 56 49 46 53 56 57 56 51 51 57 61 56
60 60 60 60 60 59 58 58 59 59 58 58 58 56 57 57 57 58 55 46 48 51 44 57 58 58 62 64 54 59 67 56 54 46 52 47 42 55 58 56 53 51 48 49 55 59 55
60 60 59 59 58 58 57 58 58 58 57 58 58 56 56 56 56 55 53 50 56 53 45 50 56 56 56 60 55 54 61 59 53 50 49 46 51 54 53 50 47 48 46 48 48 54 56
60 60 59 58 58 57 57 57 57 57 57 58 57 55 54 54 48 54 52 58 55 51 36 39 45 53 56 58 51 63 64 59 53 50 51 50 56 50 49 47 49 43 53 50 48 44 41
58 58 59 58 57 57 56 56 57 57 57 57 57 56 55 55 48 51 55 59 52 48 28 44 46 63 58 53 54 53 64 57 50 50 50 45 47 47 45 47 52 46 50 47 47 43 41
58 58 57 57 56 56 56 56 57 57 57 57 57 56 55 52 54 57 56 55 49 31 27 37 43 44 45 52 51 53 53 58 58 50 50 51 55 51 51 52 52 51 47 44 43 39 30
58 57 56 56 56 56 56 56 56 57 57 57 56 55 53 55 51 60 53 48 30 28 44 35 39 44 44 43 45 47 44 42 41 33 34 44 46 51 53 45 49 47 38 33 30 28 31
57 56 56 56 56 56 56 56 56 56 56 56 55 54 57 59 61 56 45 37 28 38 40 47 44 44 39 43 44 46 44 38 47 46 40 35 35 47 49 45 43 42 40 34 28 35 40
57 56 56 56 56 56 56 56 56 56 56 55 53 52 54 57 59 52 39 31 35 43 45 42 42 36 37 44 45 44 43 42 47 48 38 37 36 50 50 51 49 41 33 45 35 38 33
57 56 56 56 56 56 56 55 56 56 55 54 46 47 52 60 58 47 37 33 42 50 49 48 37 42 35 39 40 41 40 49 46 52 54 43 34 46 48 50 50 46 50 33 33 25 28
55 56 56 56 55 55 55 55 55 55 55 54 46 40 52 59 55 41 33 37 44 52 52 47 44 41 42 39 42 40 42 48 53 51 51 47 41 39 44 39 41 40 36 39 42 38 31
55 55 56 56 55 55 55 55 55 55 53 51 44 35 50 52 37 36 35 42 49 48 51 50 52 49 46 45 42 43 44 47 54 53 44 48 41 33 41 50 52 50 42 41 30 34 36
56 55 56 56 55 55 55 55 55 54 54 48 38 40 49 49 34 34 39 43 49 46 48 49 47 51 51 47 40 45 47 51 52 50 47 48 37 31 37 42 49 42 45 46 43 38 30
55 55 55 55 55 55 55 54 54 54 55 50 40 35 42 49 48 43 38 40 42 50 50 52 50 53 50 46 49 43 44 48 51 51 48 51 42 37 36 40 44 35 42 44 35 30 35
55 55 55 55 55 55 54 54 54 54 54 49 45 39 44 36 43 48 47 44 42 43 50 52 48 49 48 43 43 42 46 46 49 49 49 47 35 41 43 45 45 42 40 41 34 35 30
55 55 55 55 55 54 54 54 53 54 53 47 40 41 45 46 48 48 45 44 41 45 49 46 47 49 49 45 46 42 45 44 43 47 44 45 35 36 33 42 43 37 43 42 38 38 36
54 55 55 55 55 54 54 53 53 54 52 44 45 48 45 43 47 43 45 48 48 50 50 52 51 49 45 48 52 52 51 51 51 44 42 42 35 33 32 42 42 36 40 40 40 43 40
55 55 55 55 54 54 53 53 53 53 53 46 45 44 41 39 44 46 48 50 49 50 47 50 52 49 49 56 55 53 50 46 47 48 49 42 37 34 32 38 31 47 54 51 44 43 44
54 54 54 54 54 53 53 53 53 53 53 48 47 43 42 42 47 47 47 49 51 50 49 50 51 54 55 51 41 41 40 40 44 47 48 49 42 34 31 34 43 50 52 48 43 39 44
54 54 54 53 53 53 53 53 52 53 53 49 46 47 44 41 44 51 47 49 45 47 47 49 51 53 49 43 38 36 34 42 38 38 48 49 47 36 36 30 32 50 56 54 49 40 46
53 53 53 53 52 52 52 52 52 52 53 49 46 48 43 41 51 52 48 48 53 50 44 45 44 44 47 40 36 37 39 48 39 39 37 37 36 32 33 31 42 56 56 55 42 43 52
53 52 52 52 52 52 52 52 52 52 52 49 45 48 43 40 49 52 55 53 51 51 43 45 42 42 40 37 36 41 43 47 45 49 45 41 37 34 34 32 33 56 57 48 53 55 54
52 52 52 51 51 51 51 52 52 52 52 51 43 48 48 41 48 53 56 56 56 54 49 48 45 44 45 39 39 44 44 47 47 41 51 43 50 41 43 46 60 61 57 58 54 52 52

GFSGBSN_sfc_temp_042.txt.gz
Temp
63 63 63 63 63 63 62 62 62 62 62 62 62 62 62 62 61 61 62 62 63 63 64 64 63 63 61 55 58 69 70 70 71 67 64 64 61 60 55 59 61 58 61 66 67 66 64
63 63 62 63 62 62 62 62 62 61 61 61 61 62 62 61 60 60 61 62 62 63 63 63 63 63 57 49 72 73 73 72 70 67 63 64 64 64 60 60 59 62 62 62 64 63 63
63 63 63 62 63 62 62 62 60 60 61 61 61 61 60 60 60 60 60 62 61 62 62 63 63 62 57 56 72 72 72 71 73 71 61 65 66 60 62 55 62 61 52 57 59 60 59
63 62 62 62 62 62 61 61 60 60 60 60 60 60 60 59 59 59 60 60 60 59 61 63 63 61 52 69 70 68 71 69 72 71 69 66 66 62 58 61 58 52 52 44 58 60 62
61 61 62 62 61 62 61 60 59 59 60 60 59 59 59 58 58 58 59 59 60 59 60 62 58 56 51 64 61 68 70 65 69 69 67 69 64 56 55 49 47 51 41 45 52 60 59
62 61 61 61 61 60 60 59 58 59 59 59 58 58 58 57 58 58 57 59 59 57 58 61 62 51 57 55 63 66 69 69 64 63 58 57 54 48 50 46 36 43 44 47 48 55 54
61 60 60 60 60 59 59 58 58 59 58 58 58 58 58 57 57 57 55 53 48 46 51 48 51 55 57 63 66 62 67 64 63 58 48 54 46 41 46 50 51 52 48 46 51 58 52
60 60 61 60 60 59 58 58 57 58 58 58 57 58 56 56 57 57 53 46 46 48 43 51 57 59 61 62 53 58 66 55 53 46 52 46 40 51 55 55 51 49 44 43 50 56 51
60 59 60 60 58 58 58 57 58 57 57 57 57 58 56 54 55 53 50 50 53 52 40 47 55 56 56 60 53 53 60 57 50 46 46 43 48 55 51 49 46 44 41 42 43 49 50
59 59 59 58 57 57 57 57 57 57 57 57 57 57 57 56 48 49 48 57 53 52 33 39 46 53 56 58 51 61 63 58 52 46 49 46 53 51 47 46 47 39 50 49 46 40 32
59 59 58 57 57 57 57 57 57 57 56 56 57 57 57 56 47 45 53 57 53 46 23 40 45 62 57 52 52 52 62 57 49 49 49 43 47 46 44 47 50 44 49 46 44 38 35
59 59 57 57 56 56 56 57 56 56 56 56 57 56 56 52 51 54 57 54 47 30 23 36 44 45 45 51 51 54 54 57 57 51 51 48 54 50 49 52 51 51 45 42 40 35 25
58 58 57 57 57 56 57 56 56 57 57 56 56 55 53 54 47 57 54 46 29 24 38 35 38 44 44 44 45 47 44 42 38 33 33 43 45 50 52 45 49 47 39 23 23 24 21
58 57 57 57 57 57 56 57 56 57 56 56 55 54 54 57 55 54 47 37 25 38 34 46 43 43 39 44 43 44 41 38 44 43 37 33 32 45 49 44 41 41 38 23 20 22 27
57 56 56 56 57 56 56 57 57 56 56 55 53 52 51 54 55 52 39 30 33 39 44 40 42 36 37 43 43 42 40 40 44 46 36 36 35 49 49 50 47 39 31 40 31 31 21
57 56 56 56 56 56 56 56 56 56 55 54 46 47 48 55 56 48 35 34 35 49 48 46 36 42 34 38 39 40 40 47 45 50 50 43 32 45 48 50 49 44 46 31 27 13 19
56 56 56 56 56 56 56 56 56 55 55 55 46 39 50 55 51 42 32 33 40 52 51 47 42 41 42 39 41 40 40 48 50 50 51 46 37 37 42 37 36 38 36 38 37 33 20
56 56 56 55 55 55 56 55 55 55 55 51 45 36 51 53 37 37 35 37 48 48 53 51 50 47 43 44 40 41 41 46 53 51 43 47 39 30 35 46 47 45 40 37 28 26 30
56 56 56 56 56 55 55 55 55 55 54 48 39 40 50 47 33 34 37 41 48 47 49 49 48 51 50 44 38 45 45 49 51 48 45 46 35 23 34 38 43 36 42 43 40 36 28
55 56 56 56 55 55 55 54 54 54 55 49 42 35 41 44 45 37 38 41 41 50 51 52 50 52 48 45 48 43 43 47 49 49 50 49 40 32 25 32 37 30 38 42 37 29 31
55 55 55 56 56 55 54 54 54 54 54 50 44 41 45 37 40 40 44 43 42 43 50 52 48 50 48 42 43 43 45 44 47 48 46 43 32 37 39 41 41 38 38 40 33 35 31
55 55 55 56 55 55 54 54 53 54 54 48 40 39 45 45 47 45 43 43 44 47 49 46 46 49 49 45 45 42 45 43 41 44 44 45 31 32 28 39 38 34 40 41 40 40 38
55 55 55 55 55 54 54 53 53 54 53 44 46 47 42 44 45 43 44 45 45 49 49 52 50 47 45 46 50 49 48 49 48 42 42 40 33 32 30 38 37 32 40 42 41 43 41
55 55 55 54 54 54 54 53 53 53 52 46 45 43 40 39 43 45 48 50 48 49 46 50 51 48 48 53 52 51 45 44 46 47 47 38 36 34 30 33 24 43 49 48 45 46 44
55 54 54 54 53 53 53 53 53 53 53 47 46 43 41 38 46 47 47 48 50 49 49 49 49 50 52 48 40 40 38 40 42 43 43 46 38 33 30 28 37 44 47 44 41 40 46
54 54 53 53 53 52 52 52 52 53 53 48 46 47 43 39 43 52 47 48 44 45 44 46 49 52 48 43 39 35 30 38 36 38 45 46 44 35 31 26 27 42 48 50 46 35 45
54 53 53 53 52 52 52 52 52 52 52 49 45 48 42 40 48 50 46 46 50 47 42 45 45 45 48 40 36 35 35 43 36 36 35 35 35 32 32 30 35 48 51 51 35 36 45
53 53 52 52 52 52 52 52 52 52 52 49 45 47 42 39 43 52 53 50 49 48 42 43 42 42 41 37 36 36 37 41 38 43 38 35 34 33 33 31 27 51 51 41 44 46 47
52 53 52 52 52 52 52 52 52 52 52 51 43 48 48 40 44 53 55 55 53 51 47 46 44 42 44 39 39 39 38 40 39 38 45 39 43 38 38 38 50 54 49 49 47 45 44

GFSGBSN_sfc_temp_045.txt.gz
Temp
63 63 63 63 63 63 63 63 62 62 61 62 62 62 62 62 62 62 61 61 62 63 63 63 64 63 59 52 54 69 73 73 69 67 61 60 55 56 50 52 55 51 55 61 62 61 61
64 64 63 63 62 63 63 63 62 61 61 60 61 61 61 61 61 61 61 61 61 62 62 62 63 63 53 45 67 70 68 66 66 62 60 61 58 59 54 53 52 57 56 56 59 58 59
62 63 62 62 63 62 61 61 61 60 59 59 60 60 60 60 60 60 60 61 61 61 60 62 63 60 53 52 67 68 70 67 67 64 59 64 62 57 55 52 57 57 49 52 54 56 55
63 62 62 62 62 61 62 60 59 59 59 61 59 59 59 59 59 59 58 59 60 60 60 60 62 57 47 66 65 67 67 66 68 70 65 64 62 60 56 56 54 49 47 39 52 57 58
62 62 62 61 62 62 61 60 59 58 60 60 59 58 58 59 57 58 58 58 59 60 60 60 56 51 48 64 60 65 65 63 65 65 64 66 58 54 55 49 43 44 35 39 46 56 55
62 60 61 61 61 60 60 60 59 59 58 58 58 58 58 58 56 56 57 58 58 58 57 57 59 47 53 52 60 64 65 65 61 59 55 55 53 47 46 43 33 37 37 39 42 51 52
61 62 60 60 59 59 59 58 59 58 58 58 58 58 58 57 56 55 52 48 43 43 49 45 47 50 55 61 64 60 64 62 60 54 43 49 41 38 41 43 45 45 43 40 46 53 47
61 60 60 61 59 59 58 58 58 58 58 58 58 57 58 58 56 55 51 42 45 46 38 49 53 54 60 61 52 57 63 55 53 43 48 46 40 48 51 50 47 44 40 39 45 51 47
61 60 60 59 58 58 58 58 58 58 57 57 57 57 57 57 57 50 45 46 51 51 37 45 50 52 54 58 51 51 58 56 50 46 46 38 45 52 48 46 45 39 36 37 39 45 44
59 60 60 58 58 58 58 58 57 57 57 57 56 57 57 57 51 48 46 52 51 50 31 37 44 51 55 56 48 59 60 55 51 46 47 44 49 49 45 43 44 36 45 44 42 36 28
59 59 58 58 58 58 57 57 57 57 57 57 57 57 57 56 46 45 51 52 51 46 20 39 43 60 55 49 50 51 60 57 46 47 46 39 44 44 41 44 47 41 47 43 41 34 30
58 59 58 58 57 58 57 57 58 57 57 57 56 56 56 51 49 50 53 52 47 29 20 36 44 44 43 49 50 51 53 56 55 49 48 45 50 47 44 49 48 48 43 40 36 32 22
58 58 57 57 57 57 57 57 58 57 57 56 56 55 53 53 46 51 52 44 26 21 34 34 38 43 43 43 44 46 44 41 36 32 28 39 41 46 49 42 45 45 34 18 26 25 20
58 58 57 57 57 57 57 57 57 57 56 55 55 54 53 54 54 51 47 34 21 35 32 42 43 43 37 43 43 43 41 35 41 39 30 26 24 41 46 41 38 38 35 21 19 20 23
58 57 57 56 57 57 56 57 57 56 55 55 54 47 50 50 53 49 39 27 29 34 38 38 40 37 36 41 40 41 39 37 41 41 32 29 31 48 48 47 44 36 30 38 30 25 16
57 56 57 56 57 56 56 56 56 56 55 55 46 45 44 51 52 44 35 33 34 40 45 44 33 39 33 38 36 38 37 43 42 46 46 41 32 42 47 50 48 40 42 26 23 10 16
56 57 57 57 56 55 56 56 56 55 55 54 41 39 48 54 49 39 31 33 37 47 49 45 39 38 38 36 38 38 37 45 48 47 49 45 36 36 43 36 35 37 35 38 33 27 18
56 56 57 57 56 55 55 55 55 54 54 51 41 35 49 50 35 36 33 34 44 45 49 49 46 43 39 40 37 40 36 44 53 51 43 46 37 31 32 42 44 40 36 35 20 22 25
56 56 56 56 56 55 55 55 55 55 55 43 40 39 48 47 31 33 36 39 45 45 49 49 47 47 48 42 36 42 42 48 51 49 44 45 35 18 33 35 42 34 38 39 36 33 21
56 56 56 56 56 55 55 54 54 54 55 44 41 33 39 43 42 36 38 38 40 49 48 49 47 49 46 43 43 40 40 45 47 48 51 49 37 28 23 28 34 28 36 38 35 26 29
56 56 56 56 55 55 54 54 54 54 54 48 41 38 40 34 38 40 43 42 41 41 48 49 47 47 46 41 41 42 43 40 45 47 45 42 29 34 35 37 37 34 35 36 32 35 29
55 56 55 55 55 54 54 53 53 54 54 42 40 39 41 36 43 41 41 40 42 43 44 44 43 46 45 42 42 41 43 41 38 40 39 41 27 31 23 36 36 30 37 37 37 37 36
55 55 55 55 54 54 53 53 53 53 52 43 44 45 42 39 38 38 40 41 43 45 47 47 46 43 41 43 45 44 46 45 43 39 41 40 34 22 22 35 34 29 36 38 39 40 39
54 54 54 54 54 53 53 53 53 53 52 45 45 43 39 35 38 42 46 46 45 45 43 47 47 43 45 50 49 47 44 43 43 44 44 37 36 29 23 29 22 40 47 46 42 43 43
54 54 54 54 53 53 52 52 53 53 53 45 46 43 40 37 40 41 44 45 47 45 47 45 46 46 48 46 39 38 37 39 40 40 43 42 35 31 27 25 34 42 43 43 39 38 44
54 54 54 53 53 52 52 52 52 53 52 47 45 46 42 38 38 45 46 47 42 40 41 44 46 49 46 42 39 34 28 33 30 36 40 43 41 35 31 24 25 39 46 47 45 33 43
53 53 53 53 53 52 52 52 52 52 52 48 44 47 41 39 45 46 45 44 49 45 40 43 44 44 47 39 33 34 31 40 32 34 34 34 35 32 31 30 33 43 48 47 33 36 42
53 53 53 53 52 52 52 52 52 52 52 47 43 47 41 39 42 46 50 45 48 47 39 41 42 42 40 36 35 34 33 37 35 38 36 33 33 33 33 29 27 47 46 39 43 43 43
52 52 52 52 52 52 52 53 52 52 52 50 41 47 47 39 42 49 51 54 50 47 46 42 41 41 44 39 38 35 34 36 35 35 41 36 38 35 36 36 46 46 45 44 44 43 41

GFSGBSN_sfc_temp_048.txt.gz
Temp
64 63 63 63 63 64 63 62 61 61 61 61 60 60 60 61 61 61 61 61 62 62 62 62 62 64 58 49 52 68 71 72 71 65 61 58 53 53 48 50 52 48 51 57 59 58 57
63 64 63 63 63 63 62 62 62 60 60 60 60 60 60 60 60 60 60 60 61 61 61 62 61 62 53 43 66 69 66 69 66 63 59 58 56 56 52 51 50 53 55 55 56 56 56
62 63 63 62 62 63 62 62 60 60 60 60 60 59 59 59 59 59 59 59 59 60 61 62 61 60 51 50 66 67 66 63 65 63 58 61 60 56 54 51 56 54 49 50 53 53 53
62 63 62 62 62 62 60 60 59 60 60 59 59 58 58 58 58 58 58 58 58 59 60 61 61 56 48 63 65 65 66 64 67 65 64 65 61 58 53 54 52 48 46 39 50 53 55
62 62 62 61 61 61 60 59 59 59 59 59 58 58 58 58 57 57 57 58 58 59 60 61 54 52 47 64 57 64 64 61 63 62 62 64 60 53 53 45 41 42 35 38 44 54 53
62 62 61 61 61 60 59 59 59 60 59 58 58 58 58 58 57 56 56 57 57 57 56 57 55 46 51 50 59 63 63 63 58 57 55 54 51 46 46 43 34 36 36 37 40 48 49
61 61 60 61 59 60 60 60 60 59 59 58 58 58 58 58 58 55 52 45 41 41 49 44 45 48 53 59 62 59 62 59 57 53 45 50 44 40 44 47 46 46 40 38 44 50 45
60 60 60 59 60 59 59 59 59 58 58 58 58 57 57 57 58 57 49 41 42 46 39 48 48 50 57 59 50 56 62 52 49 42 46 44 38 46 48 47 44 41 41 37 44 48 44
59 60 60 59 59 58 58 58 58 58 58 57 57 57 57 57 57 50 45 46 50 50 38 43 48 49 54 58 49 50 58 54 48 43 43 39 44 51 47 45 43 39 35 36 38 43 42
59 60 59 59 58 58 58 58 57 59 57 57 57 57 57 57 49 46 45 52 50 51 31 37 42 49 53 55 47 58 60 55 49 44 46 43 48 47 44 42 43 35 43 43 40 36 28
59 59 59 58 58 57 58 58 58 58 58 57 57 57 57 56 45 42 50 49 50 46 20 39 43 58 55 48 49 51 60 56 45 46 45 39 43 42 40 42 46 40 46 42 39 32 29
58 58 58 57 57 57 57 57 58 58 57 57 56 56 55 51 49 50 52 51 46 26 19 35 43 42 44 47 48 51 53 56 55 48 47 42 49 46 44 47 47 47 41 37 34 29 18
58 58 58 57 57 57 57 57 57 57 57 56 55 55 54 53 46 50 50 44 25 20 33 33 38 43 42 42 42 46 44 41 37 32 32 41 41 45 48 41 44 41 31 17 17 16 20
58 57 57 58 57 58 56 57 57 57 56 55 55 54 52 52 53 50 46 34 21 30 31 40 42 43 38 41 42 43 41 36 41 38 30 29 25 40 45 40 37 35 32 20 17 20 22
58 57 57 57 57 57 56 57 57 56 55 55 54 46 46 50 51 49 39 26 28 31 36 40 42 36 35 39 41 41 40 38 40 40 31 26 30 46 45 46 43 34 25 35 24 23 16
57 57 57 58 57 57 56 56 56 55 55 55 42 42 46 52 52 46 34 32 34 38 43 43 32 37 32 35 36 38 38 41 41 44 42 37 27 43 46 48 46 39 41 24 19 9 16
57 57 57 57 56 56 56 56 56 55 56 54 43 38 48 51 49 39 29 33 35 46 47 43 36 36 36 35 37 36 37 42 45 43 45 41 32 36 43 35 33 35 32 32 29 25 16
57 57 57 57 56 55 55 55 55 55 55 48 39 35 49 51 35 36 33 34 42 43 48 45 44 43 38 38 37 37 35 42 48 47 39 44 35 27 32 40 42 39 35 34 21 21 22
56 57 56 56 55 55 55 55 55 55 55 42 36 37 48 47 31 33 35 38 42 43 42 46 43 45 44 39 35 39 40 47 50 48 42 43 33 21 30 34 38 32 36 37 33 30 17
56 56 56 56 55 55 54 54 54 54 55 43 39 28 36 41 41 37 36 37 40 48 46 47 45 47 44 41 41 36 38 45 48 48 51 47 33 28 23 27 31 25 33 36 31 22 23
56 56 55 55 55 54 54 54 54 54 54 46 37 34 37 35 39 40 41 39 41 41 46 48 46 46 44 39 38 37 39 40 46 48 46 42 29 31 33 35 35 33 33 34 27 34 27
55 55 55 55 54 54 53 53 53 54 53 42 38 37 42 39 44 38 39 39 40 41 43 42 41 44 44 39 40 38 39 37 37 40 38 39 25 31 23 34 34 29 34 35 35 37 37
54 55 55 54 54 53 53 53 53 53 50 42 44 45 42 39 36 35 37 41 42 45 47 46 44 42 40 42 44 42 45 44 42 38 37 39 34 24 22 33 32 26 34 36 36 37 40
54 54 54 54 53 53 52 52 53 53 51 44 44 43 39 33 36 38 42 43 43 43 41 44 45 42 44 49 47 47 43 42 42 44 44 37 34 25 21 28 20 38 45 45 40 41 42
54 54 54 54 53 53 52 52 52 53 53 45 45 42 40 36 36 39 42 42 43 44 43 42 44 44 47 44 38 37 37 39 39 41 42 41 36 25 26 25 32 42 44 41 38 38 42
53 53 54 54 53 53 52 52 52 52 53 46 45 46 42 38 35 41 43 42 37 36 41 45 45 47 45 41 39 32 29 32 31 36 42 42 41 32 30 23 26 39 43 46 43 32 43
53 53 53 53 53 53 53 52 52 53 52 47 43 47 41 38 41 41 43 43 47 41 40 43 44 44 46 37 35 34 31 39 31 33 33 34 35 31 31 29 33 42 44 45 31 36 42
52 53 53 53 53 52 53 52 53 52 52 45 42 47 41 38 40 46 48 42 47 46 41 42 42 42 40 36 35 33 31 36 35 37 37 34 31 32 33 30 25 44 44 38 43 41 42
52 52 52 53 52 52 52 52 52 52 52 50 40 47 47 38 40 45 48 50 48 49 46 43 42 41 43 39 37 34 32 33 34 34 38 32 36 34 36 35 44 45 44 43 43 42 41

GFSGBSN_sfc_temp_051.txt.gz
Temp
63 63 64 64 63 63 63 63 62 61 61 61 61 60 60 59 60 60 60 60 61 62 62 61 62 63 57 48 50 67 70 71 68 66 59 56 53 51 47 49 49 47 50 55 57 57 54
63 63 63 62 63 62 62 61 60 60 60 61 60 60 59 59 59 59 59 59 60 60 60 61 62 60 52 42 63 67 67 66 65 62 59 58 54 55 50 50 49 51 53 54 55 55 54
63 63 63 63 62 62 62 60 60 59 60 60 60 59 59 58 58 58 58 59 59 59 59 60 61 57 49 50 63 64 66 65 66 62 57 60 59 55 53 49 55 52 47 48 51 53 52
63 62 63 62 62 62 60 60 60 59 60 60 60 58 58 58 58 58 58 58 58 59 58 60 61 54 46 63 63 62 63 61 61 61 61 61 62 57 52 53 50 47 45 39 49 53 54
62 62 61 61 61 60 60 60 60 60 60 59 59 58 58 58 58 58 57 57 58 58 59 60 54 49 45 64 56 62 62 60 62 61 60 66 59 52 51 46 40 41 34 38 45 53 51
61 61 61 61 60 60 60 59 60 59 59 59 59 58 58 58 58 58 56 57 57 56 55 56 55 46 49 50 58 61 62 62 56 56 54 54 53 46 44 41 33 35 36 35 39 46 47
61 61 61 61 60 59 59 59 59 58 59 58 57 57 57 57 57 57 51 44 40 40 44 43 46 46 51 58 62 57 60 59 55 51 45 48 44 40 45 45 43 43 39 37 42 48 44
60 60 60 60 60 59 59 58 58 58 59 57 58 57 57 57 57 57 48 42 42 45 37 49 47 48 53 54 50 54 60 52 49 44 46 45 40 46 48 47 46 44 41 40 42 46 42
60 60 60 59 59 58 58 58 58 59 58 58 58 57 57 57 57 48 43 45 50 48 37 41 46 45 49 56 49 48 57 53 47 43 44 42 45 48 47 43 41 39 35 36 37 41 40
59 59 59 59 59 58 57 58 57 58 58 57 57 57 56 56 48 45 43 52 48 49 24 33 39 46 50 54 46 56 60 54 48 41 44 43 48 46 43 42 42 34 42 42 39 35 29
59 59 59 58 58 57 58 57 57 58 57 56 56 56 56 56 46 44 48 47 48 46 17 39 40 56 53 47 48 49 59 55 45 46 45 39 43 41 40 41 44 39 44 40 37 31 27
58 59 58 58 58 58 57 57 58 57 57 56 56 56 56 51 49 51 51 50 46 26 21 34 42 42 44 46 47 50 52 56 54 46 46 42 49 46 43 44 45 45 40 36 32 29 19
58 58 58 58 58 58 58 57 57 57 56 56 56 55 52 53 45 50 50 44 21 20 33 32 37 44 43 42 43 45 44 42 38 33 31 40 40 44 47 40 43 40 31 18 18 17 21
58 58 58 58 58 57 57 57 57 57 56 55 55 53 53 50 49 49 43 30 20 31 29 38 42 42 36 43 41 43 41 35 41 38 31 30 28 40 44 40 36 33 32 20 18 19 21
57 57 57 58 57 57 57 57 56 56 56 55 53 44 45 50 52 49 39 27 27 31 34 39 41 35 35 39 40 39 39 37 40 39 31 26 29 43 44 45 42 33 25 34 23 21 17
57 57 57 57 57 56 56 56 56 56 56 54 41 43 44 52 52 44 34 31 33 37 44 40 32 36 33 35 36 36 38 43 41 42 41 36 28 42 44 47 44 37 40 26 20 11 16
57 57 57 57 56 56 56 55 55 56 55 54 40 38 47 50 47 35 27 32 37 47 46 41 35 36 35 34 37 37 38 41 43 42 42 40 32 34 43 36 34 34 29 30 28 24 15
56 57 56 56 56 55 55 55 55 55 55 47 37 32 49 50 32 36 33 34 41 42 45 43 42 40 36 38 37 37 35 40 46 45 38 40 32 30 34 38 40 38 34 32 21 20 20
56 56 56 56 55 55 54 54 54 55 55 41 36 38 49 44 29 33 37 39 42 42 41 44 42 43 41 38 34 37 38 46 46 44 40 41 30 20 26 33 36 31 35 34 31 25 18
56 56 56 55 55 54 54 54 54 54 54 42 36 29 36 43 41 37 37 37 39 46 45 46 43 45 42 39 40 36 37 44 47 47 50 46 32 28 23 27 29 25 32 34 29 20 23
55 55 55 55 54 54 53 53 53 54 53 44 37 36 39 35 39 41 41 40 38 38 45 46 43 44 42 37 37 36 38 41 45 48 44 41 29 30 32 34 34 33 32 32 25 32 22
54 55 55 55 54 53 53 53 53 53 53 43 39 36 39 39 43 36 38 38 38 40 41 41 40 43 42 37 37 36 38 37 39 43 41 39 28 31 24 33 32 28 33 34 33 34 34
54 54 54 54 54 53 53 52 53 53 50 42 44 45 41 39 35 33 36 41 40 42 44 44 44 41 39 41 41 42 44 43 42 38 36 38 33 25 22 31 31 25 32 34 34 35 39
54 54 54 54 54 53 53 52 52 53 51 43 44 42 39 32 34 36 40 42 41 42 40 42 44 42 43 47 46 46 43 41 42 40 42 35 34 27 21 27 19 36 42 41 39 42 41
53 54 54 54 53 53 53 53 53 53 53 44 44 42 39 36 35 37 40 40 41 42 41 41 42 43 44 43 37 36 37 39 40 42 42 42 36 27 25 26 30 37 42 40 37 38 41
53 53 54 54 53 53 53 53 52 53 52 44 44 45 41 38 34 40 39 40 36 34 37 41 43 45 44 39 36 31 28 30 31 35 42 42 40 32 30 25 23 37 42 43 42 33 42
53 53 53 53 54 53 53 53 52 53 52 43 43 46 41 37 39 39 38 39 42 38 36 39 44 43 44 35 35 31 32 37 30 32 33 34 34 31 31 27 31 42 43 44 32 36 41
52 52 53 53 53 53 52 52 52 53 52 43 38 46 41 38 39 42 45 40 42 43 37 40 41 42 40 36 35 33 30 38 34 36 34 33 31 31 32 29 25 43 42 37 43 41 42
52 52 52 52 53 52 52 52 52 52 52 49 35 46 47 38 39 44 46 47 45 46 45 43 42 42 43 39 37 36 32 32 32 31 37 32 35 32 34 34 44 44 46 46 44 42 41

GFSGBSN_sfc_temp_054.txt.gz
Temp
63 64 63 63 64 63 62 62 61 60 60 61 60 60 60 60 60 60 59 59 60 61 60 60 61 61 56 48 49 64 69 69 67 65 60 56 54 52 48 48 49 46 49 54 56 56 53
63 63 63 63 63 62 62 61 60 60 60 60 60 60 59 59 59 59 59 59 59 60 60 60 60 60 51 43 63 65 65 65 64 62 58 58 54 56 50 49 49 51 52 53 54 54 53
63 63 63 63 63 62 61 61 60 61 61 61 60 59 59 59 59 59 59 59 59 59 59 60 60 57 48 50 63 63 64 62 65 62 56 59 59 55 52 48 53 51 46 47 50 52 51
62 63 62 62 62 61 61 60 60 60 60 59 59 59 59 59 59 59 58 58 58 57 59 59 59 54 45 62 61 60 62 60 63 62 62 62 61 56 52 52 49 46 44 38 48 51 52
62 62 62 61 62 61 60 59 59 59 59 59 59 58 58 58 58 58 58 57 58 58 59 59 50 49 44 62 53 59 60 57 58 58 58 64 58 52 50 44 39 39 32 36 44 51 51
61 61 61 60 60 61 60 59 59 59 59 59 58 57 58 58 58 58 58 57 57 55 54 55 53 43 50 48 55 59 61 61 56 56 55 55 51 46 42 43 33 38 35 34 38 45 45
61 61 60 60 60 60 59 59 59 59 58 58 58 58 58 58 58 57 51 44 40 41 44 41 43 46 49 54 58 55 59 57 54 53 45 49 43 40 43 44 43 41 37 36 40 46 42
60 60 60 59 60 59 59 58 58 58 58 59 58 58 58 57 57 57 47 39 42 46 37 46 47 48 52 52 48 51 60 51 48 44 46 44 38 47 51 49 46 42 37 35 41 44 41
60 60 60 59 59 60 59 59 58 58 59 58 57 57 57 56 55 47 43 43 49 47 36 41 44 45 48 50 49 49 56 51 46 43 43 40 43 48 47 44 43 41 38 36 36 40 38
60 60 60 59 59 59 59 58 58 58 58 57 57 57 57 56 47 45 42 49 48 48 20 33 39 45 48 50 45 56 57 51 47 42 45 43 47 45 43 41 42 35 44 42 39 35 29
59 59 59 59 58 59 58 58 58 58 57 56 56 57 57 54 46 44 47 47 47 45 12 37 40 53 49 46 47 50 57 55 45 43 44 38 42 41 40 41 43 39 44 40 37 31 28
58 59 59 58 59 58 58 58 58 57 57 56 56 56 55 48 49 49 48 48 43 26 20 33 42 41 42 46 45 50 50 55 54 46 46 42 49 47 42 44 47 44 39 35 31 30 20
58 58 58 58 58 58 57 57 57 56 56 57 56 55 51 51 42 48 48 40 24 21 32 32 35 42 42 41 42 45 43 41 38 33 33 39 41 45 46 39 44 41 35 20 18 17 20
58 58 58 58 58 57 57 57 57 57 56 56 55 53 52 50 47 47 44 33 23 30 30 38 42 42 37 42 41 41 40 35 40 38 31 28 27 41 43 40 36 33 32 21 18 19 21
57 57 57 57 57 57 57 56 56 56 56 55 53 44 48 51 51 47 38 24 28 31 33 38 41 35 36 38 40 39 38 35 39 40 32 27 29 42 44 43 40 32 24 33 21 19 16
57 57 57 57 56 56 56 56 55 55 55 55 40 40 42 50 48 41 32 32 33 37 43 40 33 35 32 35 36 36 36 40 39 41 40 34 27 40 42 45 43 37 38 26 18 11 17
56 57 57 56 56 55 55 55 55 55 55 53 40 35 45 51 44 34 29 32 37 46 44 39 34 34 34 34 36 35 35 40 43 41 43 38 33 35 41 34 33 34 28 30 28 25 18
56 56 57 56 55 55 54 54 55 55 55 46 37 30 49 47 33 36 33 36 42 42 43 42 41 39 35 36 34 34 35 39 45 45 38 40 34 32 33 38 39 37 33 31 20 19 20
56 56 56 55 55 54 54 54 54 55 54 43 34 35 45 43 33 34 38 40 40 41 40 42 40 42 40 37 32 35 37 44 46 44 40 41 29 19 27 33 36 31 34 34 30 26 18
55 55 56 55 54 54 53 53 54 54 54 42 35 31 37 43 42 38 38 38 37 43 43 44 42 44 41 38 38 35 36 43 45 45 49 45 32 28 23 27 30 26 32 33 29 23 23
54 55 55 55 54 54 53 53 53 54 53 42 36 37 39 32 38 39 39 39 36 37 43 44 41 42 40 35 36 34 37 39 43 47 42 40 29 30 31 34 33 32 32 31 24 28 22
54 55 55 55 54 54 53 53 53 53 53 41 38 38 41 39 41 36 37 36 36 37 39 39 38 40 40 36 36 35 37 36 36 39 37 37 27 30 23 33 31 28 33 32 32 32 32
54 54 54 55 54 53 53 53 53 53 50 42 44 45 41 36 33 32 34 37 39 40 43 44 44 39 38 39 39 40 42 42 41 38 36 39 33 24 22 30 30 25 31 33 32 34 38
54 54 54 54 54 53 53 53 53 53 50 43 43 42 38 32 32 34 38 42 39 40 38 40 43 39 43 45 43 44 42 40 41 40 41 36 34 31 25 27 18 35 40 39 37 39 39
54 54 54 54 54 53 53 53 53 53 53 42 44 41 39 36 34 35 38 38 39 40 39 40 41 43 43 41 36 36 37 38 39 41 40 43 36 30 26 27 29 36 38 37 36 37 40
54 53 53 53 53 53 53 53 53 53 53 40 44 45 41 37 33 37 36 38 35 33 36 40 42 44 42 38 35 29 27 29 31 35 41 41 39 32 29 26 21 34 40 44 42 33 41
53 53 53 53 53 53 53 52 53 52 53 42 38 46 40 37 38 39 37 41 40 36 34 37 40 40 42 35 33 31 33 35 30 29 33 33 33 30 30 29 28 39 44 43 33 34 40
53 52 52 52 53 53 53 53 53 52 52 43 38 45 40 37 39 43 44 43 40 39 36 39 38 40 39 36 36 34 32 36 33 36 34 33 28 31 30 28 24 42 43 40 44 42 41
52 52 52 52 52 52 52 53 52 52 52 47 35 44 46 37 39 44 44 45 45 43 42 42 40 41 42 37 36 37 33 34 31 32 39 31 34 31 32 32 43 46 44 48 44 43 40

GFSGBSN_sfc_temp_057.txt.gz
Temp
64 64 63 63 64 63 63 62 61 61 62 62 61 60 60 60 60 60 60 60 60 60 60 60 60 60 56 47 50 64 67 67 68 64 59 57 54 54 50 51 51 50 52 55 58 57 58
63 63 63 62 63 63 62 61 60 60 61 60 61 60 60 60 60 59 60 60 60 60 60 60 60 58 49 42 64 61 63 64 65 62 58 59 56 57 53 51 51 53 54 55 57 57 57
62 62 62 63 62 62 62 61 60 60 60 60 60 59 59 59 59 59 60 60 60 60 60 60 59 55 47 47 61 60 62 62 65 62 56 61 61 58 54 49 55 53 48 51 54 54 55
63 62 62 62 61 61 61 60 59 59 60 59 60 59 59 57 58 58 59 59 59 59 58 58 58 51 42 61 62 60 61 58 64 65 62 63 61 57 54 55 52 48 49 42 51 53 54
62 62 62 61 61 61 60 59 59 59 59 59 59 58 58 59 59 59 58 58 59 59 59 59 51 47 42 62 55 60 58 57 61 60 62 62 57 53 53 46 42 44 36 40 46 52 52
62 61 61 60 60 61 60 60 59 59 58 58 59 59 59 58 58 58 57 57 57 55 54 55 53 42 48 48 54 58 60 58 56 55 55 54 52 46 45 44 34 37 38 40 43 48 48
61 60 60 60 60 60 60 60 60 58 59 59 58 58 58 58 57 57 51 44 40 39 44 41 42 43 48 53 57 55 59 56 56 53 45 50 43 39 44 46 45 44 41 40 44 49 47
60 60 61 60 60 59 60 60 59 59 59 58 58 57 57 56 57 54 47 39 44 44 37 45 48 48 52 53 47 52 57 51 49 43 48 43 40 48 49 48 46 43 40 39 44 47 46
59 60 60 60 60 59 59 59 58 59 58 58 57 57 57 57 54 48 43 43 48 48 38 41 45 44 47 52 46 48 53 51 47 44 41 37 44 51 48 46 44 42 39 38 40 43 43
59 60 60 59 59 59 59 58 58 58 57 57 57 57 57 53 49 46 41 48 47 47 25 33 40 45 49 50 44 56 56 51 46 41 41 39 46 46 44 43 46 38 45 43 41 39 34
59 59 59 59 59 59 58 58 57 58 57 57 56 56 56 54 46 44 46 46 46 43 16 36 41 51 48 44 47 50 57 54 43 42 42 35 42 41 39 40 45 39 45 41 39 35 35
59 58 59 58 58 58 57 57 57 57 57 57 56 56 54 48 47 46 47 46 43 22 18 33 41 40 40 45 46 50 49 55 51 44 45 42 47 46 43 45 45 44 40 37 34 33 27
58 58 58 58 58 57 57 57 57 57 57 56 56 56 51 50 41 47 48 40 21 17 32 32 35 40 41 41 43 45 42 41 38 32 32 39 41 46 47 41 45 43 38 26 24 23 26
58 58 58 58 57 57 57 56 56 56 56 56 55 54 53 49 47 47 44 29 19 30 29 37 41 42 37 40 41 41 39 35 41 39 31 29 30 42 45 41 39 37 39 26 23 24 27
57 57 57 57 57 56 56 56 56 56 55 55 52 43 46 49 49 45 35 26 29 31 34 38 39 35 36 39 40 39 37 35 39 40 34 29 30 44 44 44 43 36 29 35 24 23 22
57 57 57 57 56 56 55 55 55 56 55 55 40 40 42 49 47 44 34 33 35 38 42 39 32 36 32 36 36 36 35 39 39 42 42 35 28 41 42 45 43 39 39 28 23 17 21
56 57 57 56 56 55 54 54 55 55 55 53 39 35 45 48 44 38 31 33 38 44 43 38 33 33 34 35 38 34 35 40 43 42 43 39 34 35 42 36 34 35 31 31 30 28 23
56 56 56 56 55 54 54 54 54 55 55 46 36 31 46 45 34 37 33 35 42 41 42 42 40 38 35 35 34 34 35 40 46 45 39 40 35 30 34 39 41 39 35 33 26 24 23
56 56 56 56 55 54 54 54 54 54 54 43 34 34 44 43 32 32 37 39 40 40 40 41 39 41 40 37 33 35 37 44 46 44 40 41 31 25 30 35 38 34 35 35 32 28 22
55 55 56 55 55 54 53 53 53 54 54 43 34 31 36 41 41 37 36 36 37 43 42 42 41 42 39 36 38 35 36 42 44 45 48 45 33 31 27 30 32 27 33 34 30 23 25
55 55 55 55 55 54 53 53 53 53 54 41 35 35 38 31 35 39 40 39 35 36 41 42 40 40 38 33 34 33 37 38 43 46 42 41 30 31 33 35 34 33 33 32 27 30 25
55 54 55 55 55 54 53 53 53 53 53 40 36 38 41 36 39 36 36 38 36 37 37 37 37 38 38 36 35 34 37 35 36 39 38 38 30 27 25 33 32 29 34 33 33 34 33
54 54 54 54 54 54 53 53 53 53 49 41 43 45 40 36 32 31 33 35 37 39 41 41 40 38 36 37 39 40 41 42 41 39 36 38 29 25 24 31 31 26 32 34 33 34 37
54 54 54 54 54 54 53 53 53 53 49 40 42 42 38 31 31 34 35 37 37 38 39 40 41 38 42 43 42 43 41 39 40 39 41 36 35 30 27 27 18 35 40 39 37 39 39
54 54 54 54 54 54 53 53 53 53 52 39 44 41 39 34 33 34 36 37 38 39 38 39 40 43 43 41 38 38 37 39 39 41 39 43 37 28 24 27 29 35 37 37 36 38 41
54 54 54 53 53 53 53 53 53 53 52 40 42 44 40 36 31 36 35 36 35 32 35 38 42 43 41 36 35 30 28 30 31 35 41 41 39 30 27 25 22 35 41 44 43 35 43
54 53 53 53 53 53 53 53 53 53 52 42 38 42 40 36 38 40 38 36 38 35 34 35 38 38 40 33 33 31 32 35 29 28 32 33 33 29 26 25 30 38 44 45 34 37 43
53 53 53 52 52 53 53 53 53 53 52 44 40 43 39 36 38 42 43 42 40 37 34 38 37 38 37 36 36 35 32 35 34 36 33 32 29 30 29 28 22 42 41 40 45 45 43
53 52 52 52 52 52 52 52 53 52 52 47 37 44 44 35 37 43 42 45 45 46 40 38 38 38 39 36 36 37 32 35 31 32 39 31 33 30 32 32 43 45 45 49 48 45 44

GFSGBSN_sfc_temp_060.txt.gz
Temp
64 63 63 63 63 63 63 63 61 61 61 61 61 61 60 60 61 61 60 60 61 61 60 60 60 60 58 50 51 66 64 68 69 68 63 62 59 57 52 57 59 57 59 62 64 63 63
63 64 63 63 63 62 62 61 60 60 60 60 60 60 59 59 60 60 60 61 61 60 59 60 60 59 52 41 68 70 59 65 67 64 62 62 62 64 57 57 57 61 60 61 64 63 62
63 63 63 63 61 61 61 60 61 60 60 60 60 59 59 59 58 59 59 60 60 60 59 60 60 58 49 50 65 65 58 63 68 65 60 64 68 62 62 54 62 59 54 59 60 62 62
62 62 62 62 62 61 61 61 61 60 60 60 59 59 59 59 59 59 59 59 59 59 59 59 58 56 45 63 66 62 59 62 69 69 65 66 66 64 63 63 58 55 56 49 59 60 61
62 61 62 62 62 61 61 60 61 60 59 60 60 59 59 59 59 59 58 58 59 59 59 60 53 51 44 64 54 60 62 60 65 66 65 66 59 60 59 54 49 52 47 49 51 60 61
62 61 62 61 61 61 60 61 60 60 60 59 59 58 58 58 58 58 58 58 58 57 58 59 55 42 51 51 56 59 64 63 58 59 56 55 52 48 53 52 42 45 46 50 50 55 56
61 61 61 61 61 60 60 60 60 60 59 59 59 58 58 57 55 57 55 54 50 47 50 46 46 44 51 58 61 54 60 56 57 56 47 52 42 42 50 55 54 53 50 48 52 54 53
60 61 61 60 60 60 60 59 59 59 59 59 58 57 58 57 56 54 52 48 48 50 41 49 50 48 53 56 50 50 58 49 51 46 52 46 40 50 56 55 52 52 49 48 48 52 53
60 60 60 60 60 60 59 59 59 58 58 58 58 57 56 54 53 51 51 49 55 54 43 44 46 45 48 52 49 46 53 52 51 47 47 44 46 55 53 51 49 50 48 47 47 49 51
60 60 60 59 59 59 59 58 58 57 58 58 57 57 56 55 53 51 49 53 55 55 32 34 39 44 49 51 45 56 52 50 45 44 43 42 46 50 50 49 52 43 50 50 47 46 43
59 59 59 59 59 58 58 58 57 57 57 57 57 56 56 55 50 48 49 54 55 49 23 37 40 52 51 46 46 47 53 52 45 40 42 36 40 45 44 48 53 44 51 48 46 46 44
59 59 59 58 58 58 57 58 57 57 56 56 56 56 55 53 54 51 54 54 51 32 24 34 41 40 42 44 47 49 49 51 52 44 42 37 44 43 43 45 46 49 48 46 46 43 36
58 58 58 58 58 57 57 57 57 57 56 56 56 56 56 55 49 54 54 49 33 28 35 33 36 41 43 42 46 45 45 43 39 35 34 34 37 42 47 38 42 43 44 34 33 33 36
58 58 58 58 57 57 56 56 56 56 56 55 55 55 55 56 57 55 51 40 29 32 33 39 42 42 38 43 41 41 43 42 47 46 36 35 31 38 44 45 42 43 45 37 30 34 38
57 57 57 57 57 56 56 56 56 56 55 55 53 56 54 57 56 54 45 31 31 33 35 40 44 40 40 44 42 39 42 41 44 48 40 37 34 47 47 48 49 41 38 44 35 34 35
57 57 57 57 57 56 55 55 55 55 55 55 50 51 52 56 55 51 42 34 36 40 45 46 36 41 38 40 41 43 41 45 44 48 51 43 33 43 45 50 48 46 47 36 35 29 31
56 57 57 57 56 55 55 55 55 55 55 53 50 49 55 56 53 48 32 35 42 49 48 45 41 40 41 41 43 42 41 45 49 47 51 48 43 37 45 42 41 41 40 39 41 38 35
56 56 56 56 56 55 54 54 54 55 55 52 47 44 55 55 43 40 36 38 44 47 50 48 48 45 43 44 42 43 43 46 51 52 45 46 43 35 38 45 47 46 43 43 37 32 34
56 56 56 56 55 55 54 54 54 54 54 47 45 45 55 53 39 40 44 45 45 46 47 47 45 48 47 44 40 43 44 49 51 50 48 48 38 31 33 39 44 40 42 42 40 38 30
55 55 55 55 55 55 54 54 54 54 54 50 45 42 47 50 48 44 43 43 43 48 48 48 47 49 47 43 46 42 43 47 49 50 48 50 41 38 36 36 40 34 39 41 37 32 37
55 55 55 55 55 55 54 54 53 54 53 50 45 41 43 41 45 45 45 44 42 42 48 50 47 47 46 41 42 41 44 45 48 48 48 49 37 38 39 39 39 38 38 38 32 38 33
55 55 55 55 55 55 54 53 53 53 52 50 41 40 45 44 44 44 43 43 42 43 43 44 45 45 47 45 45 42 44 46 45 47 47 45 34 33 32 38 38 34 39 40 39 40 39
55 54 54 55 54 54 53 53 53 53 51 47 45 47 41 43 42 44 44 43 44 46 46 48 48 46 44 44 47 49 51 51 50 47 44 44 36 34 33 36 36 32 37 39 41 43 43
55 54 54 54 54 54 53 53 53 53 50 46 45 43 40 38 41 43 42 43 43 45 45 47 49 48 49 52 52 53 52 49 50 47 49 43 39 37 34 35 27 41 46 46 43 46 47
55 54 54 54 54 54 54 53 53 53 51 48 47 42 40 35 40 42 42 43 46 46 45 46 47 50 54 50 45 41 41 42 42 45 46 48 42 34 32 33 40 43 42 42 41 44 50
54 54 54 54 53 53 53 53 53 53 52 50 46 46 42 36 40 42 39 42 44 45 45 46 49 52 50 47 44 35 33 36 35 37 45 44 44 39 33 27 30 43 48 52 50 42 51
54 54 54 53 53 53 53 53 53 53 52 49 46 47 42 37 44 43 40 41 46 44 44 46 47 47 50 44 39 36 35 41 34 34 35 36 37 34 35 33 40 49 50 51 37 43 52
54 54 54 53 52 52 52 53 53 53 52 49 46 48 43 38 40 44 46 44 44 45 43 46 46 46 45 41 41 40 39 40 38 41 38 37 34 32 34 31 29 50 48 43 49 52 53
54 54 53 53 52 52 52 52 53 53 53 50 43 48 48 39 39 45 46 48 47 46 42 46 45 46 50 45 45 44 40 39 40 34 44 37 44 41 41 42 51 52 50 54 52 53 53

GFSGBSN_sfc_temp_063.txt.gz
Temp
64 64 63 63 63 63 62 62 61 62 62 62 61 60 60 60 60 59 60 60 61 61 60 60 60 60 59 52 53 70 66 70 73 67 67 62 63 60 55 60 62 58 65 67 68 65 66
64 63 63 63 63 62 62 62 62 61 61 60 60 60 59 60 60 59 59 60 60 61 59 59 60 59 55 44 70 72 64 65 66 64 67 64 65 67 60 60 59 62 64 64 67 64 64
63 63 62 62 62 62 62 61 61 61 61 61 61 61 60 60 59 59 59 60 60 60 60 59 60 59 52 52 69 67 59 62 65 63 64 69 71 63 65 57 64 62 57 60 63 64 63
63 62 63 62 62 62 62 60 61 61 61 61 60 59 59 59 59 60 59 59 59 59 59 59 58 57 46 66 70 65 61 57 65 60 69 72 71 62 61 65 59 54 57 49 60 62 64
62 62 62 62 62 62 61 61 60 60 60 60 60 59 59 58 58 58 59 58 59 59 59 60 55 53 46 66 59 64 60 56 64 61 67 71 64 58 59 52 49 53 46 50 55 62 61
62 62 62 61 61 61 61 61 60 60 60 60 59 58 58 58 58 57 58 58 58 58 60 62 58 47 54 52 60 60 61 59 58 55 60 57 53 49 51 51 40 47 48 54 53 57 59
61 61 61 61 61 61 60 60 59 60 59 59 58 58 57 57 58 55 56 58 51 48 54 48 47 47 52 59 59 56 58 54 55 57 49 52 43 40 50 56 58 58 52 53 57 59 56
60 61 61 61 60 60 59 59 59 59 59 59 58 58 56 56 56 56 57 53 50 52 43 52 53 51 55 51 45 51 56 49 49 46 53 45 40 48 58 57 56 55 52 50 54 57 56
60 60 60 60 60 59 59 59 59 58 58 58 58 57 57 56 55 58 55 51 59 58 40 45 49 49 48 50 47 46 55 52 47 50 48 43 46 49 50 52 50 53 51 51 49 52 56
60 60 60 60 59 59 58 58 58 58 57 57 57 57 57 56 55 56 52 57 59 57 34 36 43 48 51 52 45 52 52 48 48 48 50 46 50 45 46 48 52 47 57 55 49 46 43
59 59 59 59 59 58 58 57 57 58 57 56 56 57 56 58 57 52 52 57 56 53 26 37 42 54 53 45 46 45 53 49 46 42 47 37 45 45 44 48 55 47 56 53 51 48 46
59 59 59 59 58 58 57 57 57 57 56 56 56 57 57 59 59 56 59 58 53 32 25 35 43 43 42 45 45 47 48 53 53 43 41 37 45 44 44 46 53 54 51 50 50 46 36
58 58 58 58 58 57 57 56 56 56 57 56 56 56 56 60 53 60 58 48 33 30 36 34 37 42 44 41 42 45 44 42 38 33 33 34 35 41 44 40 46 48 46 33 31 32 36
58 58 58 58 58 57 56 56 56 56 56 55 55 54 59 60 61 59 54 43 31 35 34 39 42 46 41 48 43 46 45 39 48 44 36 33 31 34 41 40 37 43 44 38 31 36 40
58 57 58 58 57 57 56 56 56 56 56 55 55 62 58 62 60 58 50 32 32 34 37 42 46 43 43 47 44 47 47 45 47 47 37 37 33 40 44 48 45 37 35 48 39 41 40
57 57 57 57 57 56 56 56 55 55 55 55 57 58 58 61 60 56 44 35 40 45 49 50 41 44 41 44 45 47 46 48 47 51 54 47 34 43 47 51 51 48 52 39 37 30 33
56 57 57 57 56 56 55 55 55 55 55 55 56 54 59 61 58 53 34 38 46 53 51 47 45 45 46 44 47 45 45 48 52 51 56 52 45 40 46 43 44 44 42 43 44 42 37
56 56 56 56 56 55 55 55 55 55 55 55 54 48 60 62 47 48 40 42 47 51 54 51 51 49 48 48 46 46 46 49 55 55 49 51 45 36 40 47 50 50 47 48 39 38 39
56 56 56 56 55 55 55 54 54 55 54 49 52 54 62 59 42 44 49 49 50 50 50 50 48 51 51 48 42 47 48 51 54 53 51 52 42 32 35 42 47 42 46 47 45 41 33
56 55 55 55 55 55 54 54 54 54 54 53 52 45 53 59 55 50 48 47 47 52 51 52 50 52 50 47 50 45 47 50 52 53 49 53 46 41 38 39 44 37 43 45 37 33 40
55 55 55 55 55 55 54 54 54 54 54 54 53 47 45 46 50 50 50 49 47 46 52 53 50 50 49 45 46 45 48 49 51 49 53 52 41 43 43 43 43 41 41 42 33 39 35
55 55 55 55 55 55 54 54 53 53 53 55 43 41 47 47 50 49 46 48 46 48 48 48 48 51 52 48 49 45 48 49 49 51 50 50 35 36 34 41 41 37 42 43 41 41 42
55 55 55 55 54 54 54 53 53 53 54 52 52 51 44 47 49 48 50 49 48 49 50 52 52 51 49 50 53 54 56 55 54 50 47 47 39 36 35 39 39 34 40 42 43 45 44
55 55 54 54 54 54 54 53 53 53 52 51 46 44 41 42 46 48 46 47 48 50 47 52 52 51 52 57 58 57 56 54 53 51 53 46 42 39 36 37 28 42 49 49 45 47 49
55 55 55 55 54 54 53 53 53 53 52 52 50 42 42 37 45 45 47 47 50 51 49 50 52 55 58 54 47 43 43 44 45 49 49 51 46 37 33 36 43 47 45 44 43 45 51
55 55 54 54 53 53 53 53 53 53 52 53 51 51 43 39 43 45 43 47 44 47 48 50 53 56 54 50 45 36 34 39 37 40 47 47 47 40 34 29 31 44 50 54 53 41 53
55 55 54 54 53 53 53 53 53 53 53 51 51 51 45 39 47 46 43 41 48 47 45 50 50 49 53 46 40 37 38 45 36 37 38 39 39 35 35 32 41 52 52 53 38 41 54
55 54 54 54 54 53 53 53 53 53 53 51 50 52 46 42 44 47 48 44 43 45 43 48 47 48 47 41 41 40 41 44 42 46 42 39 37 35 37 31 30 53 49 45 49 55 55
54 54 54 54 53 52 52 52 52 53 52 52 45 52 52 41 43 49 48 50 49 46 40 48 48 50 52 47 48 47 43 44 44 37 49 39 46 43 42 43 53 55 54 57 56 54 55

GFSGBSN_sfc_temp_066.txt.gz
Temp
64 64 63 63 63 63 63 62 61 62 62 62 62 61 61 60 60 60 60 60 61 61 61 60 59 60 57 49 50 68 67 71 69 65 63 61 59 57 51 56 59 55 60 64 66 63 62
64 64 63 63 63 63 62 62 62 61 62 62 61 61 60 60 59 60 60 59 60 60 60 59 59 59 52 41 66 70 67 66 64 62 61 63 61 63 57 57 56 60 61 63 64 61 62
63 63 63 63 63 62 61 62 61 61 61 61 61 61 60 60 59 60 60 60 60 60 60 60 60 58 50 49 68 66 62 60 63 62 59 66 66 62 59 56 61 61 54 58 60 60 59
63 63 63 62 62 62 61 61 61 61 61 61 61 60 60 60 59 58 59 59 59 59 59 60 59 56 44 64 66 64 63 58 61 60 62 69 67 61 60 60 56 51 53 46 57 60 60
62 62 62 62 62 62 61 61 60 60 61 61 60 60 59 58 59 58 58 59 59 59 60 60 55 51 45 66 57 63 64 55 59 61 61 67 64 55 57 48 45 48 40 44 50 59 59
62 62 61 61 61 61 61 60 60 60 60 60 60 59 58 58 58 57 58 58 59 57 58 62 58 45 52 51 60 61 59 56 54 56 54 55 52 47 48 44 35 40 41 46 48 55 57
61 61 61 61 61 60 60 60 59 59 59 59 59 58 57 57 57 56 56 55 49 47 53 47 47 47 52 56 63 57 56 53 52 50 44 50 42 39 44 48 51 52 47 45 52 58 53
61 61 61 61 60 60 59 59 59 59 59 59 58 58 58 57 57 57 57 51 49 51 42 53 53 52 54 52 46 51 55 46 46 39 47 44 39 49 53 52 51 51 48 46 53 56 53
60 60 60 60 60 59 59 58 58 59 59 58 58 58 58 57 57 58 53 51 58 57 38 45 49 48 46 46 44 46 51 48 44 40 45 41 45 52 51 49 48 49 46 47 46 50 52
60 60 60 60 59 59 58 58 58 58 58 57 57 57 58 57 52 56 51 56 58 56 33 36 43 46 47 45 43 51 52 47 46 45 47 45 50 47 45 44 50 43 54 54 48 43 36
59 59 59 59 59 58 58 58 57 57 57 57 57 57 57 57 54 51 53 58 58 51 21 41 42 54 52 45 45 46 53 48 44 46 46 36 43 43 39 41 51 46 54 50 47 42 40
59 59 59 59 58 58 57 57 57 57 57 56 56 57 56 58 56 57 58 57 51 31 23 35 43 42 42 45 45 48 48 51 54 46 41 38 45 45 42 45 47 54 48 47 43 41 29
58 58 58 58 58 58 57 57 57 57 56 56 56 56 54 58 52 59 56 48 33 27 37 35 38 43 41 40 41 44 42 42 39 33 32 36 35 40 45 38 44 48 40 29 27 28 26
58 58 58 58 58 57 57 57 56 56 56 55 55 55 58 60 60 57 51 39 28 36 33 43 43 48 42 46 43 43 41 38 45 41 35 33 29 36 42 41 38 40 39 28 24 25 28
58 57 57 57 58 57 57 56 56 56 56 55 55 58 56 60 60 56 45 32 32 33 38 42 46 42 43 46 45 46 45 41 42 44 35 33 32 39 41 44 45 37 34 42 32 33 26
57 57 57 57 57 57 56 56 56 56 56 56 53 55 56 61 60 51 40 36 38 46 49 49 40 45 41 44 44 45 45 48 46 49 50 42 32 38 40 44 44 41 46 33 29 22 25
56 57 57 57 56 56 56 55 56 56 55 56 52 50 56 61 56 48 33 38 46 54 52 47 45 45 45 43 46 44 44 48 52 50 52 48 41 36 42 38 37 36 35 39 37 34 23
56 57 56 56 56 56 55 55 55 55 55 55 51 44 57 59 44 45 38 42 47 51 54 51 50 49 47 46 45 44 43 46 53 53 45 48 40 33 38 45 47 45 43 43 28 31 28
56 56 56 56 55 55 55 55 55 55 55 49 47 50 58 56 40 41 47 49 50 50 50 50 48 50 50 46 41 45 45 50 52 50 45 47 35 26 30 36 42 37 43 44 39 35 29
56 56 56 55 55 55 55 54 54 55 55 50 48 41 48 54 52 47 47 47 47 50 51 52 51 51 48 45 48 43 44 49 50 50 50 49 41 35 27 33 37 32 39 41 33 24 31
55 56 55 55 55 55 55 54 54 54 54 50 49 45 45 39 47 47 49 49 46 46 51 52 49 49 48 42 44 44 46 46 49 49 48 46 35 36 39 42 41 38 38 39 30 34 26
55 56 55 55 55 55 54 54 54 54 54 51 42 39 44 42 48 47 46 47 46 48 47 47 46 50 49 45 46 44 46 45 44 46 44 45 31 31 27 39 38 33 39 40 38 38 36
56 55 55 55 55 55 54 54 53 53 54 47 47 49 43 42 46 44 45 47 47 49 50 51 50 48 47 48 50 50 51 51 48 45 42 42 33 28 26 35 35 27 35 38 39 40 39
56 55 55 55 55 54 54 53 53 53 52 49 45 43 40 37 42 44 45 46 45 48 45 51 51 47 48 53 51 51 48 48 48 45 48 41 38 32 25 29 17 38 45 45 42 44 44
56 56 55 55 55 54 53 53 53 53 53 48 48 43 39 34 41 42 44 44 48 49 46 48 51 51 53 48 43 41 40 42 43 45 45 45 42 30 25 27 36 39 42 41 40 40 48
56 56 55 55 54 54 53 53 53 53 53 49 48 48 42 35 39 45 40 43 40 42 45 48 50 52 48 44 42 34 30 37 36 36 43 44 42 34 31 25 24 39 46 50 47 38 48
56 56 55 55 54 54 53 53 53 53 53 48 47 49 42 35 42 44 39 38 44 43 41 45 45 44 48 39 35 33 35 41 34 35 33 36 35 29 30 30 34 45 48 48 35 37 48
56 55 55 55 54 54 53 53 53 53 53 49 46 49 42 38 40 45 45 40 41 41 38 42 43 44 41 38 37 37 37 40 36 39 38 36 31 30 33 29 24 47 45 40 45 49 50
55 55 55 54 54 54 53 53 52 53 53 52 43 50 50 39 39 46 46 47 46 45 37 39 40 43 45 39 40 40 37 37 37 35 42 35 39 35 36 34 47 49 47 50 50 50 48

GFSGBSN_sfc_temp_069.txt.gz
Temp
64 64 63 63 64 63 63 63 62 62 63 63 62 62 62 62 61 59 60 60 59 60 60 60 59 60 56 46 47 66 69 70 68 64 59 57 53 51 46 51 55 52 56 61 63 61 60
64 64 63 63 63 63 62 62 62 62 61 62 62 62 61 61 60 59 60 60 61 60 60 60 59 59 50 39 61 66 65 67 65 61 59 58 55 56 51 52 51 56 57 59 61 59 59
63 63 63 63 63 62 62 61 61 61 61 62 62 61 60 60 60 58 60 60 60 60 60 60 60 57 48 46 61 62 62 60 62 59 56 60 61 56 56 50 57 55 52 54 55 57 56
63 63 62 63 62 62 61 61 60 60 61 61 61 60 59 60 59 58 59 60 59 59 59 60 60 53 42 60 58 59 60 59 62 60 58 62 62 57 56 55 52 50 50 42 52 56 57
62 62 62 62 62 61 61 61 60 60 60 60 60 60 59 59 59 58 58 59 59 59 60 60 53 49 41 63 54 58 57 57 59 59 58 64 59 51 55 45 40 44 38 40 48 56 55
62 62 62 62 61 61 61 60 60 59 60 60 59 59 59 58 58 58 58 58 59 57 58 59 58 43 50 48 56 58 57 57 54 53 52 53 52 44 45 41 33 38 36 39 42 51 53
61 61 61 61 61 61 60 60 60 60 59 59 58 58 58 59 58 58 54 49 44 42 49 45 46 45 50 53 59 53 56 53 52 50 44 48 42 38 43 45 46 44 42 41 47 54 51
61 61 61 61 60 60 60 59 59 59 59 58 58 58 58 58 58 59 52 45 46 47 39 51 51 50 51 50 45 49 55 46 45 40 45 43 38 44 49 48 46 45 39 40 46 53 51
60 60 60 60 60 60 59 59 59 59 59 58 57 57 58 58 58 52 48 47 53 53 38 43 47 46 46 49 44 44 51 47 44 42 41 39 43 50 48 45 43 44 39 39 42 45 48
60 60 60 60 60 59 59 58 58 58 58 57 57 57 57 57 50 49 46 53 54 52 32 37 42 44 47 47 40 51 53 47 44 40 43 42 48 47 44 44 45 38 49 49 45 40 33
59 59 59 59 59 59 58 58 58 58 57 57 57 57 57 57 46 46 50 53 52 48 22 38 41 53 51 45 45 45 53 48 42 42 44 37 43 41 39 42 45 42 52 50 43 39 36
59 59 58 59 59 58 58 58 57 57 57 56 56 56 56 52 51 54 56 55 47 25 21 34 42 43 43 46 45 48 47 49 53 43 42 39 46 43 41 43 44 47 47 46 41 38 26
58 58 58 58 58 58 58 57 57 57 57 56 56 56 53 55 46 56 55 43 28 22 37 34 38 43 41 39 43 45 43 42 38 31 32 35 36 42 45 38 43 43 38 28 27 23 23
58 58 58 58 58 58 57 57 57 57 56 56 56 56 54 56 53 54 49 36 23 35 33 41 41 44 40 44 41 42 42 38 41 37 34 27 25 38 42 41 36 36 37 26 21 21 25
57 57 57 57 57 57 57 57 57 56 56 55 55 49 49 52 55 50 42 27 29 32 37 41 44 39 39 44 42 41 40 39 42 39 33 30 30 40 42 45 42 37 34 41 31 30 23
57 57 57 57 57 57 57 56 56 56 56 55 44 45 48 55 53 45 34 30 33 43 46 46 38 42 37 40 40 40 39 42 42 44 44 39 30 39 41 44 44 40 45 34 29 23 24
57 57 57 57 56 56 56 56 56 56 56 56 44 42 51 54 49 39 31 30 43 52 49 43 40 44 41 39 41 40 40 44 49 45 46 43 38 35 38 36 36 37 35 37 38 31 22
56 56 56 56 56 55 56 55 56 56 55 48 42 37 52 51 38 35 29 38 47 47 49 47 46 44 42 42 40 39 39 43 50 48 43 45 36 30 36 43 47 44 39 40 28 30 27
56 56 56 56 55 55 55 55 55 55 55 45 38 40 51 50 32 31 42 45 47 46 46 46 45 47 45 41 36 41 41 48 50 47 42 44 33 24 28 35 40 36 41 42 39 33 26
56 56 56 55 55 55 55 54 54 55 55 43 39 34 39 43 43 39 39 42 42 47 46 48 46 47 44 41 43 39 40 46 47 47 50 47 37 32 24 30 34 30 37 40 34 26 31
55 55 56 55 55 55 54 54 54 54 54 44 38 35 37 31 37 39 41 42 42 42 46 48 44 45 43 38 40 40 41 42 46 48 45 43 32 34 38 40 38 35 36 36 29 34 26
56 55 55 55 55 55 54 54 54 54 54 41 34 33 36 34 39 39 40 40 45 44 43 42 41 45 45 40 41 40 42 40 40 43 41 41 27 28 24 38 37 33 37 37 36 36 36
56 55 55 55 55 55 54 53 54 54 50 37 38 39 36 35 35 35 39 41 43 44 47 48 45 42 43 44 45 44 45 45 44 41 39 38 30 25 23 33 32 25 34 37 36 38 40
56 56 55 55 54 54 54 53 53 53 50 39 38 37 32 30 33 36 39 41 42 44 43 47 47 41 46 50 49 46 44 45 45 42 44 36 33 27 22 27 16 35 42 42 40 41 41
56 56 56 55 55 54 53 53 53 53 53 40 40 36 32 27 33 35 38 38 40 44 43 45 47 48 48 44 38 39 39 40 42 41 41 42 40 26 24 23 31 35 40 39 36 37 43
56 56 56 55 54 54 53 53 53 53 53 41 40 41 35 32 29 37 35 36 32 34 40 46 48 48 46 41 40 31 29 33 34 37 40 41 42 31 30 22 23 38 42 47 45 34 44
57 56 56 55 55 54 53 53 53 53 53 43 40 43 36 30 34 36 32 32 38 37 35 41 44 42 45 37 35 29 32 39 30 33 33 33 35 30 27 27 32 44 45 46 33 35 45
56 56 55 55 55 54 54 53 53 52 52 44 40 45 38 31 34 40 41 34 34 34 32 38 39 41 39 35 34 34 34 39 33 35 33 32 33 28 29 28 23 44 43 39 44 46 47
55 55 55 54 54 54 54 53 53 53 52 51 41 49 48 38 34 42 44 44 42 40 35 36 37 37 43 38 36 36 34 33 32 29 37 31 36 33 33 33 43 45 44 47 48 50 48

GFSGBSN_sfc_temp_072.txt.gz
Temp
64 64 63 64 64 63 63 62 62 61 62 62 62 62 61 61 61 60 60 60 60 60 60 60 60 60 55 45 47 62 67 68 70 64 59 55 49 53 46 48 52 50 56 60 61 58 56
64 64 63 63 63 62 62 61 61 61 62 61 62 61 60 60 60 59 60 60 60 60 60 60 60 59 49 39 60 63 64 65 64 61 58 55 52 53 48 51 50 54 56 57 59 59 60
63 63 63 63 62 62 62 62 61 61 61 61 61 61 60 60 60 59 60 60 60 60 60 60 60 57 47 44 59 61 61 60 61 61 55 57 58 54 51 47 54 53 50 52 55 56 57
62 63 63 62 62 62 61 61 61 60 61 60 60 60 60 59 59 59 59 59 59 59 59 60 60 52 40 58 56 59 60 59 61 60 59 60 58 54 51 53 49 47 47 42 53 55 58
62 62 62 62 62 61 61 60 60 60 60 60 60 59 59 59 59 58 59 59 59 59 60 60 51 46 40 61 54 57 58 56 58 59 57 61 56 50 51 44 39 42 36 40 47 56 54
61 62 61 61 61 61 61 60 60 60 60 59 59 58 59 59 59 59 59 59 59 57 57 58 56 41 48 47 54 55 56 58 54 53 50 52 50 42 41 38 32 35 35 38 40 50 52
61 61 61 61 61 61 60 60 60 59 59 58 58 58 58 59 59 59 53 48 43 41 47 43 44 44 49 52 56 51 55 53 53 50 44 48 42 37 39 43 43 42 39 40 45 52 49
60 61 60 60 60 60 60 59 59 59 59 58 58 58 58 58 58 59 50 43 44 46 38 48 49 49 50 50 45 48 55 46 46 40 45 43 39 44 47 47 45 42 38 38 44 51 47
60 60 60 60 60 60 59 59 59 59 58 58 57 57 57 58 58 51 46 46 52 51 38 42 47 46 47 48 43 43 49 48 44 38 41 40 44 49 47 43 42 40 37 37 40 43 45
59 59 59 59 60 59 59 58 58 58 58 57 57 57 57 57 50 47 44 52 52 50 29 36 40 45 48 46 42 51 52 47 43 36 41 42 47 46 43 42 43 39 45 46 43 38 32
59 59 59 59 59 59 58 58 58 58 57 57 57 57 57 57 46 45 50 52 50 45 21 38 42 53 51 44 45 45 52 49 41 40 42 37 43 42 40 42 46 42 46 45 41 38 35
58 58 58 58 58 58 58 58 58 57 57 56 56 57 56 51 48 53 56 51 45 25 21 34 43 44 43 46 45 47 46 49 50 43 42 40 45 42 40 42 43 45 43 42 39 37 26
58 58 58 58 58 58 57 57 57 57 57 56 56 56 53 54 45 53 53 42 25 22 36 36 38 43 42 41 43 42 39 41 37 32 33 36 37 41 43 38 43 42 35 28 28 28 25
57 57 57 57 58 57 57 57 57 57 56 56 56 56 53 54 52 52 47 32 22 32 32 39 41 43 38 43 41 42 40 35 40 38 33 30 30 38 42 38 36 36 37 25 22 22 24
57 57 57 57 57 57 57 57 57 57 56 55 54 47 47 51 53 49 38 24 25 27 35 37 41 37 39 42 41 40 40 37 38 38 32 31 31 41 42 43 43 36 33 39 27 25 20
57 57 57 57 57 56 56 56 56 56 56 55 43 44 46 53 51 44 33 29 33 41 42 42 34 39 33 39 38 36 37 43 40 43 41 36 30 39 42 44 43 40 43 30 24 18 20
56 56 56 56 56 56 56 56 56 56 56 54 43 42 49 52 48 38 27 26 40 48 47 41 38 39 38 37 39 36 38 42 46 45 43 40 34 34 39 36 38 37 35 35 35 29 21
56 56 56 56 55 55 55 55 56 56 55 48 40 36 49 49 37 33 28 37 46 45 47 45 43 41 38 39 37 36 38 40 47 47 40 44 34 31 35 44 45 43 38 37 27 27 24
56 56 56 55 55 55 55 55 55 56 55 41 37 38 48 47 30 30 39 43 45 44 44 44 43 45 43 39 34 38 39 46 47 45 41 43 30 27 30 35 41 35 39 41 36 29 19
56 55 55 55 55 55 54 54 55 55 55 43 37 32 37 40 40 36 36 39 44 46 45 47 44 45 41 39 41 37 38 44 46 46 50 47 35 29 26 29 33 29 35 38 36 28 27
56 55 55 55 55 55 54 54 54 55 55 43 36 33 35 27 34 35 37 40 40 40 46 45 42 42 40 36 37 37 39 40 44 48 43 41 32 34 35 37 36 34 35 35 30 35 30
56 55 55 55 55 55 54 54 54 54 53 38 33 32 34 31 35 35 38 37 40 43 43 41 40 43 41 38 43 37 40 38 38 39 38 39 26 27 24 36 35 31 36 35 35 35 35
56 56 55 55 54 54 53 53 53 53 48 35 35 37 35 34 32 31 34 36 39 42 44 49 44 40 40 43 45 47 46 44 42 40 37 36 29 24 23 32 31 27 34 36 35 37 39
56 56 55 55 54 54 53 53 53 53 47 38 36 35 30 30 30 33 35 37 38 39 38 46 47 41 45 47 46 45 43 43 42 40 41 34 31 26 21 26 14 34 41 40 39 40 39
56 56 55 55 55 54 53 53 53 53 52 39 38 34 31 26 29 32 34 35 37 38 38 42 47 48 47 44 38 36 38 38 39 41 39 39 34 26 23 22 29 34 38 37 35 36 42
57 56 56 55 55 54 53 53 53 53 52 40 38 39 33 28 28 34 31 33 29 32 38 40 46 47 44 40 37 30 28 30 33 37 39 40 42 32 28 21 21 34 39 43 42 31 42
56 56 56 55 55 54 53 53 52 52 52 42 39 41 34 28 32 34 30 30 34 32 30 36 40 42 45 36 34 29 28 36 29 32 33 34 34 30 28 28 29 40 43 45 30 34 43
56 56 55 55 55 54 54 53 53 52 52 43 39 41 37 30 32 37 39 33 32 32 27 34 37 40 40 35 34 34 30 34 31 33 31 31 31 30 31 28 23 43 42 37 42 43 43
56 56 55 54 54 54 54 54 53 53 52 51 41 46 47 38 37 40 41 42 41 41 33 33 33 35 36 36 36 35 32 31 31 27 33 32 35 32 33 32 42 44 43 46 46 47 48

GFSGBSN_sfc_temp_075.txt.gz
Temp
64 64 63 63 63 63 62 62 61 61 62 62 62 61 61 61 61 60 60 60 60 60 60 60 60 60 55 46 45 62 65 66 66 63 57 53 48 48 45 50 52 45 53 58 54 54 54
63 63 63 63 63 62 62 62 62 61 61 61 61 61 60 60 60 59 60 60 60 60 60 60 60 59 48 36 58 61 60 62 63 60 57 54 51 52 49 47 50 51 54 54 54 54 57
63 63 63 63 62 62 61 61 61 61 61 61 60 61 60 60 60 59 60 60 60 60 60 60 60 56 46 44 59 58 61 58 60 60 55 57 55 53 49 48 51 51 49 50 54 55 53
62 63 62 62 62 61 61 60 60 61 61 60 60 60 60 60 59 59 59 59 59 59 59 60 60 50 39 57 55 58 59 59 61 60 59 58 57 52 49 49 47 45 45 40 52 55 55
62 62 62 62 62 62 61 60 60 60 60 60 59 59 59 59 59 59 59 59 59 60 60 60 49 44 39 60 53 56 56 55 58 57 58 61 56 49 49 41 38 40 33 39 46 55 54
61 61 61 61 61 61 61 60 60 60 60 59 58 59 58 59 59 59 59 59 59 56 56 57 54 40 48 46 52 55 56 58 54 52 52 52 49 41 40 38 33 33 32 39 42 49 52
60 61 61 61 61 61 61 60 60 59 59 59 59 58 58 58 58 59 52 48 43 41 46 40 42 43 47 51 54 51 54 54 53 50 41 47 41 37 37 43 41 40 36 38 44 51 49
60 60 60 60 60 60 60 59 59 59 59 59 58 58 58 58 58 58 48 43 45 46 38 48 48 47 50 49 44 48 54 47 46 40 44 42 37 43 46 46 43 41 37 35 44 49 48
59 60 60 60 59 60 59 59 59 59 58 58 57 57 58 57 57 50 45 45 50 50 39 43 47 46 47 48 44 43 49 48 43 39 39 37 43 48 46 43 40 37 34 35 39 44 45
59 59 59 59 59 59 59 58 58 58 58 57 57 57 57 57 49 46 44 50 50 49 31 36 42 45 48 47 41 50 51 48 43 38 39 42 48 45 42 40 41 34 43 43 41 38 32
58 58 58 58 58 58 58 58 58 58 57 57 57 57 57 56 45 44 49 51 49 45 17 38 42 52 50 43 43 44 51 49 41 40 39 36 42 40 40 41 45 39 44 43 41 36 33
58 58 58 58 58 58 58 58 58 58 57 57 56 56 56 50 47 50 55 50 44 25 17 34 43 43 42 45 44 45 47 50 49 41 42 40 44 42 40 43 45 45 42 41 37 34 24
57 58 57 57 58 57 57 58 57 57 57 56 56 56 52 52 45 53 53 41 25 21 35 33 38 42 42 41 42 42 40 40 37 32 32 37 38 43 43 38 44 42 36 29 26 26 24
57 57 57 57 57 57 57 57 57 57 57 56 56 55 53 52 50 52 48 31 21 31 29 39 41 42 38 43 41 41 40 37 40 38 34 30 30 38 41 37 37 36 35 26 21 22 24
57 57 57 57 57 57 57 57 57 57 56 55 54 46 46 49 51 48 38 24 24 25 34 36 39 35 37 42 40 41 40 37 40 39 31 28 29 41 43 42 40 35 34 36 26 23 19
57 56 56 56 56 56 56 56 56 56 56 55 43 43 45 50 50 42 32 29 33 40 41 40 32 37 31 36 37 37 36 40 39 42 41 35 28 39 42 45 43 40 41 31 25 20 18
57 56 56 56 56 55 55 56 56 56 56 53 43 41 48 50 47 37 28 27 38 46 45 40 36 36 36 36 38 34 36 41 44 41 42 38 34 34 40 37 37 37 36 36 34 27 22
57 56 56 55 55 55 55 55 56 56 56 47 39 35 48 48 36 31 28 36 45 44 45 43 41 40 37 37 35 35 35 40 47 44 38 40 34 30 35 41 43 42 39 38 25 25 22
56 56 55 55 55 54 55 55 55 56 55 41 37 38 46 45 29 29 37 41 43 42 42 42 41 43 41 38 33 37 38 45 47 45 42 43 33 28 30 35 41 36 40 41 35 29 19
56 56 55 55 55 54 54 54 55 55 55 42 37 31 36 39 37 33 35 37 40 44 44 45 43 43 39 37 40 36 37 43 46 46 50 47 34 32 28 31 33 32 35 39 36 24 25
56 56 55 55 54 54 54 54 54 54 53 42 34 31 32 26 32 34 35 37 37 38 44 44 40 41 37 33 35 35 38 38 43 48 43 42 32 32 33 35 34 33 33 35 33 36 29
56 56 55 55 54 54 53 53 54 54 52 37 33 32 32 30 33 31 35 34 37 38 40 39 38 41 39 36 39 36 38 36 37 38 38 37 27 27 24 35 34 31 35 34 35 36 36
56 56 55 55 54 54 53 53 53 53 47 34 33 35 33 33 30 28 31 33 36 38 42 45 44 41 37 41 44 47 44 43 40 38 36 35 29 24 22 31 31 25 34 35 35 37 37
56 55 55 55 54 53 53 53 53 53 46 37 35 34 30 31 30 32 34 34 35 37 35 40 42 41 44 47 45 46 42 41 40 39 40 32 30 26 21 26 16 33 39 39 38 42 40
56 56 55 55 54 54 53 53 53 53 50 39 36 34 30 27 30 31 32 33 34 35 34 37 41 44 48 44 38 37 35 36 38 39 37 37 33 27 23 22 28 35 35 35 34 36 42
56 56 55 55 54 54 53 52 52 52 51 39 37 37 32 27 28 32 30 30 28 28 33 39 45 44 43 41 36 29 26 29 29 32 36 37 38 32 23 21 20 33 38 41 39 30 41
56 56 56 55 55 54 53 53 52 52 51 41 37 39 34 27 30 31 28 28 33 29 27 31 35 36 44 37 33 30 28 34 27 28 29 33 33 29 28 28 28 38 41 42 28 32 42
56 56 55 55 55 54 53 53 53 52 52 43 38 40 36 35 35 37 36 33 31 30 26 31 32 36 37 34 33 34 30 32 29 31 30 29 31 29 29 27 24 41 40 36 40 41 42
56 55 55 55 54 54 54 54 53 53 52 49 37 43 46 38 37 41 43 45 42 39 35 35 30 32 34 31 30 30 32 31 29 25 31 29 33 30 31 31 41 41 42 44 45 44 44

GFSGBSN_sfc_temp_078.txt.gz
Temp
63 64 63 64 63 62 62 62 62 60 61 62 62 61 61 61 60 60 60 60 61 60 60 60 60 60 53 43 44 61 65 63 63 62 56 52 48 47 48 51 50 50 54 55 53 54 54
63 63 63 63 62 62 62 61 61 61 61 61 61 61 61 60 60 60 60 60 60 60 60 60 60 59 47 36 56 60 60 61 59 59 55 55 50 51 48 51 50 51 55 52 52 54 54
62 63 63 62 62 62 61 61 61 61 60 60 61 60 60 60 60 59 60 60 59 59 59 60 60 55 44 43 57 60 59 58 58 59 55 56 55 51 49 46 54 54 47 47 48 51 51
62 62 62 62 62 62 61 61 60 60 60 60 60 59 59 59 59 59 59 59 59 59 59 60 59 49 39 56 54 57 59 59 59 58 60 58 57 51 49 48 48 47 48 40 46 50 51
61 62 61 61 61 62 61 61 60 60 60 59 59 59 59 59 59 59 59 59 59 59 59 59 49 43 38 60 52 55 55 55 57 56 57 61 55 48 50 41 38 42 37 39 41 51 49
61 61 61 61 61 61 61 60 60 60 60 59 58 59 58 58 58 59 59 59 58 56 56 56 53 39 46 44 51 53 56 58 54 52 51 51 47 40 42 38 34 37 37 39 37 47 48
60 60 60 60 60 60 60 60 60 59 59 59 58 58 58 58 58 58 52 47 42 40 45 40 41 41 46 50 53 50 54 54 52 50 42 45 40 35 36 41 40 39 37 36 41 49 47
60 60 60 60 60 60 60 60 59 59 59 58 58 57 57 58 58 57 48 42 42 44 36 47 47 46 49 48 43 47 54 47 44 40 43 40 37 41 46 45 42 40 36 33 40 48 46
59 59 59 59 59 59 59 59 59 59 59 58 58 57 57 57 57 50 44 44 49 47 37 44 47 45 45 48 43 43 49 47 42 38 38 36 42 46 45 43 40 36 34 34 36 42 43
59 59 59 59 59 59 59 59 59 59 58 57 57 57 57 57 49 45 43 49 49 48 25 36 42 44 48 46 40 50 51 46 42 38 38 40 47 44 42 40 41 33 41 42 41 38 33
59 59 59 58 58 58 58 58 58 58 58 57 57 57 57 56 45 43 48 50 47 44 15 39 43 52 50 41 42 44 51 49 40 39 39 36 42 39 38 41 44 38 43 41 39 34 33
59 58 58 58 58 58 58 58 58 58 57 57 56 56 56 49 46 49 53 49 44 25 16 35 43 43 41 43 42 46 47 50 49 42 42 40 45 41 39 42 45 46 41 38 35 32 28
58 58 57 57 57 57 57 57 57 57 57 56 56 56 52 51 44 53 52 41 24 19 34 33 37 41 41 39 39 42 41 38 35 29 33 37 39 42 43 38 42 42 37 24 22 27 25
58 58 57 57 57 57 57 57 57 57 57 56 55 55 53 51 49 53 48 30 21 31 30 40 41 43 38 42 41 41 40 35 40 38 35 32 30 38 42 37 37 36 36 25 20 21 23
58 57 57 56 57 57 57 57 57 57 56 55 54 45 45 48 50 50 38 22 25 26 33 35 37 37 38 42 41 40 40 36 37 38 31 29 30 41 44 41 40 35 31 36 29 22 18
58 57 56 56 56 56 56 56 56 56 56 54 43 43 44 49 48 43 31 30 30 39 40 38 32 35 31 35 35 36 38 40 39 41 40 35 27 40 40 45 42 39 39 30 29 20 19
57 57 56 56 55 55 55 56 56 56 56 53 43 40 46 49 46 36 26 25 37 44 43 38 34 34 33 33 36 34 35 39 42 40 42 37 33 34 40 36 36 37 35 34 32 27 20
57 57 56 55 55 55 55 55 56 56 55 47 39 35 46 46 34 30 27 35 45 42 42 41 39 38 35 38 37 32 34 40 45 43 37 41 32 26 33 39 44 43 39 38 30 26 23
57 57 56 55 54 54 54 55 55 55 53 41 37 37 45 44 28 27 36 40 41 41 41 41 40 42 41 37 36 36 37 44 46 43 40 40 30 25 30 36 40 36 39 40 36 31 19
57 57 56 55 54 54 54 54 54 55 53 41 36 32 35 37 35 32 32 35 38 43 42 44 41 41 38 36 39 35 36 42 45 44 50 47 34 30 25 29 33 33 35 39 36 31 32
57 56 56 55 54 54 54 54 54 54 53 41 33 31 32 26 32 30 32 34 35 36 41 42 39 39 37 31 34 34 37 37 41 46 44 43 31 33 35 36 34 33 34 36 33 36 30
56 56 55 55 54 54 53 53 54 53 51 36 33 32 29 29 31 29 33 32 34 36 37 37 36 39 38 35 37 34 37 35 36 36 38 40 31 29 25 34 33 31 33 34 35 36 37
56 56 55 55 54 53 53 53 53 53 47 34 32 34 33 32 29 28 30 32 34 36 39 41 40 38 35 40 44 46 46 42 39 37 34 33 31 26 23 30 30 24 33 34 34 36 38
56 56 55 55 54 53 53 53 53 52 45 36 34 33 31 31 30 32 32 32 32 34 33 38 40 38 42 47 47 44 43 41 38 39 39 32 30 28 22 25 17 32 38 38 37 40 39
56 56 55 55 54 53 53 53 53 52 50 37 35 33 30 28 30 31 31 31 32 33 32 35 39 40 41 41 35 34 35 36 36 37 35 38 33 30 26 23 27 35 33 34 33 35 40
56 55 55 55 54 53 53 52 52 52 50 38 36 36 31 28 28 31 28 28 27 25 28 34 40 44 39 36 35 30 27 30 29 30 33 36 38 35 25 23 19 31 36 40 38 29 39
56 56 55 55 54 53 53 52 52 52 50 40 36 37 33 28 30 30 27 27 31 28 26 29 32 33 38 34 31 30 29 35 28 27 28 31 32 29 28 27 28 37 40 39 26 32 39
56 55 55 55 54 54 53 53 52 52 50 42 37 39 36 29 31 36 35 31 31 29 29 31 29 34 32 31 32 32 30 33 30 31 29 31 28 29 29 27 24 40 38 34 39 40 40
55 55 55 54 54 54 53 53 53 52 51 46 36 41 43 37 35 39 40 42 40 38 36 35 29 29 31 28 29 29 30 31 31 26 30 29 33 29 31 31 40 40 41 42 42 42 42

GFSGBSN_sfc_temp_081.txt.gz
Temp
63 64 64 64 63 63 62 62 61 62 61 61 61 62 61 61 61 61 61 61 61 61 61 61 60 60 54 45 46 61 64 61 63 61 56 53 51 51 48 50 52 52 53 54 55 55 54
63 63 63 63 63 63 62 62 61 61 61 61 60 60 60 60 60 60 60 60 60 60 60 61 60 59 48 38 57 61 60 60 58 59 55 54 53 55 53 50 51 55 54 52 54 54 54
62 62 63 63 62 62 61 61 61 61 61 60 60 60 60 60 60 60 60 60 60 59 60 60 60 55 46 44 57 58 58 58 58 59 54 57 56 54 54 49 55 54 47 49 51 52 51
62 62 62 62 62 62 62 61 60 60 61 60 60 59 59 59 59 59 60 59 59 59 60 60 59 50 41 57 56 57 57 58 59 61 59 60 59 54 52 52 50 50 47 41 48 51 51
62 62 62 61 61 62 62 61 60 60 60 60 59 59 59 59 59 59 59 59 59 59 60 59 50 45 40 60 52 55 56 54 56 58 59 58 58 50 51 44 42 45 38 40 42 51 49
61 61 61 61 61 61 61 61 60 60 60 60 59 58 58 58 58 58 58 59 59 56 55 56 53 41 47 44 51 54 56 57 51 53 53 50 48 44 44 40 34 37 39 42 40 46 47
61 61 61 60 60 60 61 61 60 60 60 59 59 58 57 58 58 58 51 47 42 41 45 40 41 41 46 50 54 51 54 54 51 50 39 45 40 38 39 45 43 43 43 42 44 50 46
61 61 60 60 60 60 60 60 60 60 60 59 58 57 57 58 58 57 47 42 43 45 38 47 46 46 49 48 43 48 55 46 44 39 43 40 38 42 45 47 44 42 39 39 45 48 48
61 60 60 60 59 59 59 59 59 60 59 58 58 57 57 57 57 49 44 44 49 47 37 45 46 44 45 48 42 44 50 48 42 40 38 35 40 46 45 43 41 39 38 39 40 46 48
60 60 60 59 59 59 59 59 59 59 58 58 57 57 57 57 48 44 43 48 48 47 30 37 42 45 47 46 41 52 51 46 43 38 39 40 46 44 42 41 42 37 44 43 42 40 35
60 60 59 59 58 58 58 58 58 58 58 57 57 57 57 56 44 43 47 51 47 44 20 40 43 51 48 42 43 45 52 49 39 39 39 37 42 40 39 42 45 40 45 42 41 38 38
60 59 59 58 58 58 58 58 58 58 57 57 56 56 55 49 46 49 53 48 44 25 18 36 44 42 41 42 42 47 46 49 50 42 42 40 46 44 42 43 45 46 42 40 37 36 29
59 59 58 58 57 57 57 57 57 57 57 56 56 56 51 50 44 53 52 41 25 20 34 33 38 42 41 38 39 43 41 38 37 31 32 37 39 43 44 39 44 44 37 28 25 27 26
59 59 58 57 57 57 57 57 57 57 57 56 55 55 53 51 50 53 48 33 21 31 30 41 41 43 36 40 39 39 39 34 38 37 35 32 29 40 43 39 37 38 38 28 21 23 26
59 58 57 57 57 57 56 57 57 57 56 55 54 44 44 47 51 51 37 23 25 26 33 35 37 37 36 41 41 40 40 37 38 38 33 32 32 42 44 43 41 37 34 38 30 26 24
59 58 57 57 56 56 56 56 56 56 56 54 42 42 43 48 51 45 30 30 30 38 39 38 32 35 32 37 36 37 35 39 39 41 41 37 29 40 42 45 43 41 41 32 31 22 21
58 58 57 56 55 55 55 55 56 56 56 53 43 40 45 48 49 35 26 26 36 43 42 38 33 33 33 33 37 34 34 39 42 40 42 38 34 34 39 37 36 37 35 35 34 30 25
58 58 57 56 55 54 55 55 56 56 55 48 39 35 44 45 33 29 26 34 43 40 41 40 38 37 34 37 37 32 33 37 43 42 37 40 35 31 35 41 44 43 38 39 32 28 25
58 57 57 55 54 54 54 54 55 55 53 41 38 37 43 42 26 25 34 37 40 39 40 39 38 40 39 35 35 35 36 44 43 42 39 40 33 27 29 36 40 37 40 41 36 34 21
58 57 56 55 54 54 54 54 54 55 53 42 37 32 35 36 33 32 30 33 36 42 40 41 40 40 36 35 40 37 36 42 43 45 49 46 35 31 28 30 33 31 35 38 37 30 32
57 57 56 55 54 54 53 54 54 54 53 42 33 32 31 26 31 30 31 32 32 34 39 40 39 36 37 33 32 34 38 38 41 46 45 42 32 33 34 36 35 34 34 35 32 36 31
57 57 56 55 54 54 53 53 54 53 51 36 35 33 29 28 30 28 32 32 32 34 35 35 35 36 38 34 38 31 36 38 37 38 39 40 32 32 28 36 34 31 34 34 35 37 37
57 56 56 55 54 54 53 53 53 52 48 34 31 33 34 31 27 27 30 32 33 34 37 39 36 33 32 36 41 41 41 40 42 38 35 35 31 29 27 32 31 24 32 35 37 37 38
56 56 56 55 54 53 53 53 53 51 46 36 33 32 32 32 30 31 32 32 32 32 32 36 37 32 37 41 43 43 40 40 38 38 40 33 32 31 28 28 19 34 40 39 37 40 40
56 56 55 55 54 53 53 53 53 52 49 36 34 33 31 29 30 30 30 30 31 31 30 33 36 38 41 37 32 29 33 33 36 37 36 40 34 29 26 24 28 36 35 34 34 36 40
55 56 55 55 54 53 53 53 52 52 49 37 34 35 32 30 28 31 28 27 26 24 26 32 37 38 36 35 32 26 26 28 29 31 34 37 39 33 26 21 20 32 37 40 39 30 41
55 55 55 55 54 53 53 52 52 51 50 39 35 37 33 29 30 30 27 27 30 27 25 28 30 31 35 30 28 24 25 33 28 28 29 31 32 30 28 26 29 38 40 40 29 33 41
55 55 55 54 54 53 53 52 52 51 50 41 35 37 36 30 30 34 35 30 29 28 26 30 28 30 29 28 24 28 29 29 30 31 30 32 29 28 29 27 25 41 38 35 40 41 42
55 55 54 54 54 53 53 53 52 52 50 45 35 40 41 34 34 38 39 40 39 37 36 34 30 27 28 22 23 21 26 29 30 27 34 30 32 29 31 32 40 40 41 43 43 42 43

GFSGBSN_sfc_temp_084.txt.gz
Temp
64 63 64 63 63 63 63 62 62 62 61 61 61 61 61 61 61 61 61 61 61 61 61 61 61 61 60 52 51 58 63 60 66 63 59 58 60 59 54 58 59 57 60 61 59 62 63
63 63 63 63 63 63 63 62 62 61 62 61 61 61 60 61 61 61 60 60 60 60 60 61 61 60 56 45 63 64 62 59 63 60 59 56 61 63 60 58 58 60 61 61 61 60 62
63 63 63 63 63 62 62 62 61 61 61 61 60 60 59 60 60 60 61 60 60 60 60 61 60 60 55 50 64 65 63 61 63 62 57 55 60 60 63 55 62 62 55 57 58 61 59
63 62 62 62 62 62 62 62 61 61 61 61 60 59 59 59 59 60 60 60 60 60 60 61 60 58 49 63 67 63 63 61 65 64 62 58 61 59 59 61 58 56 58 50 58 58 59
63 62 62 62 62 61 62 62 61 61 61 61 60 59 59 58 59 59 59 60 59 60 60 60 58 54 47 64 57 62 62 56 61 63 63 61 60 56 57 53 49 52 47 50 50 59 58
63 62 61 61 61 61 61 62 61 60 60 60 59 58 58 58 58 58 58 59 59 60 60 61 59 50 54 49 55 58 62 60 57 57 54 50 53 51 53 49 41 42 48 50 50 54 56
63 62 61 61 60 61 61 61 61 60 59 59 60 58 58 57 58 58 58 59 54 52 55 47 47 46 50 56 59 56 58 57 56 53 43 44 42 45 50 53 52 53 50 49 53 56 54
62 62 61 60 60 60 60 60 60 60 60 60 59 57 57 57 58 57 57 53 50 53 45 51 51 51 53 53 49 52 60 49 48 42 45 39 39 52 52 53 52 52 50 48 51 55 54
62 62 61 60 60 60 59 59 59 60 59 59 58 57 57 58 57 57 55 52 56 55 47 47 51 49 50 53 46 47 54 49 46 43 44 36 42 52 51 49 48 50 49 49 49 53 55
62 61 61 60 59 59 59 59 59 59 59 58 57 57 57 57 54 55 52 56 57 56 38 41 46 49 52 51 45 55 55 52 46 41 43 43 48 48 49 48 51 44 51 51 49 48 42
62 61 60 60 59 58 58 58 58 59 58 58 57 56 57 55 55 52 54 55 56 54 29 44 47 56 52 48 48 50 57 52 45 43 44 39 42 45 46 48 53 47 51 51 49 48 46
61 61 60 59 58 58 58 58 58 58 58 57 57 56 55 55 56 55 58 57 54 35 27 37 47 46 45 47 48 50 51 55 55 47 44 41 49 50 51 49 51 52 49 49 48 47 36
61 60 60 59 58 57 57 57 57 58 57 57 56 56 55 57 53 56 56 52 35 32 39 36 40 45 44 43 43 46 45 44 42 34 33 38 41 47 49 47 50 50 46 34 33 32 34
60 60 59 58 58 57 57 57 57 57 57 55 55 56 55 57 58 56 53 43 32 37 36 44 43 45 42 45 44 45 44 42 46 46 35 33 30 42 49 48 44 47 46 37 27 32 38
60 60 59 58 57 57 57 56 57 56 56 55 54 55 55 56 56 55 48 35 37 37 40 42 43 39 41 44 44 44 45 45 47 48 40 38 33 44 46 48 49 43 37 47 37 36 36
60 59 58 58 57 57 56 56 56 56 56 55 54 54 52 55 55 53 44 35 40 44 45 44 39 43 39 41 39 39 43 49 46 49 50 45 33 42 42 47 47 46 51 36 36 28 29
59 59 58 58 57 56 55 55 56 56 55 54 54 51 52 55 55 49 37 39 43 48 48 44 42 41 43 40 42 39 41 47 50 47 49 47 43 36 40 38 37 39 40 42 43 41 34
59 59 58 57 56 55 55 55 55 56 55 53 51 46 52 53 45 43 42 43 45 47 48 47 46 45 44 45 41 39 42 47 52 49 42 47 43 34 38 46 49 48 45 45 36 34 39
59 58 58 57 55 55 55 55 55 55 55 52 50 48 51 50 41 42 44 44 46 46 47 46 45 47 48 44 40 45 45 51 51 48 45 45 38 31 32 39 43 39 45 45 46 41 32
58 58 57 56 55 55 54 54 54 55 53 55 51 45 47 49 46 45 42 42 42 48 47 47 47 48 45 43 47 41 43 48 49 49 49 50 40 39 36 38 43 36 42 45 40 33 37
57 57 57 56 55 55 54 54 54 54 54 55 47 46 43 43 45 43 42 41 40 41 46 47 45 44 42 40 42 42 45 47 46 48 47 42 33 39 41 41 41 40 41 42 35 39 34
57 57 57 56 55 55 54 54 54 53 53 49 48 46 42 41 41 42 40 41 39 41 41 42 41 44 42 37 40 34 35 39 41 42 44 41 33 34 33 39 40 36 41 43 43 42 43
56 56 56 56 55 54 54 53 53 53 52 48 41 44 51 38 40 42 44 41 40 40 44 45 43 39 38 42 44 46 40 38 34 36 38 40 35 33 32 35 33 31 38 41 42 45 44
56 56 56 55 55 54 54 53 53 52 51 49 45 46 49 42 43 43 40 39 39 40 38 43 43 39 43 48 48 48 46 43 39 37 37 36 37 37 34 34 25 43 45 46 44 47 49
56 56 56 55 54 54 54 53 52 51 49 46 44 47 48 44 43 39 38 38 40 41 38 38 41 45 46 42 36 34 34 33 37 39 38 41 38 33 31 32 39 43 43 41 41 43 50
56 56 55 55 54 54 53 53 53 51 49 45 43 45 48 46 42 42 39 38 38 37 38 38 44 46 43 39 35 29 31 32 32 32 34 39 42 37 31 29 28 43 46 48 47 39 49
55 55 55 54 54 53 53 53 52 52 50 46 43 44 48 44 41 41 40 39 39 36 34 36 38 38 42 35 33 32 33 35 31 32 31 32 34 32 32 31 38 48 48 49 37 43 51
55 55 55 54 54 53 53 53 52 51 50 47 42 44 47 44 40 40 42 39 37 38 34 37 36 36 37 31 29 30 31 35 33 36 34 35 32 33 35 30 29 47 45 42 51 51 52
54 54 54 54 53 53 53 53 52 52 50 49 42 46 48 44 42 45 46 47 46 44 39 38 35 35 37 34 33 33 32 34 32 33 40 33 40 40 41 42 48 50 53 56 54 53 53

GFSGBSN_sfc_temp_087.txt.gz
Temp
64 64 63 64 63 63 63 62 62 62 62 62 61 61 61 61 61 61 61 61 61 61 61 61 62 61 62 55 51 58 62 61 65 64 61 61 61 61 58 63 59 57 56 64 64 66 69
64 64 63 63 63 63 63 63 62 61 62 62 61 60 60 60 60 61 61 61 61 61 60 61 61 60 60 46 65 65 64 60 63 63 62 61 62 65 63 63 61 63 56 62 61 64 67
64 64 63 63 63 62 62 63 61 61 61 62 60 60 60 59 60 60 60 61 61 60 60 61 61 64 58 52 67 68 65 60 65 64 60 59 61 62 64 59 67 65 55 58 61 61 62
64 64 63 63 62 62 62 62 62 61 61 61 61 59 59 59 59 59 60 60 60 60 60 61 61 63 52 66 70 66 66 64 68 66 64 59 63 62 60 66 63 59 58 48 57 62 64
64 63 63 62 62 62 61 61 62 61 60 60 60 60 59 59 59 59 59 59 60 60 61 61 62 59 50 67 60 64 65 60 64 64 61 59 59 57 60 54 50 55 49 51 54 64 63
64 63 63 62 62 61 61 61 61 61 60 60 59 60 58 58 58 58 58 59 61 61 63 65 65 51 57 52 59 61 65 64 61 55 52 49 52 52 55 53 40 46 51 55 54 58 60
64 63 63 62 61 61 61 61 60 61 60 60 60 59 58 57 58 58 59 61 57 55 58 51 51 51 53 60 63 59 61 62 62 53 43 44 43 45 52 56 56 56 54 55 59 61 57
63 63 63 62 61 61 60 60 60 60 60 59 59 58 58 57 58 57 59 57 54 56 49 56 55 55 57 58 51 55 63 54 54 45 48 42 44 54 58 58 54 54 53 52 55 59 57
63 63 63 62 61 60 60 60 59 59 60 59 58 57 57 58 57 58 59 56 61 60 49 51 54 53 53 55 47 51 57 54 52 47 46 37 48 54 54 52 52 53 52 50 51 55 58
63 63 62 62 61 60 60 59 59 59 59 58 58 57 57 57 53 60 56 60 61 60 38 44 50 52 56 55 47 56 59 53 51 46 46 43 51 50 51 50 54 47 57 56 52 49 44
62 62 62 61 60 60 59 59 58 58 58 58 57 57 57 55 58 57 58 61 61 57 30 47 50 60 56 51 52 53 60 56 48 47 47 42 46 47 48 52 55 50 56 53 52 48 48
62 62 62 61 60 59 58 58 58 58 58 57 57 56 56 57 61 60 62 61 57 36 28 39 50 49 49 50 51 54 53 57 57 49 47 44 52 53 53 56 55 56 52 52 51 47 34
61 61 61 60 60 59 58 58 57 57 57 57 56 56 56 63 56 61 61 56 35 33 42 39 43 48 47 46 47 49 48 45 43 35 34 39 44 52 51 48 53 52 48 35 32 31 34
61 60 60 60 59 58 58 58 57 57 57 55 56 56 55 62 63 61 57 47 32 41 39 48 47 47 42 48 47 48 47 42 51 47 38 34 31 45 54 50 46 48 48 38 30 34 40
60 59 60 59 59 58 58 57 57 56 56 56 55 59 58 59 61 60 52 35 39 41 44 45 46 41 45 48 47 46 47 47 52 52 40 35 35 48 50 53 50 45 41 53 40 43 38
60 59 59 59 59 58 58 57 57 56 56 55 59 58 56 59 59 55 47 39 44 49 49 48 42 47 43 44 42 44 45 53 51 54 55 43 33 44 46 50 51 45 53 38 38 29 30
60 59 59 59 58 57 57 56 56 56 56 56 58 54 55 60 58 53 35 44 48 53 52 47 47 45 47 46 46 42 45 52 55 53 55 51 42 38 41 39 43 43 41 44 45 44 35
59 58 58 58 57 57 56 56 56 56 56 53 57 49 56 58 48 51 46 48 47 51 53 50 50 49 47 49 46 43 44 50 57 55 45 51 44 34 37 46 51 49 45 46 37 36 41
59 58 58 58 57 56 56 56 56 56 56 59 55 53 55 54 45 46 49 49 50 49 50 49 48 51 53 47 42 48 48 56 54 51 48 49 38 32 33 39 44 39 44 46 47 46 33
59 58 57 57 56 55 55 55 55 56 56 55 56 47 49 53 54 51 48 48 47 52 50 52 50 52 49 46 50 45 47 50 52 50 48 48 41 38 34 37 45 37 43 46 42 33 38
58 57 56 57 56 55 55 55 55 55 55 55 57 53 51 45 49 50 48 47 46 45 50 51 48 48 46 41 45 45 47 49 51 49 45 39 33 39 43 44 45 42 43 44 37 40 35
58 57 56 56 56 56 55 54 54 55 54 52 53 52 50 50 48 48 44 48 45 47 45 47 44 47 46 41 43 38 40 37 38 43 40 41 34 35 33 37 43 39 44 45 45 44 43
57 56 55 55 56 55 55 54 54 54 55 53 50 53 58 45 48 49 51 48 46 44 48 48 45 43 42 44 45 47 48 46 38 34 34 34 34 33 31 36 34 31 39 43 45 48 47
56 55 55 55 55 55 54 54 54 54 54 55 54 59 56 50 50 50 46 45 45 45 42 47 47 42 46 50 49 49 47 46 46 41 39 33 32 35 32 33 26 45 49 51 48 50 52
56 55 55 55 55 55 54 54 53 54 53 52 50 57 58 53 53 47 45 44 45 45 41 42 45 48 50 45 38 36 36 34 39 44 40 36 34 32 31 32 42 46 44 44 43 45 53
56 55 54 55 55 54 54 54 53 54 52 51 48 51 59 55 50 50 46 45 45 45 43 42 47 49 46 42 36 29 32 35 33 32 35 36 35 34 33 28 29 43 48 52 52 40 54
55 55 55 55 54 54 54 53 52 51 52 51 46 48 57 53 49 49 47 45 45 43 41 41 41 41 45 36 33 33 33 40 33 32 30 32 32 30 34 33 40 51 50 52 37 43 53
55 54 54 54 54 54 54 53 53 52 52 52 46 49 53 52 45 46 47 43 42 43 40 41 39 39 40 32 32 34 34 37 35 40 37 35 33 32 34 31 30 52 48 43 51 54 55
54 54 54 54 54 54 53 53 52 52 52 52 46 49 56 51 45 50 51 51 49 48 44 42 39 38 40 37 36 35 35 37 35 34 44 35 39 35 42 42 50 53 55 57 58 57 57

GFSGBSN_sfc_temp_090.txt.gz
Temp
65 65 64 64 64 63 63 63 62 62 62 62 62 62 61 61 61 61 61 62 62 62 61 61 62 62 59 54 51 63 63 61 61 58 57 58 55 58 54 55 51 49 52 60 59 62 61
65 65 64 64 63 63 63 63 62 61 61 62 62 61 60 60 60 60 61 61 62 61 61 61 62 61 57 45 65 67 65 60 60 59 59 60 57 58 58 59 51 54 53 54 57 62 63
65 64 64 64 63 63 62 62 62 61 61 61 61 61 60 60 60 60 60 61 61 61 61 61 62 62 55 51 66 67 66 61 63 61 58 60 61 58 59 57 62 56 48 52 53 58 61
65 64 64 64 63 63 62 62 62 62 61 61 61 60 60 60 60 60 60 60 60 60 61 61 62 60 50 66 66 65 65 63 67 66 62 61 62 58 57 62 59 51 49 42 52 58 60
65 64 64 63 63 63 62 61 61 61 61 61 60 60 60 59 59 59 59 59 60 61 61 62 59 58 48 67 59 63 64 60 62 61 61 63 59 54 57 48 45 50 41 41 46 54 57
66 64 64 63 63 62 62 61 61 61 61 60 60 60 59 59 59 58 59 59 61 60 62 65 64 51 56 52 59 62 64 65 57 57 54 50 48 46 47 45 35 41 44 49 46 51 55
66 65 63 63 62 62 62 61 61 60 60 60 59 59 58 58 59 58 57 59 53 52 57 50 51 52 54 59 64 59 62 61 58 52 42 44 41 39 46 50 53 52 49 48 53 56 52
66 65 63 62 62 62 61 61 60 60 60 60 59 58 58 58 58 58 56 56 53 54 47 57 57 55 58 59 51 56 63 53 51 41 45 41 39 50 55 55 53 48 47 46 51 55 51
66 65 63 62 62 62 61 61 60 60 59 59 58 58 57 57 57 55 58 55 61 61 47 51 55 54 54 57 49 50 58 55 50 45 45 38 44 53 53 51 49 48 45 46 46 52 51
65 65 63 62 62 61 61 60 59 59 59 58 58 58 57 57 51 59 55 60 61 60 37 44 50 52 56 56 47 58 59 53 51 45 46 44 51 49 49 48 50 43 54 49 47 44 35
65 64 62 61 61 61 60 60 59 59 58 58 57 57 57 56 55 55 57 61 60 54 26 47 50 61 57 51 51 52 60 55 47 47 46 40 44 45 45 49 52 47 54 50 48 43 40
64 64 62 61 61 60 60 59 59 58 58 57 57 57 57 56 57 59 61 60 54 36 23 39 51 49 49 51 51 53 53 56 55 49 47 44 50 48 48 54 54 55 48 48 45 41 27
60 63 62 61 60 60 59 59 58 58 58 57 56 56 55 61 54 60 59 52 35 30 43 39 44 49 47 46 47 48 46 44 40 33 31 39 42 50 51 44 48 48 41 29 26 28 24
60 62 62 60 59 59 59 58 58 58 57 56 56 56 56 62 60 59 54 43 30 42 36 47 48 48 42 48 47 46 45 41 46 45 37 28 30 42 50 45 41 42 41 31 25 25 29
59 59 61 60 58 58 59 58 58 57 56 56 56 55 55 57 60 57 46 34 36 38 42 45 47 41 43 48 46 46 43 42 46 47 37 34 33 47 50 52 49 40 34 46 33 36 26
59 58 61 59 58 58 59 58 58 57 56 56 54 54 52 59 58 52 42 38 42 51 51 48 40 46 41 44 41 42 43 49 47 53 52 41 31 43 46 49 48 42 46 34 30 19 23
57 58 60 59 58 57 58 58 57 57 56 56 53 49 53 59 56 46 33 40 48 54 52 47 45 44 45 44 43 41 42 49 52 52 52 44 38 36 41 38 38 39 37 38 39 34 23
57 59 60 58 57 57 57 57 57 57 56 53 53 44 54 56 42 46 40 46 48 51 53 49 49 46 44 46 43 42 41 47 54 52 44 48 37 32 36 44 48 47 42 40 31 31 32
57 58 60 58 56 56 57 57 57 57 56 53 49 46 53 53 39 40 47 49 50 49 49 49 47 49 50 44 39 44 45 53 51 46 42 45 33 29 32 37 43 38 42 44 41 37 28
56 57 60 57 56 56 56 56 56 56 57 53 51 40 43 46 49 44 46 47 46 50 49 51 49 50 46 43 47 42 44 49 49 48 49 44 37 34 31 34 39 33 39 43 39 31 32
56 56 59 57 56 56 56 56 56 56 56 51 49 47 47 37 43 46 45 46 46 45 48 50 46 47 44 38 40 40 43 44 45 43 44 38 31 35 40 43 40 37 39 41 35 37 32
56 56 57 57 55 55 56 55 55 55 56 48 46 45 45 44 47 45 42 44 45 47 45 45 43 46 43 38 40 34 37 37 36 38 37 36 32 32 33 38 36 34 40 43 42 41 40
55 54 58 56 55 55 55 55 55 55 55 47 48 50 49 44 44 42 44 46 46 45 46 48 44 40 39 40 41 42 42 41 36 34 33 32 31 31 28 34 32 29 34 40 42 45 43
54 55 57 56 55 55 55 54 54 54 55 52 48 50 48 40 43 44 46 45 44 44 41 46 45 40 42 47 45 44 42 41 41 37 38 31 29 30 30 31 23 39 44 46 44 46 47
54 54 56 55 54 55 55 54 54 54 55 50 49 48 49 44 45 46 44 43 44 43 40 41 44 44 45 41 34 33 35 31 37 40 35 37 32 28 28 27 37 39 40 41 39 38 47
53 54 55 54 53 54 54 54 54 54 54 49 46 47 50 45 42 49 43 42 38 38 38 41 45 45 42 37 33 24 23 28 31 31 34 36 36 31 30 25 25 37 42 48 46 31 47
53 55 56 54 53 54 54 54 54 54 53 49 45 47 48 43 43 44 41 40 41 38 34 37 38 38 41 34 28 29 28 36 27 29 30 30 31 26 29 28 35 43 45 47 29 33 47
53 53 54 53 53 54 54 54 54 54 53 50 44 47 47 42 41 46 47 40 38 38 34 36 34 35 34 30 30 32 31 32 29 34 33 31 28 29 31 26 26 44 44 37 43 46 48
52 54 53 53 53 54 53 53 53 53 53 52 43 48 52 43 40 48 47 47 46 44 40 37 35 36 35 30 28 27 25 26 29 23 37 30 34 32 34 35 45 46 45 49 50 48 48

GFSGBSN_sfc_temp_093.txt.gz
Temp
66 66 65 65 64 64 63 63 63 62 62 62 62 62 62 61 61 61 61 61 62 62 62 61 62 62 56 49 47 61 64 62 62 60 55 52 49 49 46 50 52 48 52 56 56 57 59
67 66 65 64 64 64 63 63 62 62 62 62 62 62 61 61 61 61 61 61 62 61 61 61 62 62 52 40 64 65 64 62 61 59 56 53 52 54 50 50 50 51 52 52 55 56 57
67 66 65 64 64 64 63 63 62 62 62 62 62 61 60 60 61 60 60 61 61 61 61 62 62 59 51 48 64 65 65 60 61 61 55 57 55 53 51 48 56 55 46 50 53 54 54
67 67 66 64 64 63 63 62 62 62 62 61 61 61 60 60 60 60 59 60 60 60 61 62 62 54 45 63 60 64 64 60 63 63 60 59 59 56 52 57 53 48 48 41 50 53 55
67 67 66 65 64 63 63 62 62 61 61 61 61 60 60 59 59 59 59 59 60 61 62 62 54 49 44 65 57 60 61 58 59 59 58 62 57 50 52 45 42 46 38 39 44 52 51
66 66 66 65 63 62 63 62 61 61 61 61 60 60 59 59 59 59 58 59 59 59 60 61 60 45 52 50 57 59 62 61 56 54 51 48 46 42 42 39 32 39 40 41 40 48 50
64 64 66 65 63 62 62 62 61 61 61 60 60 59 58 58 58 58 54 50 47 46 52 46 48 49 52 57 61 57 60 58 55 48 38 42 38 34 39 43 46 47 46 45 48 51 48
62 63 64 65 63 62 61 62 61 61 60 60 59 59 58 58 58 58 52 47 48 50 42 54 54 53 57 57 49 53 60 50 47 37 42 38 35 43 49 49 48 46 44 44 46 53 49
61 61 62 64 63 62 61 62 61 61 60 59 59 58 57 57 57 52 50 50 56 54 41 49 53 52 52 53 47 48 54 50 44 41 43 35 41 49 48 46 46 43 41 43 42 49 48
60 60 60 61 63 62 61 61 61 60 59 58 58 58 57 57 51 52 49 56 56 53 28 40 47 50 54 53 44 55 57 50 46 40 42 39 48 46 44 44 47 39 50 49 46 41 33
60 60 60 61 62 61 60 59 60 60 59 58 57 57 57 57 48 50 53 56 54 48 16 44 48 58 55 48 48 49 57 51 43 44 42 36 41 41 41 45 49 45 50 47 45 41 36
59 59 60 59 59 61 59 60 60 59 58 57 57 57 56 53 51 54 56 53 48 29 15 36 48 47 47 48 48 50 50 52 51 45 44 40 47 44 44 49 50 51 47 45 45 39 25
59 59 59 59 58 60 59 59 59 59 58 57 57 56 54 57 50 56 54 45 29 20 39 34 40 46 44 43 44 45 43 40 36 32 33 35 39 45 48 41 47 45 39 28 22 21 22
58 59 58 58 56 60 59 58 59 58 58 57 56 56 55 59 56 54 48 34 21 37 31 44 45 45 38 45 44 43 40 39 43 40 33 23 23 39 47 42 39 40 38 27 23 21 25
58 58 58 58 57 57 58 57 57 58 57 56 56 49 50 54 57 51 41 25 28 34 39 41 43 36 37 43 43 42 40 37 43 44 36 28 30 44 47 48 46 38 32 42 30 30 22
57 57 57 57 57 57 58 57 58 57 56 56 48 47 49 56 55 48 38 33 37 46 47 45 35 40 34 38 38 37 37 43 42 47 46 39 28 40 44 47 45 42 44 33 31 25 22
57 57 57 57 56 57 57 56 58 57 56 56 49 44 50 55 51 43 25 33 44 50 49 43 39 38 38 37 38 35 39 44 47 45 48 43 37 35 41 37 36 37 35 37 35 32 23
57 56 56 56 55 56 57 56 58 57 56 52 47 39 52 52 40 38 31 41 47 47 48 45 43 41 38 39 37 34 37 43 48 46 38 43 37 31 36 43 47 45 39 39 26 27 28
55 55 55 56 56 57 56 56 57 57 56 48 44 42 51 50 35 33 42 45 46 46 45 44 42 45 44 39 34 38 39 47 47 44 40 41 34 27 31 35 41 36 40 40 38 33 22
54 54 54 55 56 57 55 56 57 56 57 51 45 35 38 43 41 39 40 41 42 46 45 47 44 44 40 38 40 36 39 45 45 42 48 43 32 30 27 31 37 34 38 41 36 30 27
53 54 55 56 56 56 55 56 56 56 57 50 45 40 40 33 36 41 42 43 42 40 44 46 41 42 38 33 35 35 36 37 41 41 39 37 30 34 34 38 37 36 37 38 33 35 31
54 55 55 56 56 56 55 55 56 56 56 46 42 40 41 39 42 40 40 38 41 43 42 39 38 39 38 32 34 29 32 31 32 34 35 35 30 32 29 36 36 34 39 39 39 38 38
53 55 55 55 55 56 55 55 55 55 54 44 45 46 44 39 37 36 38 41 42 43 42 44 40 36 34 36 37 37 37 36 32 30 31 29 29 23 26 34 32 29 33 37 40 42 40
55 54 55 55 55 55 54 55 55 55 55 48 45 47 42 35 36 40 43 42 40 40 38 40 41 35 38 42 40 38 36 36 35 33 36 27 26 24 24 31 22 37 44 44 41 44 46
54 55 55 55 55 55 54 55 55 55 56 47 45 46 44 35 38 39 40 39 39 38 36 38 39 39 39 37 31 29 26 29 33 39 33 32 27 22 24 27 32 39 42 39 36 38 45
54 54 54 55 55 54 54 55 55 55 55 46 42 45 46 39 36 42 38 37 32 31 32 37 41 41 38 33 30 21 19 25 25 31 32 33 32 29 27 24 24 36 41 46 44 32 45
53 54 54 54 54 54 53 54 55 54 55 48 42 44 43 36 37 39 35 35 36 32 29 32 34 34 38 28 24 21 24 31 25 27 28 29 30 26 27 27 31 43 44 46 31 32 44
52 53 53 53 55 53 53 54 55 54 54 49 43 42 43 34 36 41 42 35 35 34 29 32 32 32 31 24 20 20 23 27 25 30 31 30 27 27 29 24 23 44 42 36 41 44 45
52 52 53 53 53 53 53 54 54 54 55 50 42 45 47 38 36 43 42 42 42 39 35 33 32 32 31 27 22 20 22 20 23 18 34 26 31 31 33 32 40 42 43 44 44 45 46

GFSGBSN_sfc_temp_096.txt.gz
Temp
67 67 66 65 64 64 64 63 63 63 62 62 62 62 62 61 61 61 61 61 62 62 62 61 62 62 55 47 46 64 66 62 61 60 55 52 50 49 44 48 48 48 50 54 55 57 56
67 67 67 66 64 63 63 64 63 62 62 62 62 62 61 61 60 61 60 61 61 61 61 61 62 62 51 39 63 65 64 61 60 59 54 52 52 53 46 50 49 50 49 51 54 54 57
67 67 67 67 65 63 62 63 63 62 62 62 62 61 61 60 60 60 60 60 60 60 61 62 62 59 49 47 63 63 64 59 60 60 52 55 55 49 50 47 54 51 46 48 51 52 52
65 65 65 67 66 64 62 61 62 62 62 62 61 61 60 60 59 60 60 60 60 60 61 62 63 53 43 61 63 63 61 59 62 63 59 57 57 51 50 53 52 46 46 39 48 50 53
64 64 64 64 66 65 63 61 61 62 61 61 61 60 60 59 59 59 59 59 60 60 61 62 53 48 43 63 55 59 58 56 58 58 57 61 55 49 52 43 41 45 35 39 43 50 50
63 63 63 63 63 65 64 61 61 62 61 61 60 59 59 58 58 58 58 59 59 59 59 60 58 44 51 48 55 59 59 59 54 52 51 48 45 42 41 38 33 36 36 38 41 46 49
62 62 62 62 62 62 64 62 61 61 61 61 60 59 58 58 58 58 53 49 47 45 50 45 46 47 50 56 59 55 58 56 53 47 38 42 38 34 37 40 41 45 42 42 45 50 47
62 62 61 61 61 61 62 62 61 61 61 60 60 59 58 57 58 58 51 47 46 48 41 52 52 51 55 54 47 53 58 48 45 37 41 38 33 41 46 46 44 43 42 40 45 50 46
61 61 61 61 61 61 61 62 61 60 61 60 59 58 58 57 57 52 49 49 54 52 40 47 51 50 50 52 45 47 53 48 42 40 39 33 39 47 46 44 42 40 39 40 42 47 47
60 60 60 60 61 60 60 59 60 60 60 59 58 58 57 57 50 50 48 54 54 52 25 38 45 49 52 51 43 54 55 48 44 38 40 38 46 44 42 42 44 36 47 48 45 41 34
60 60 60 59 59 59 60 58 59 58 58 58 58 57 57 56 47 49 52 54 52 47 16 42 45 56 53 46 47 48 55 50 40 42 40 35 39 39 39 42 46 41 48 45 44 39 38
59 59 59 59 59 59 59 58 59 58 58 58 57 57 56 52 49 54 55 52 48 27 16 35 46 44 44 46 46 49 48 51 49 43 42 39 45 42 42 47 47 49 45 44 42 36 29
59 59 58 58 58 58 58 58 58 58 57 58 57 57 53 56 48 55 53 45 26 17 37 33 38 43 42 40 42 43 41 38 34 26 24 34 37 43 46 40 45 46 39 29 27 27 27
58 58 58 58 58 58 58 58 58 57 57 57 56 56 55 57 54 54 48 34 18 34 30 42 42 42 37 42 41 41 37 34 41 39 30 22 22 38 45 41 38 39 36 28 22 23 26
58 58 58 57 58 58 58 58 56 57 56 56 56 49 50 52 55 52 41 22 27 32 38 39 41 34 34 41 40 38 36 34 40 42 32 27 28 41 44 45 44 37 33 42 30 27 22
57 58 58 57 57 58 57 58 56 56 56 56 46 46 48 54 54 48 38 32 34 44 44 43 33 37 31 35 35 35 35 40 40 44 45 37 30 38 43 46 44 40 44 33 31 24 22
57 57 57 57 57 57 57 56 55 55 55 56 47 43 49 54 51 42 29 31 41 47 47 41 37 35 35 35 36 32 36 42 45 41 44 40 35 32 39 37 35 37 34 36 36 34 24
56 57 57 57 56 56 56 55 55 56 56 52 45 40 51 52 39 40 34 37 47 45 46 43 41 39 36 36 34 32 34 39 46 44 38 40 37 31 34 41 43 41 39 40 30 26 27
56 57 56 56 55 55 55 54 56 56 56 48 42 42 50 48 33 35 39 43 44 43 42 42 40 42 41 37 32 36 36 43 45 41 37 42 33 28 30 35 40 36 39 39 35 32 23
56 55 54 55 55 55 54 55 55 55 57 50 42 35 40 43 43 37 38 39 40 44 44 45 42 43 38 36 38 34 35 41 41 40 46 42 32 30 24 29 35 32 36 39 36 29 27
56 54 53 53 54 55 55 56 55 55 56 50 43 38 41 34 36 38 40 41 39 38 43 44 39 39 37 30 32 32 33 35 37 39 38 37 26 31 34 36 35 34 35 36 33 35 29
53 52 52 53 54 54 55 55 55 55 57 46 41 39 41 39 41 39 40 39 40 41 40 38 37 38 36 32 34 29 30 29 29 33 33 34 28 23 26 34 35 33 36 37 36 37 38
53 53 53 54 54 55 55 55 54 55 55 44 42 46 45 40 37 37 37 39 41 42 40 42 39 35 32 35 36 36 36 35 30 28 29 26 23 17 19 32 32 27 33 36 36 39 38
55 54 55 55 54 55 55 55 54 55 57 47 45 45 41 37 37 38 40 40 39 40 37 38 39 35 37 39 37 35 32 33 32 35 34 26 23 23 17 29 22 37 42 42 40 42 44
55 55 55 55 54 55 54 54 54 56 57 47 43 46 42 35 37 38 39 36 37 37 36 37 37 37 38 34 30 29 25 28 33 34 31 30 26 20 21 24 31 37 39 38 36 38 42
55 55 55 55 54 54 55 54 54 55 55 46 42 46 45 39 36 40 36 35 31 29 31 35 39 39 37 32 29 20 18 23 25 29 31 32 34 28 26 24 23 34 41 43 42 32 43
55 54 54 54 53 54 54 54 54 55 55 47 42 45 44 37 36 37 35 35 35 31 28 31 32 33 36 28 23 20 24 28 25 27 25 26 25 20 20 19 30 37 40 43 27 31 43
54 53 53 53 54 53 54 54 54 54 55 48 41 44 44 36 36 38 39 34 34 32 29 31 31 31 29 24 20 20 22 25 23 28 28 29 23 23 27 21 22 38 39 32 35 40 45
54 53 53 52 53 53 54 53 53 55 55 51 42 47 46 38 36 42 41 39 39 38 33 32 31 29 31 26 20 20 22 16 21 17 31 29 30 30 30 29 38 39 37 42 42 41 41

GFSGBSN_sfc_temp_099.txt.gz
Temp
66 66 66 66 67 66 64 63 62 62 63 63 62 62 62 61 61 61 61 61 61 62 62 61 62 62 55 46 47 64 67 63 61 60 52 53 50 47 45 47 45 42 47 53 55 56 56
65 65 65 66 65 66 65 63 63 62 62 62 62 62 61 61 60 60 61 61 61 61 61 61 62 61 50 39 63 65 63 62 60 57 54 54 51 52 47 46 43 47 49 50 54 53 55
64 64 64 65 64 64 65 64 62 61 61 62 62 62 61 60 60 60 60 60 60 60 60 61 62 57 48 46 63 63 63 59 59 58 53 56 56 51 51 44 52 50 43 48 50 52 51
63 63 63 63 63 63 63 64 62 61 61 62 62 61 61 60 60 60 60 60 60 60 61 61 62 51 43 60 63 62 61 60 62 61 57 57 57 51 48 53 50 45 42 36 48 51 53
63 63 63 63 63 63 63 63 62 61 60 61 62 61 60 59 59 59 59 59 60 60 61 62 51 46 42 62 56 58 56 56 58 57 55 60 55 48 49 44 39 43 35 35 41 50 49
62 62 62 62 62 62 63 63 62 61 60 60 61 60 59 59 58 58 58 59 59 58 58 58 57 42 50 48 54 57 58 58 54 52 50 47 44 44 40 39 31 33 36 39 38 46 47
62 62 62 61 61 62 61 62 62 62 60 60 60 60 59 58 58 58 53 50 47 45 48 43 44 45 49 54 57 54 57 55 52 46 37 42 37 37 35 39 40 42 41 40 44 48 45
61 61 61 61 61 61 61 61 61 60 60 59 59 59 59 58 58 57 50 46 46 48 39 50 50 50 53 53 47 51 57 47 44 37 41 37 33 40 44 45 43 41 39 37 45 48 46
61 61 61 60 60 60 60 60 60 61 61 59 59 59 58 57 57 52 48 49 53 51 39 46 50 48 49 51 44 46 51 47 41 38 38 32 38 46 45 42 41 38 35 36 41 45 46
61 61 60 60 60 59 60 59 59 60 60 58 58 59 58 57 51 50 48 54 53 51 24 37 44 48 50 49 42 53 53 47 42 37 38 37 44 42 41 40 43 35 45 45 42 39 32
60 60 60 60 59 59 59 59 59 60 59 57 56 57 57 57 49 48 51 53 52 47 14 40 44 54 51 44 45 46 53 48 39 40 39 35 38 37 38 41 43 40 47 45 42 39 36
60 60 59 59 59 58 58 58 58 59 58 57 56 57 57 52 50 53 54 52 48 27 17 34 44 42 42 44 44 47 46 49 47 41 40 38 44 41 41 45 45 46 41 40 39 37 30
59 59 59 59 59 58 58 58 58 59 58 57 56 56 54 54 48 54 53 46 29 17 36 33 36 41 40 39 40 41 39 36 33 25 21 33 36 42 44 38 43 42 35 29 26 28 24
58 58 58 58 58 58 58 58 58 58 57 56 56 55 54 56 54 53 49 37 22 33 30 40 40 40 35 40 39 38 35 32 38 35 26 23 22 36 43 40 37 36 35 26 21 23 25
57 57 57 58 58 58 58 58 58 58 56 55 55 49 49 51 54 52 43 27 28 31 37 38 39 32 33 39 38 36 34 32 37 39 29 26 28 39 42 43 43 36 29 38 31 25 21
57 57 57 57 58 58 58 58 57 57 55 54 48 47 47 53 54 48 37 34 33 42 42 40 32 35 29 33 33 32 32 38 38 41 41 34 25 36 41 44 42 39 41 31 30 23 20
57 56 54 54 57 57 57 57 57 57 55 54 47 42 49 53 51 42 30 32 39 46 45 39 35 33 33 32 34 30 33 39 43 40 42 38 33 32 37 35 34 35 32 35 35 32 21
56 55 53 55 57 57 57 56 56 57 55 51 45 39 51 50 38 38 34 36 46 43 44 41 40 37 35 35 32 29 34 35 42 42 35 38 35 29 31 39 41 41 39 39 30 26 25
56 55 53 55 56 55 55 55 56 56 54 49 43 42 49 47 33 35 39 42 43 42 41 40 38 40 39 35 30 34 35 41 41 39 36 39 31 24 25 35 39 36 38 40 37 33 24
55 55 55 56 55 54 55 55 55 55 55 50 41 36 40 42 42 37 38 39 38 43 41 42 40 41 37 33 35 32 33 38 39 38 44 41 32 27 21 29 33 31 35 39 37 28 27
55 55 56 54 53 52 53 54 54 54 54 49 42 37 41 34 37 38 40 40 38 37 41 42 37 38 36 30 29 29 32 33 36 38 35 37 29 32 32 34 35 33 34 36 33 35 29
55 56 54 51 51 52 53 54 54 54 54 46 39 37 39 37 40 37 39 37 39 39 38 37 36 36 35 32 33 28 30 28 27 32 30 32 19 27 19 33 33 31 35 36 36 36 36
56 56 53 54 53 54 53 53 54 54 54 45 44 45 44 39 37 37 38 39 40 39 39 40 38 34 31 33 35 34 34 33 29 27 28 26 24 23 16 27 26 22 32 35 37 38 37
55 56 55 55 55 54 53 54 54 54 54 47 45 45 41 35 37 40 40 40 38 38 35 36 37 33 35 38 37 35 33 31 30 32 32 25 22 26 16 27 18 35 41 39 37 40 40
55 55 55 55 55 54 53 54 54 54 54 46 44 45 42 35 38 39 39 35 36 36 34 35 35 35 37 35 30 28 24 27 32 31 28 28 24 20 20 22 27 35 36 35 34 35 40
55 55 55 54 54 54 53 54 54 54 54 46 42 44 44 39 36 41 36 34 32 29 30 33 37 37 35 32 30 20 19 22 25 27 29 30 31 28 26 19 18 29 36 39 39 31 39
55 55 55 54 54 54 53 54 54 54 54 45 43 43 44 35 36 38 35 34 34 30 28 30 33 32 34 28 23 20 23 27 21 21 24 27 27 20 18 16 25 34 37 39 27 28 38
54 54 54 54 54 54 53 53 54 53 55 47 42 44 44 34 35 38 37 34 33 32 30 31 31 30 29 23 20 19 21 24 22 25 24 24 25 25 24 20 18 36 37 32 35 39 39
53 54 54 53 53 53 52 54 53 54 53 50 42 46 47 38 36 41 40 39 36 36 32 30 30 28 30 25 20 19 21 15 20 17 28 25 30 28 27 27 36 36 36 40 39 38 38

GFSGBSN_sfc_temp_102.txt.gz
Temp
64 64 64 64 65 65 65 64 64 63 63 63 63 63 63 62 61 61 61 61 61 62 62 61 62 62 54 44 45 62 67 63 62 58 52 51 49 47 43 45 45 41 43 49 52 54 55
63 63 64 64 64 64 64 64 63 63 63 63 62 63 62 62 61 61 61 61 61 61 61 61 62 61 48 37 60 64 63 59 60 56 53 51 49 49 49 44 44 44 46 46 50 52 54
63 63 63 63 63 63 63 63 63 63 62 62 62 62 62 61 61 60 60 61 61 60 60 61 62 57 45 46 59 62 62 59 58 57 52 54 55 50 49 44 48 47 42 42 48 52 51
63 63 63 63 62 63 62 62 62 62 63 61 61 61 61 61 60 60 60 60 60 60 60 62 62 50 41 58 58 61 61 60 61 60 56 55 56 50 49 51 48 43 39 33 44 49 52
62 63 62 62 62 62 62 61 62 62 62 61 60 60 60 60 60 59 59 59 60 60 61 62 50 44 41 61 53 56 55 55 57 58 57 59 53 47 50 43 41 42 34 33 37 49 49
62 62 62 62 62 61 61 62 60 61 62 61 60 59 59 59 59 58 58 59 59 58 58 58 55 41 48 47 53 55 55 56 53 52 51 50 45 43 41 39 31 35 35 37 35 44 48
61 61 61 61 61 61 61 61 61 60 61 61 60 59 58 57 58 58 54 50 48 45 48 42 43 44 48 53 55 53 55 52 50 47 41 44 40 37 39 37 40 41 39 38 41 46 43
61 61 61 61 61 61 60 60 60 60 60 59 59 58 57 58 58 58 51 46 47 49 40 49 49 48 52 51 45 51 55 46 43 36 40 37 35 43 43 42 42 39 38 37 42 46 45
62 61 61 61 61 61 60 60 60 59 60 60 58 57 57 56 57 52 49 49 53 51 39 44 48 47 48 50 43 46 50 46 40 37 36 33 37 46 45 40 40 37 34 37 39 44 45
61 61 61 61 60 60 60 59 59 59 59 59 57 57 56 55 50 50 48 53 53 51 26 37 42 46 49 48 42 51 52 46 42 36 37 35 41 41 39 39 40 33 42 43 41 38 32
60 60 60 60 60 60 59 58 59 59 58 58 57 56 55 55 48 47 52 53 51 48 16 39 42 53 49 43 44 46 52 48 37 39 38 34 36 36 37 39 42 38 43 42 41 36 33
59 59 59 59 59 59 59 58 58 58 58 58 57 56 55 52 49 52 54 52 49 30 19 33 42 40 40 42 42 46 45 48 45 40 38 36 41 39 38 43 43 45 40 39 37 36 27
59 59 59 58 58 58 58 58 58 58 58 57 57 55 53 53 47 53 53 47 30 23 36 32 35 39 38 36 38 39 38 35 31 24 21 32 34 40 42 36 41 40 35 28 26 27 24
58 59 58 58 58 58 58 57 58 58 57 56 56 55 53 54 53 53 48 38 23 34 30 39 38 38 33 38 37 37 34 31 35 33 24 22 22 35 41 38 35 34 34 24 21 21 22
57 58 58 57 57 57 58 57 57 58 57 55 54 49 49 51 53 51 41 28 30 32 36 36 38 31 31 37 35 34 32 31 35 36 28 26 27 38 40 41 41 35 28 37 26 24 19
57 57 57 57 57 57 57 57 57 57 56 55 48 47 47 53 53 47 36 34 35 41 41 39 32 33 28 31 32 29 30 35 36 39 37 33 23 34 40 42 40 40 40 30 32 24 21
56 56 56 57 56 55 55 56 57 57 56 55 46 41 49 53 51 42 31 34 38 45 44 39 33 31 30 31 32 28 31 36 39 38 41 37 34 30 36 32 32 36 35 34 34 30 21
56 56 57 56 51 52 54 56 57 56 56 50 45 37 49 52 38 39 34 38 45 42 43 40 38 36 33 34 30 28 31 33 40 39 34 37 34 26 31 38 41 41 36 35 29 25 24
56 57 56 53 51 53 55 56 56 56 56 47 41 42 48 48 33 34 39 40 43 41 40 39 37 39 37 34 29 32 33 38 39 37 32 36 27 22 22 34 37 35 37 38 35 31 21
56 56 56 55 53 54 54 54 55 55 56 48 42 35 41 43 42 37 37 38 39 43 41 41 39 39 35 31 34 31 30 36 38 36 43 40 29 22 17 23 31 26 34 35 35 29 25
56 56 56 55 53 53 52 53 53 54 55 48 42 38 41 34 36 38 38 39 38 36 40 40 36 37 35 29 28 28 30 31 35 38 33 32 17 26 32 32 33 32 32 33 32 34 27
55 56 56 54 52 52 50 52 52 54 54 46 39 37 40 37 40 38 37 36 38 37 38 35 34 35 34 30 31 28 30 27 26 31 28 31 15 24 19 29 29 29 33 35 35 33 34
55 56 56 56 56 53 53 53 53 54 52 46 44 45 42 37 36 35 35 38 40 39 38 37 37 33 32 33 33 32 32 31 28 26 26 25 25 17 17 27 29 20 30 34 35 37 38
55 55 56 56 55 54 53 52 53 53 53 48 45 45 39 33 36 38 40 41 38 37 35 36 36 33 33 36 35 34 31 31 31 30 31 23 21 26 18 25 13 31 39 38 36 38 41
55 54 55 55 56 55 54 53 53 54 55 50 45 43 40 34 38 38 38 36 36 34 33 34 35 34 36 33 29 27 23 26 30 32 26 26 23 17 20 21 25 33 34 33 34 32 38
54 54 55 55 55 54 54 52 54 56 53 45 43 43 42 38 35 38 36 36 32 28 30 32 36 35 34 32 30 19 18 21 26 27 28 30 28 21 18 18 16 26 36 37 35 27 38
54 54 54 55 55 54 54 52 54 56 54 47 41 42 42 35 34 35 35 36 34 31 28 29 31 31 33 28 23 20 22 26 22 20 24 23 23 19 17 15 23 33 37 38 28 28 37
53 53 53 54 54 54 54 52 53 55 54 49 41 44 43 34 34 36 36 34 33 32 29 29 30 29 28 23 20 19 20 24 21 23 23 23 22 25 23 20 16 35 35 31 34 36 37
53 53 53 53 54 54 54 53 52 54 54 50 42 46 47 38 35 40 38 38 37 35 31 29 30 28 30 25 19 19 21 14 19 17 26 22 27 24 25 26 34 38 34 36 37 36 37

GFSGBSN_sfc_temp_105.txt.gz
Temp
63 64 64 64 64 64 64 64 63 63 64 64 63 63 63 63 62 62 62 62 62 62 62 62 62 62 54 45 46 61 67 63 62 59 54 50 49 48 43 46 46 44 45 49 49 50 53
63 63 63 64 63 63 63 63 63 62 63 64 64 61 61 61 62 61 61 61 62 62 61 61 62 61 49 39 60 63 62 60 60 57 54 52 50 50 47 46 44 45 46 46 48 49 49
63 63 63 62 63 62 62 62 62 62 63 63 63 61 60 60 61 61 61 61 61 61 61 61 62 56 46 45 60 60 62 58 60 57 52 55 55 50 49 43 49 48 43 44 46 45 47
62 62 62 63 62 62 62 62 62 62 62 62 62 61 59 60 61 60 60 60 60 60 60 61 62 51 42 58 59 61 61 60 61 60 56 57 57 52 50 51 48 42 42 35 44 44 46
62 62 62 62 62 62 62 61 61 61 61 61 61 60 59 59 59 59 59 59 60 60 61 62 52 48 41 61 55 57 57 55 57 58 57 60 55 49 48 43 40 42 34 34 39 44 44
62 61 61 61 61 61 61 61 61 60 60 60 60 60 59 58 58 57 59 59 59 58 58 57 55 42 48 47 53 55 57 56 54 53 53 51 48 44 45 40 34 36 35 37 36 41 44
61 61 61 61 61 60 61 60 60 60 60 59 60 59 59 57 57 58 54 50 49 46 48 45 45 44 47 53 55 53 56 53 52 50 43 46 42 38 40 41 42 42 40 37 40 44 42
62 62 62 62 61 61 61 60 60 60 60 59 59 59 59 56 56 57 51 46 48 48 41 49 48 48 51 52 45 50 55 46 45 39 43 40 37 43 44 43 43 42 39 38 42 45 44
61 61 61 61 60 60 61 60 60 59 59 59 58 58 57 56 55 52 48 49 53 51 40 44 48 47 48 50 44 46 50 46 41 38 38 36 40 45 45 42 41 40 39 38 40 44 45
60 60 60 61 60 60 59 59 60 59 59 58 58 58 55 55 50 50 47 54 53 51 28 38 42 46 49 48 41 52 52 47 42 37 38 38 43 42 41 40 42 38 45 45 42 39 33
60 60 60 60 60 59 59 59 58 59 58 58 58 58 55 54 48 46 51 53 52 48 18 39 42 53 49 43 43 45 52 47 38 39 39 36 38 37 38 40 43 40 45 43 42 38 37
59 59 59 59 59 58 58 58 58 58 58 58 57 57 56 52 50 51 53 53 49 30 21 34 42 40 40 42 42 46 45 48 46 40 38 38 43 41 40 43 44 45 41 40 39 38 30
59 58 58 58 58 58 58 58 57 58 58 57 57 57 54 53 47 53 52 47 30 24 37 33 35 38 37 36 38 40 38 36 33 26 23 33 35 41 43 39 43 42 37 27 28 28 26
58 58 58 58 57 58 58 57 57 57 57 57 55 55 53 53 52 52 48 37 24 34 31 39 38 37 33 37 36 37 35 32 36 34 26 24 22 36 41 40 38 37 36 27 21 23 26
58 58 57 57 57 57 57 57 57 56 57 56 54 50 49 51 52 51 41 29 30 33 37 36 38 32 32 36 35 34 32 31 35 36 29 27 27 39 40 42 42 36 32 39 28 27 25
58 57 57 57 57 57 57 56 56 56 56 56 48 46 46 52 53 47 37 33 35 41 41 39 32 32 28 31 31 30 30 35 36 38 38 34 24 35 39 42 41 39 41 32 33 23 21
57 57 57 57 56 54 53 53 55 57 56 56 46 40 48 52 52 41 32 34 38 44 43 38 34 31 30 30 31 28 30 36 38 38 39 37 33 31 36 33 33 36 34 35 34 33 25
57 57 57 57 54 53 53 53 54 57 56 51 45 36 48 50 37 37 34 38 44 43 43 41 38 35 32 32 29 28 30 33 38 39 34 37 34 26 30 37 40 40 35 34 30 27 27
57 56 56 56 55 54 54 55 56 56 56 46 40 41 48 47 33 34 38 40 42 41 40 39 37 38 36 33 29 31 32 38 38 37 33 37 26 15 22 31 39 34 34 33 33 31 22
56 56 56 57 54 53 53 54 54 55 55 46 41 34 41 43 42 37 36 37 37 43 41 41 38 38 34 31 33 30 31 35 37 37 42 39 27 22 18 21 30 27 32 36 31 29 27
56 56 56 56 56 53 51 50 52 53 54 46 40 37 41 33 36 38 38 38 37 37 40 40 36 36 34 28 29 28 30 31 35 37 33 31 17 25 29 30 31 31 31 32 26 31 29
56 56 55 56 56 56 52 53 51 53 54 42 38 38 39 38 40 38 37 35 37 38 37 36 35 35 33 29 30 28 30 28 27 31 29 29 17 19 16 30 29 27 31 32 32 34 33
55 55 55 55 56 56 53 52 51 52 52 41 45 43 42 39 37 36 36 36 39 40 37 37 37 33 32 32 33 30 31 30 28 26 26 25 22 16 16 26 27 20 32 32 34 36 36
55 55 55 55 55 55 55 53 52 52 52 45 46 44 39 33 36 36 39 39 38 38 35 35 36 33 32 34 34 34 31 30 30 29 30 23 21 26 20 20 12 31 37 38 35 35 36
55 55 55 55 55 55 55 55 53 52 53 47 47 43 41 33 37 37 38 36 36 35 33 33 33 32 34 33 29 26 23 26 30 32 27 26 24 18 19 21 24 31 33 32 32 33 36
55 55 55 55 54 54 55 54 53 53 54 50 45 44 43 36 34 37 36 35 34 31 30 32 35 35 33 32 30 19 18 20 25 26 28 29 27 19 18 15 17 29 35 37 35 28 37
54 54 54 54 54 54 54 54 52 53 54 49 42 45 41 35 34 33 34 34 36 33 28 29 31 31 33 28 24 20 22 26 19 21 24 24 24 18 18 16 23 32 36 37 28 29 37
53 53 54 54 54 53 54 54 52 53 55 49 42 44 42 32 32 34 35 32 34 32 29 29 30 29 28 24 20 19 20 23 21 22 22 21 18 19 23 20 17 35 35 31 35 37 38
53 53 53 53 53 53 54 54 53 52 53 50 41 45 45 37 33 38 37 37 35 34 31 28 30 28 30 25 19 19 21 14 19 16 24 22 26 24 26 26 34 36 35 37 37 36 36

GFSGBSN_sfc_temp_108.txt.gz
Temp
64 63 63 63 63 63 63 63 62 63 63 63 64 64 63 61 61 62 62 62 62 63 62 62 62 62 60 53 54 69 67 66 65 61 58 55 53 51 50 53 52 51 50 50 51 51 51
63 63 63 63 63 62 62 62 62 62 62 62 62 62 62 61 60 61 61 61 62 62 62 61 62 61 56 47 68 70 67 64 63 60 59 57 54 55 52 51 52 52 51 51 52 49 50
64 63 63 62 63 62 63 62 62 61 61 62 61 61 61 60 60 61 61 61 61 61 61 61 62 60 52 55 68 70 67 65 63 60 54 56 57 51 55 47 54 52 47 51 50 50 47
63 63 63 62 62 62 62 61 61 61 61 61 61 61 60 59 60 61 59 60 60 60 60 61 62 58 51 65 70 66 68 64 65 65 59 59 59 53 53 57 52 49 49 40 47 49 48
62 62 62 62 62 62 61 61 61 61 61 61 60 60 60 60 59 59 59 59 60 60 61 62 57 55 51 66 61 66 65 60 63 63 58 59 55 52 53 47 46 47 41 38 46 47 46
63 63 62 62 61 62 61 62 60 61 61 60 60 59 59 59 58 58 58 59 59 60 60 61 59 49 57 54 60 62 65 61 57 58 55 54 50 46 46 47 42 42 42 47 45 45 46
62 62 62 62 61 61 61 60 61 61 61 60 59 59 58 58 58 58 56 58 54 52 53 52 52 51 53 60 61 60 62 59 59 55 47 51 47 41 45 50 49 49 47 50 46 48 44
61 61 61 61 61 61 60 60 60 60 60 60 59 58 58 59 57 57 55 53 53 55 45 54 53 53 56 58 51 57 62 54 53 48 50 48 45 50 49 50 48 49 47 45 47 48 44
61 60 60 60 61 61 60 60 60 59 60 59 58 58 56 56 55 53 53 52 58 56 44 48 52 52 53 56 51 52 57 53 49 47 47 44 48 50 49 49 47 47 47 45 45 47 46
60 60 60 60 60 60 60 59 59 59 59 59 58 58 58 54 50 52 50 58 58 58 37 42 46 51 53 54 48 57 58 53 50 45 46 47 50 47 47 47 49 44 50 49 46 44 37
60 60 60 59 59 59 59 59 59 58 58 58 58 58 57 55 50 47 55 58 58 54 29 44 46 57 53 49 50 51 58 53 46 46 46 43 45 44 44 47 49 46 50 49 48 44 43
59 59 59 59 58 58 58 58 58 58 58 57 57 57 57 52 51 53 56 58 55 36 27 38 46 45 45 48 49 52 52 55 53 46 46 45 49 47 47 49 49 50 48 48 48 44 35
59 59 59 58 58 58 58 58 58 58 58 57 57 57 55 54 47 54 57 54 35 30 40 37 39 43 44 43 44 46 45 45 43 36 34 41 43 47 48 45 50 48 45 34 31 31 34
59 58 58 58 58 58 58 58 57 57 56 56 56 55 55 55 52 54 53 43 31 34 36 43 42 43 41 44 43 43 43 43 44 43 39 34 32 43 48 45 42 45 42 37 28 32 37
58 58 58 57 58 57 56 56 57 56 54 56 55 50 51 52 53 53 48 33 36 35 40 41 42 40 40 43 43 42 42 42 44 46 38 36 35 46 46 48 46 37 35 45 35 37 36
58 58 58 57 58 56 55 55 55 55 54 56 51 47 46 52 54 50 42 36 38 43 44 44 38 41 39 41 40 41 41 43 43 45 49 42 31 42 45 47 47 43 44 33 35 27 28
57 58 58 56 57 55 55 55 55 55 56 55 50 41 48 51 50 43 34 38 41 48 47 43 41 40 41 40 41 40 40 42 45 45 47 45 38 39 43 41 40 41 37 37 34 35 33
57 57 57 56 56 55 55 55 55 56 56 53 48 37 49 50 37 40 37 41 44 45 48 46 45 43 42 42 40 40 39 41 45 45 41 44 40 31 37 43 46 44 36 34 31 30 31
57 57 57 56 56 54 54 54 55 56 55 50 41 41 49 47 34 36 41 42 44 45 45 45 43 45 45 42 38 40 40 42 45 44 40 43 34 29 33 37 42 38 39 38 35 34 32
56 56 56 56 55 55 53 51 52 54 55 51 41 35 40 43 43 40 40 40 40 47 46 46 45 46 44 41 43 39 39 41 42 43 42 44 33 31 29 30 35 32 37 39 35 29 30
56 56 56 56 55 56 54 52 52 53 53 50 42 37 41 34 37 43 44 40 40 41 45 46 43 44 43 39 39 38 39 39 42 41 41 40 30 32 35 36 36 34 34 36 31 35 29
56 56 56 56 56 55 54 52 52 52 54 47 39 36 43 40 41 42 41 39 40 42 43 41 41 43 43 41 41 38 40 40 38 40 38 37 29 27 26 35 35 31 36 37 37 37 37
56 56 55 55 55 55 54 52 52 53 53 45 46 45 38 40 38 39 41 40 42 44 42 42 43 43 41 40 42 42 42 41 38 36 34 33 30 28 28 33 29 28 36 38 38 40 38
55 55 55 55 55 55 54 54 52 52 53 50 49 44 37 38 40 41 42 43 42 41 41 40 43 43 39 45 46 46 43 41 41 38 39 32 29 30 29 30 24 37 43 42 38 36 37
55 55 55 55 55 55 54 55 55 54 54 48 48 44 41 41 42 42 42 41 41 40 38 38 39 40 46 44 39 34 35 34 34 36 36 36 34 29 28 30 33 37 39 39 37 35 36
55 55 55 55 55 54 54 54 55 54 54 51 49 48 42 43 41 39 42 42 41 38 38 37 42 45 44 43 39 30 32 30 29 28 35 35 36 32 29 24 26 38 41 43 42 35 39
54 54 54 54 54 54 54 54 54 53 53 51 47 51 45 42 40 39 42 41 43 40 38 38 39 39 42 40 36 34 35 35 31 28 28 29 30 28 30 29 35 43 43 44 32 36 42
54 54 54 54 54 54 54 54 54 53 54 53 46 48 47 42 40 39 39 41 41 42 40 38 39 37 38 35 35 36 35 36 33 34 32 32 30 29 29 26 28 44 42 38 42 44 44
53 53 53 53 53 53 53 53 54 52 54 53 46 49 51 45 40 43 42 42 40 40 41 38 39 39 43 39 35 35 34 30 34 35 36 32 38 37 37 40 43 45 44 45 45 43 43

GFSGBSN_sfc_temp_111.txt.gz
Temp
64 64 64 64 63 63 63 63 63 62 62 62 63 63 62 62 62 62 62 62 62 62 63 62 62 62 62 57 59 72 68 70 68 65 62 59 54 54 48 55 56 51 53 53 54 52 51
64 64 63 63 63 63 63 63 62 62 62 62 62 61 61 61 61 61 61 62 62 62 62 62 62 61 58 49 72 73 71 69 66 64 63 61 57 57 51 53 53 57 54 54 54 52 51
63 63 63 63 63 62 62 62 62 61 62 62 62 61 61 61 61 60 62 62 61 61 61 61 62 63 55 56 72 73 71 68 67 60 55 58 59 52 55 48 55 55 49 51 53 52 51
63 63 63 63 62 62 62 61 61 62 61 61 61 61 60 60 60 59 60 60 60 60 60 61 62 61 53 70 74 70 71 68 68 67 61 62 61 53 54 58 53 49 49 42 53 52 51
63 63 63 63 62 62 61 61 61 61 61 61 61 60 60 59 59 59 59 59 60 60 60 62 59 57 53 69 64 70 69 63 65 66 62 59 54 53 55 46 44 50 44 40 49 53 51
62 62 62 62 62 62 62 61 60 60 61 61 60 60 59 59 59 59 58 59 61 59 61 63 62 51 60 58 63 65 69 65 60 61 56 55 50 47 46 42 35 45 45 48 45 50 50
62 62 61 61 61 61 61 61 60 60 60 60 60 59 58 58 60 59 57 56 53 51 55 52 55 56 57 64 66 63 66 63 62 57 49 52 44 43 48 52 52 50 51 50 54 52 48
61 61 61 60 60 60 61 61 60 60 59 59 59 59 58 57 56 57 55 50 56 55 48 57 58 58 60 61 54 60 66 56 56 50 55 50 43 53 52 54 52 52 51 51 52 52 49
61 61 60 60 60 60 60 60 59 59 59 59 58 58 58 58 55 53 52 52 59 59 48 51 55 55 56 58 54 56 60 57 53 51 52 46 49 54 51 50 49 51 50 50 49 51 52
60 60 60 60 59 59 59 59 59 58 59 58 58 57 58 58 51 53 50 60 62 60 39 44 48 53 56 57 51 61 61 55 53 48 51 50 56 50 50 48 52 45 54 52 50 47 43
60 60 59 59 59 59 59 58 58 58 58 58 57 56 58 57 50 47 54 62 61 55 29 46 48 60 56 52 54 54 61 56 49 51 49 46 48 47 46 50 52 47 53 52 51 49 48
60 60 59 59 59 58 58 58 58 58 57 57 56 56 57 58 52 53 56 60 56 36 29 40 49 47 48 51 52 55 54 58 56 50 51 49 54 50 49 51 52 54 51 51 52 46 37
59 59 59 59 58 58 58 57 57 57 57 55 54 55 56 58 50 55 57 54 34 31 42 39 42 47 48 47 48 50 48 48 45 38 37 45 46 51 51 47 53 51 45 34 31 33 36
59 59 58 58 58 58 57 57 57 56 55 53 54 56 56 58 59 52 54 44 30 38 38 46 46 47 44 48 47 48 47 46 49 48 42 36 34 46 51 47 43 45 44 35 27 32 39
58 58 58 58 57 58 57 57 56 55 54 55 56 51 50 55 53 51 47 33 37 39 43 44 45 43 43 46 47 47 47 46 48 50 40 38 38 50 50 51 49 40 37 47 37 43 38
58 58 58 58 57 57 56 57 56 56 56 56 53 48 47 52 53 49 41 37 41 47 47 47 42 45 44 45 44 45 45 47 46 50 53 46 34 46 49 51 50 45 45 35 37 27 29
57 58 58 57 56 56 56 56 56 57 56 56 52 41 48 52 51 45 35 40 45 50 50 47 45 45 46 45 46 45 44 46 49 49 51 48 42 41 47 42 40 42 37 38 33 34 29
57 57 57 57 56 56 55 54 55 56 56 55 49 37 48 51 37 42 41 44 45 48 50 49 50 48 47 46 44 44 43 45 49 49 45 48 43 34 40 47 49 46 39 37 33 29 37
57 57 57 57 56 55 55 53 54 54 55 53 43 40 49 48 35 38 45 45 47 48 48 48 47 49 49 46 42 45 44 46 49 47 44 46 37 30 35 39 44 39 42 43 36 34 33
56 57 57 56 56 55 54 54 54 53 54 54 43 35 41 43 41 41 42 43 43 49 48 49 48 50 48 45 47 43 43 44 46 47 44 46 35 32 29 31 37 33 38 42 36 30 32
55 57 56 56 56 55 54 54 53 53 53 54 44 37 42 35 39 43 46 44 43 44 49 50 47 47 47 43 43 42 44 43 45 44 45 44 31 35 37 39 38 36 36 39 32 35 30
55 56 56 56 56 56 54 54 53 53 54 53 41 37 39 40 45 45 44 42 43 45 46 45 45 47 48 44 44 42 44 44 42 44 42 42 31 30 29 38 37 34 39 40 39 40 39
56 56 56 56 56 55 55 53 52 53 53 51 49 47 41 40 40 43 45 45 44 47 46 46 47 47 44 42 47 48 48 47 42 40 39 37 32 30 30 37 32 29 38 39 41 42 39
55 55 56 56 55 55 55 55 53 54 55 55 52 48 38 38 42 43 46 46 45 44 44 45 48 47 44 52 52 50 48 46 45 42 43 37 32 33 32 32 27 39 46 44 41 40 40
55 55 55 55 55 55 55 54 55 54 53 52 54 50 45 43 47 46 45 45 45 45 42 42 43 46 51 47 43 38 38 38 39 40 41 40 37 33 31 35 37 40 42 42 40 38 38
55 55 55 55 55 54 54 54 54 55 54 52 53 56 49 41 44 45 46 47 46 46 43 40 45 51 47 46 42 33 36 33 34 32 37 39 40 34 33 28 29 42 45 47 46 35 43
55 55 54 55 54 54 54 54 54 54 54 52 51 55 51 39 47 45 46 46 49 46 44 41 42 42 45 44 39 38 39 39 35 32 32 32 33 31 35 32 39 47 47 48 33 36 45
54 54 54 54 54 54 54 54 54 54 53 51 48 52 51 46 46 44 45 45 46 47 44 43 43 42 42 38 39 41 40 41 37 41 36 36 33 33 35 30 30 49 45 39 45 48 48
54 54 54 53 53 53 53 54 54 53 52 52 45 52 57 50 45 48 46 46 44 45 47 45 44 44 48 44 41 41 40 38 39 38 42 35 43 41 41 42 48 51 49 50 49 48 47

GFSGBSN_sfc_temp_114.txt.gz
Temp
64 64 64 64 64 64 63 63 63 63 62 63 63 62 62 62 62 62 61 60 62 63 63 63 62 62 60 54 56 69 69 70 69 65 60 58 55 52 46 50 50 47 51 55 55 53 52
64 64 64 64 64 63 63 63 62 62 62 62 62 62 61 61 61 61 59 61 62 62 62 62 62 62 55 45 71 73 71 69 67 64 60 61 56 56 50 49 48 53 52 54 54 52 53
64 64 64 63 63 63 63 62 61 62 62 62 62 62 61 61 60 60 60 61 61 61 61 62 62 60 54 51 71 72 71 68 68 62 56 60 59 52 52 48 56 54 47 50 51 52 50
63 63 63 63 62 62 62 62 62 61 61 61 62 61 61 60 60 60 60 59 59 60 60 61 62 58 48 69 70 69 71 68 69 67 62 62 61 53 50 56 52 47 47 38 51 52 53
63 63 63 62 62 62 62 61 61 61 61 60 61 61 60 60 59 59 60 60 58 60 61 61 56 54 49 67 62 69 69 63 65 65 63 62 55 50 53 45 41 45 35 38 44 53 50
63 62 62 62 61 61 61 61 61 61 60 60 60 59 60 59 59 59 59 58 59 60 59 62 60 49 56 57 64 66 68 65 60 60 56 54 49 45 47 40 33 36 37 44 42 48 49
62 62 62 61 61 61 61 61 60 60 60 60 59 59 58 58 58 57 58 56 50 49 54 49 52 52 58 63 66 62 67 62 61 55 45 50 43 38 41 48 49 47 45 44 51 50 47
61 61 61 61 61 61 61 60 60 59 59 59 59 58 57 58 58 56 55 48 52 53 45 53 55 57 61 61 54 59 65 55 54 46 52 47 40 51 52 52 49 48 45 46 49 51 45
61 61 61 60 60 60 60 59 59 59 59 58 58 57 57 58 58 54 51 51 58 56 44 51 56 55 56 58 54 56 60 56 50 47 48 43 48 56 51 49 47 47 43 46 46 50 48
60 60 60 60 60 59 59 59 59 59 58 58 57 57 57 57 52 52 50 59 60 59 36 43 47 53 56 56 50 61 61 55 51 46 47 46 53 50 47 46 48 39 49 49 49 45 35
60 60 60 59 59 59 58 58 58 58 57 57 56 56 55 56 51 48 50 58 59 53 25 46 48 60 57 51 53 53 61 56 46 48 47 41 45 43 42 46 49 43 50 47 47 45 42
60 60 59 59 59 58 58 58 58 57 57 55 54 54 53 55 53 55 54 58 54 34 24 39 48 46 47 51 52 54 54 56 55 47 49 46 53 47 46 49 49 51 46 46 45 43 27
60 59 59 59 58 58 58 58 57 57 56 54 54 53 52 57 49 53 54 51 33 28 41 38 42 47 48 46 48 50 48 45 40 31 32 42 43 48 50 43 48 46 38 25 22 21 23
59 58 59 58 58 57 57 57 57 57 57 56 56 56 55 57 58 53 50 39 29 39 36 47 47 47 44 47 47 47 45 41 46 44 34 28 25 42 49 44 40 39 36 29 24 26 29
57 57 58 58 58 57 57 57 57 57 56 56 56 51 51 53 55 52 43 31 32 36 44 44 46 42 41 46 45 45 43 42 44 45 33 31 32 47 49 49 45 37 31 42 32 36 28
56 57 58 58 58 57 56 56 56 56 56 56 51 48 46 52 52 48 39 35 40 47 49 48 39 44 40 43 42 42 41 45 44 48 48 41 28 44 48 49 47 42 44 31 32 18 22
55 57 58 58 57 56 56 56 56 55 56 56 51 42 47 52 51 44 34 38 45 51 49 45 44 44 45 43 44 41 41 43 46 46 48 44 38 35 43 37 35 37 32 36 32 30 26
55 56 57 57 56 56 56 55 55 55 55 55 48 36 48 50 38 40 38 43 47 48 50 49 49 47 44 45 42 41 40 41 47 47 41 43 36 24 34 44 47 42 38 32 25 24 29
55 56 57 57 56 55 55 55 55 54 55 49 41 40 49 48 34 37 46 46 48 46 47 48 46 48 49 44 38 42 41 45 46 44 38 41 30 18 25 36 40 38 40 40 32 31 24
55 56 57 56 56 56 55 55 54 54 55 51 44 36 41 43 42 41 43 44 44 49 48 50 48 49 46 43 45 39 41 43 44 44 45 44 29 24 17 24 32 27 35 38 31 24 21
54 56 56 56 56 56 55 55 54 54 54 51 44 36 39 35 40 44 45 45 44 42 49 49 46 47 44 39 40 39 41 40 43 45 42 38 20 29 33 36 36 33 33 36 23 30 20
55 56 56 56 56 56 55 54 54 54 54 49 41 38 42 39 45 45 43 42 43 44 43 44 43 46 45 38 39 35 40 38 36 39 37 36 22 23 19 35 34 30 37 37 37 37 35
55 56 56 56 56 55 55 54 54 54 53 48 48 47 42 41 41 41 42 43 44 44 45 46 45 44 39 40 43 42 42 40 35 33 34 31 24 21 21 30 27 20 35 37 39 42 38
55 56 56 56 55 55 55 54 54 54 53 51 51 47 40 38 42 43 45 46 44 42 41 44 43 42 41 46 45 44 42 42 41 38 38 30 25 26 21 23 15 34 43 42 39 39 38
55 56 55 55 55 55 55 54 54 55 54 49 51 47 43 40 44 45 44 44 44 43 40 40 41 43 46 41 35 32 28 30 36 38 36 35 28 23 20 20 30 36 39 38 36 35 38
56 56 55 55 55 54 54 54 54 54 55 51 49 51 47 39 39 45 42 43 40 39 37 38 43 45 41 37 35 26 24 25 27 28 31 36 34 23 23 20 21 34 41 44 42 27 39
56 55 55 55 55 54 54 54 54 54 54 51 49 52 46 38 43 42 40 40 44 40 36 36 37 36 39 35 30 28 28 32 24 24 25 22 23 21 23 21 31 41 43 44 25 30 41
55 55 55 54 54 54 54 54 54 54 53 49 47 52 46 42 43 44 45 40 41 40 36 38 36 35 34 30 29 28 28 31 27 34 29 28 22 21 26 22 19 42 40 33 38 41 44
55 55 54 54 54 54 54 54 54 54 53 51 44 51 53 44 41 46 46 45 43 42 39 39 37 39 39 34 31 30 28 26 29 23 34 26 34 30 32 31 42 44 42 43 44 42 42

GFSGBSN_sfc_temp_117.txt.gz
Temp
65 64 64 64 64 64 64 63 62 62 63 63 63 63 62 62 61 61 61 59 60 62 63 63 62 62 56 48 49 68 70 69 66 62 58 55 51 51 44 47 49 44 47 51 53 52 52
64 64 64 64 64 63 63 63 62 62 62 62 62 62 62 61 61 61 61 61 60 62 62 62 62 61 50 41 65 69 66 65 65 61 58 58 54 54 49 45 45 49 49 48 50 51 50
64 64 63 63 63 63 62 62 62 62 62 62 62 61 62 61 60 60 61 61 60 60 61 62 62 59 49 48 65 65 68 64 64 59 53 57 56 49 49 43 50 50 43 49 50 52 49
64 63 63 63 63 62 62 62 62 62 61 62 61 61 60 61 60 60 60 61 60 57 60 61 61 54 45 64 64 63 66 63 63 62 59 58 58 50 49 50 48 45 44 36 49 50 50
63 63 63 62 62 62 62 62 61 61 61 61 61 60 60 59 59 59 59 60 60 58 60 61 53 49 44 66 59 63 63 61 60 61 59 60 52 46 49 43 39 40 31 35 41 52 49
63 62 62 62 62 62 62 61 61 60 60 60 60 59 58 58 59 58 58 58 58 58 58 60 58 46 52 53 60 62 62 62 57 56 52 50 45 40 44 38 30 35 36 40 38 48 48
62 62 61 61 61 61 61 60 60 60 60 60 59 58 57 58 58 58 54 49 45 43 49 44 47 47 55 59 62 58 62 58 56 51 40 45 39 35 40 44 42 41 41 39 45 48 45
62 62 61 61 61 61 60 59 60 60 59 59 59 57 57 58 58 58 53 44 46 48 39 51 53 53 57 58 50 55 62 50 49 40 45 43 34 43 49 47 43 45 42 39 44 49 46
61 61 61 61 60 60 59 59 59 58 59 58 57 57 56 57 57 51 49 51 56 53 41 49 52 51 53 55 50 51 56 52 46 42 43 36 43 53 49 44 42 42 39 40 42 49 46
60 61 60 60 60 59 58 59 58 58 57 56 56 56 55 55 49 51 48 55 58 55 35 41 45 50 54 53 46 58 58 51 47 42 44 40 48 46 42 41 44 35 46 45 43 38 31
59 60 59 59 59 58 58 59 58 57 57 55 55 55 54 54 45 45 50 54 54 48 22 44 45 57 54 48 49 50 57 51 42 43 42 36 41 40 39 42 45 39 46 43 42 37 35
58 59 58 58 59 58 58 58 58 57 57 57 56 55 54 53 50 51 54 54 50 31 22 39 45 44 44 47 48 51 50 52 51 44 44 41 48 44 42 46 45 47 42 41 39 37 23
58 57 57 57 59 58 58 58 57 57 57 56 56 56 52 54 46 51 51 46 32 22 39 36 40 44 43 42 44 46 44 40 35 26 26 37 40 45 48 39 45 44 34 19 21 18 21
57 56 57 57 58 58 57 57 57 57 56 56 56 55 54 55 52 51 48 38 26 35 33 45 44 43 39 43 42 43 40 35 41 38 25 22 23 40 46 40 36 36 35 28 22 25 25
56 56 57 58 58 57 57 57 57 56 56 56 56 50 47 50 51 51 42 30 30 32 42 41 42 36 36 42 41 39 37 36 39 40 29 26 28 44 46 46 42 35 28 40 31 33 28
56 56 57 58 57 57 57 57 56 56 56 56 45 46 46 52 51 47 38 36 36 45 45 44 33 39 33 36 36 36 35 40 39 43 41 36 24 40 44 45 43 39 41 28 27 20 23
56 56 57 58 57 56 56 56 56 56 56 56 45 41 47 51 50 42 33 35 42 48 47 42 38 38 38 37 38 35 33 38 42 42 43 38 32 31 38 34 32 34 30 32 27 28 25
56 57 57 57 56 56 56 56 55 56 55 49 40 36 49 47 35 35 31 40 46 45 47 45 44 42 39 39 36 35 33 36 43 42 35 37 32 19 31 40 43 39 33 29 20 21 29
56 56 57 57 56 56 56 55 55 55 55 46 41 40 46 44 34 30 40 44 45 43 43 43 42 44 44 39 33 37 35 42 42 39 34 37 25 10 22 29 35 33 35 35 29 28 20
56 56 57 56 56 56 55 55 54 55 55 46 37 33 38 39 39 34 36 39 40 46 44 46 44 45 42 39 40 35 35 40 42 40 46 41 26 20 14 21 28 25 32 35 27 15 25
56 56 56 56 56 56 55 55 54 55 55 46 38 36 38 28 35 37 39 40 39 37 43 45 41 41 38 33 35 34 36 36 41 44 39 34 17 25 29 33 33 31 31 33 20 27 19
57 56 56 56 56 55 55 54 54 54 54 41 34 32 35 35 38 38 39 38 38 39 39 38 38 39 38 33 33 30 34 32 30 37 33 33 18 19 17 32 31 30 35 34 35 35 32
57 56 56 56 56 55 55 54 54 54 51 40 41 41 36 37 34 34 36 39 39 40 41 41 39 38 34 36 37 36 36 35 32 29 31 27 20 18 18 29 23 18 33 34 35 37 35
57 56 56 56 55 55 54 54 54 54 51 44 44 42 36 33 35 38 41 42 40 38 37 39 38 37 38 43 42 40 37 37 37 34 35 27 21 23 16 19 11 32 40 40 37 37 37
57 56 56 55 55 55 54 54 54 54 54 44 44 41 40 31 38 40 41 41 39 38 36 37 37 38 39 37 31 29 26 29 32 33 32 32 26 20 17 15 28 32 36 36 33 33 37
57 56 56 55 55 54 54 54 54 54 54 45 44 45 44 35 33 40 38 39 35 33 33 35 40 40 39 33 32 23 20 24 25 26 30 33 31 21 19 18 20 33 38 42 39 27 37
57 56 56 55 55 54 54 54 54 54 54 46 43 47 44 37 36 37 34 35 38 35 31 31 34 34 36 31 26 23 26 30 22 22 24 18 18 18 18 17 27 38 40 41 24 30 38
56 56 55 55 54 54 54 54 54 53 53 47 42 46 42 40 38 40 41 35 37 35 31 35 34 33 30 28 24 23 25 28 25 29 27 26 19 19 21 18 19 39 37 33 37 38 40
56 56 55 54 54 54 54 54 53 53 53 50 43 50 51 42 39 43 43 43 42 40 36 35 35 34 34 30 26 24 26 20 25 20 31 26 31 28 28 28 38 40 39 41 41 40 40